[[{"header":{"parameterUnit":"m.s-1","parameterCategory":1,"la1":30.6,"la2":28.766,"lo1":-90.7593,"lo2":-88.6598,"dy":0.0162,"dx":0.0183,"nx":116,"ny":114,"refTime":"2023-02-24T06:00:00:Z","depth":0,"parameterNumber":2,"parameterNumberName":"U-component_of_WINDS"},"data":[0.0,0.0,0.0,0.0,0.0,0.0,0.0,0.0,0.0,0.0,0.0,0.0,0.0,0.0,0.0,0.0,0.0,0.0,0.0,0.0,0.0,0.0,0.0,0.0,0.0,0.0,0.0,0.0,0.0,0.0,0.0,0.0,0.0,0.0,0.0,0.0,0.0,0.0,0.0,0.0,0.0,0.0,0.0,0.0,0.0,0.0,0.0,0.0,0.0,0.0,0.0,0.0,0.0,0.0,0.0,0.0,0.0,0.0,0.0,0.0,0.0,0.0,0.0,0.0,0.0,0.0,0.0,0.0,0.0,0.0,0.0,0.0,0.0,0.0,0.0,0.0,0.0,0.0,0.0,0.0,0.0,0.0,0.0,0.0,0.0,0.0,0.0,0.0,0.0,0.0,0.0,0.0,0.0,0.0,0.0,0.0,0.0,0.0,0.0,0.0,0.0,0.0,0.0,0.0,0.0,0.0,0.0,0.0,0.0,0.0,0.0,0.0,0.0,0.0,0.0,0.0,0.0,0.0,0.0,0.0,0.0,0.0,0.0,0.0,0.0,0.0,0.0,0.0,0.0,0.0,0.0,0.0,0.0,0.0,0.0,0.0,0.0,0.0,0.0,0.0,0.0,0.0,0.0,0.0,0.0,0.0,0.0,0.0,0.0,0.0,0.0,0.0,0.0,0.0,0.0,0.0,0.0,0.0,0.0,0.0,0.0,0.0,0.0,0.0,0.0,0.0,0.0,0.0,0.0,0.0,0.0,0.0,0.0,0.0,0.0,0.0,0.0,0.0,0.0,0.0,0.0,0.0,0.0,0.0,0.0,0.0,0.0,0.0,0.0,0.0,0.0,0.0,0.0,0.0,0.0,0.0,0.0,0.0,0.0,0.0,0.0,0.0,0.0,0.0,0.0,0.0,0.0,0.0,0.0,0.0,0.0,0.0,0.0,0.0,0.0,0.0,0.0,0.0,0.0,0.0,0.0,0.0,0.0,0.0,0.0,0.0,0.0,0.0,0.0,0.0,0.0,0.0,0.0,0.0,0.0,0.0,0.0,0.0,0.0,0.0,0.0,0.0,0.0,0.0,0.0,0.0,0.0,0.0,0.0,0.0,0.0,0.0,0.0,0.0,0.0,0.0,0.0,0.0,0.0,0.0,0.0,0.0,0.0,0.0,0.0,0.0,0.0,0.0,0.0,0.0,0.0,0.0,0.0,0.0,0.0,0.0,0.0,0.0,0.0,0.0,0.0,0.0,0.0,0.0,0.0,0.0,0.0,0.0,0.0,0.0,0.0,0.0,0.0,0.0,0.0,0.0,0.0,0.0,0.0,0.0,0.0,0.0,0.0,0.0,0.0,0.0,0.0,0.0,0.0,0.0,0.0,0.0,0.0,0.0,0.0,0.0,0.0,0.0,0.0,0.0,0.0,0.0,0.0,0.0,0.0,0.0,0.0,0.0,0.0,0.0,0.0,0.0,0.0,0.0,0.0,0.0,0.0,0.0,0.0,0.0,0.0,0.0,0.0,0.0,0.0,0.0,0.0,0.0,0.0,0.0,0.0,0.0,0.0,0.0,0.0,0.0,0.0,0.0,0.0,0.0,0.0,0.0,0.0,0.0,0.0,0.0,0.0,0.0,0.0,0.0,0.0,0.0,0.0,0.0,0.0,0.0,0.0,0.0,0.0,0.0,0.0,0.0,0.0,0.0,0.0,0.0,0.0,0.0,0.0,0.0,0.0,0.0,0.0,0.0,0.0,0.0,0.0,0.0,0.0,0.0,0.0,0.0,0.0,0.0,0.0,0.0,0.0,0.0,0.0,0.0,0.0,0.0,0.0,0.0,0.0,0.0,0.0,0.0,0.0,0.0,0.0,0.0,0.0,0.0,0.0,0.0,0.0,0.0,0.0,0.0,0.0,0.0,0.0,0.0,0.0,0.0,0.0,0.0,0.0,0.0,0.0,0.0,0.0,0.0,0.0,0.0,0.0,0.0,0.0,0.0,0.0,0.0,0.0,0.0,0.0,0.0,0.0,0.0,0.0,0.0,0.0,0.0,0.0,0.0,0.0,0.0,0.0,0.0,0.0,0.0,0.0,0.0,0.0,0.0,0.0,0.0,0.0,0.0,0.0,0.0,0.0,0.0,0.0,0.0,0.0,0.0,0.0,0.0,0.0,0.0,0.0,0.0,0.0,0.0,0.0,0.0,0.0,0.0,0.0,0.0,0.0,0.0,0.0,0.0,0.0,0.0,0.0,0.0,0.0,0.0,0.0,0.0,0.0,0.0,0.0,0.0,0.0,0.0,0.0,0.0,0.0,0.0,0.0,0.0,0.0,0.0,0.0,0.0,0.0,0.0,0.0,0.0,0.0,0.0,0.0,0.0,0.0,0.0,0.0,0.0,0.0,0.0,0.0,0.0,0.0,0.0,0.0,0.0,0.0,0.0,0.0,0.0,0.0,0.0,0.0,0.0,0.0,0.0,0.0,0.0,0.0,0.0,0.0,0.0,0.0,0.0,0.0,0.0,0.0,0.0,0.0,0.0,0.0,0.0,0.0,0.0,0.0,0.0,0.0,0.0,0.0,0.0,0.0,0.0,0.0,0.0,0.0,0.0,0.0,0.0,0.0,0.0,0.0,0.0,0.0,0.0,0.0,0.0,0.0,0.0,0.0,0.0,0.0,0.0,0.0,0.0,0.0,0.0,0.0,0.0,0.0,0.0,0.0,0.0,0.0,0.0,0.0,0.0,0.0,0.0,0.0,0.0,0.0,0.0,0.0,0.0,0.0,0.0,0.0,0.0,0.0,0.0,0.0,0.0,0.0,0.0,0.0,0.0,0.0,0.0,0.0,0.0,0.0,0.0,0.0,0.0,0.0,0.0,0.0,0.0,0.0,0.0,0.0,0.0,0.0,0.0,0.0,0.0,0.0,0.0,0.0,0.0,0.0,0.0,0.0,0.0,0.0,0.0,0.0,0.0,0.0,0.0,0.0,0.0,0.0,0.0,0.0,0.0,0.0,0.0,0.0,0.0,0.0,0.0,0.0,0.0,0.0,0.0,0.0,0.0,0.0,0.0,0.0,0.0,0.0,0.0,0.0,0.0,0.0,0.0,0.0,0.0,0.0,0.0,0.0,0.0,0.0,0.0,0.0,0.0,0.0,0.0,0.0,0.0,0.0,0.0,0.0,0.0,0.0,0.0,0.0,0.0,0.0,0.0,0.0,0.0,0.0,0.0,0.0,0.0,0.0,0.0,0.0,0.0,0.0,0.0,0.0,0.0,0.0,0.0,0.0,0.0,0.0,0.0,0.0,0.0,0.0,0.0,0.0,0.0,0.0,0.0,0.0,0.0,0.0,0.0,0.0,0.0,0.0,0.0,0.0,0.0,0.0,0.0,0.0,0.0,0.0,0.0,0.0,0.0,0.0,0.0,0.0,0.0,0.0,0.0,0.0,0.0,0.0,0.0,0.0,0.0,0.0,0.0,0.0,0.0,0.0,0.0,0.0,0.0,0.0,0.0,0.0,0.0,0.0,0.0,0.0,0.0,0.0,0.0,0.0,0.0,0.0,0.0,0.0,0.0,0.0,0.0,0.0,0.0,0.0,0.0,0.0,0.0,0.0,0.0,0.0,0.0,0.0,0.0,0.0,0.0,0.0,0.0,0.0,0.0,0.0,0.0,0.0,0.0,0.0,0.0,0.0,0.0,0.0,0.0,0.0,0.0,0.0,0.0,0.0,0.0,0.0,0.0,0.0,0.0,0.0,0.0,0.0,0.0,0.0,0.0,0.0,0.0,0.0,0.0,0.0,0.0,0.0,0.0,0.0,0.0,0.0,0.0,0.0,0.0,0.0,0.0,0.0,0.0,0.0,0.0,0.0,0.0,0.0,0.0,0.0,0.0,0.0,0.0,0.0,0.0,0.0,0.0,0.0,0.0,0.0,0.0,0.0,0.0,0.0,0.0,0.0,0.0,0.0,0.0,0.0,0.0,0.0,0.0,0.0,0.0,0.0,0.0,0.0,0.0,0.0,0.0,0.0,0.0,0.0,0.0,0.0,0.0,0.0,0.0,0.0,0.0,0.0,0.0,0.0,0.0,0.0,0.0,0.0,0.0,0.0,0.0,0.0,0.0,0.0,0.0,0.0,0.0,0.0,0.0,0.0,0.0,0.0,0.0,0.0,0.0,0.0,0.0,0.0,0.0,0.0,0.0,0.0,0.0,0.0,0.0,0.0,0.0,0.0,0.0,0.0,0.0,0.0,0.0,0.0,0.0,0.0,0.0,0.0,0.0,0.0,0.0,0.0,0.0,0.0,0.0,0.0,0.0,0.0,0.0,0.0,0.0,0.0,0.0,0.0,0.0,0.0,0.0,0.0,0.0,0.0,0.0,0.0,0.0,0.0,0.0,0.0,0.0,0.0,0.0,0.0,0.0,0.0,0.0,0.0,0.0,0.0,0.0,0.0,0.0,0.0,0.0,0.0,0.0,0.0,0.0,0.0,0.0,0.0,0.0,0.0,0.0,0.0,0.0,0.0,0.0,0.0,0.0,0.0,0.0,0.0,0.0,0.0,0.0,0.0,0.0,0.0,0.0,0.0,0.0,0.0,0.0,0.0,0.0,0.0,0.0,0.0,0.0,0.0,0.0,0.0,0.0,0.0,0.0,0.0,0.0,0.0,0.0,0.0,0.0,0.0,0.0,0.0,0.0,0.0,0.0,0.0,0.0,0.0,0.0,0.0,0.0,0.0,0.0,0.0,0.0,0.0,0.0,0.0,0.0,0.0,0.0,0.0,0.0,0.0,0.0,0.0,0.0,0.0,0.0,0.0,0.0,0.0,0.0,0.0,0.0,0.0,0.0,0.0,0.0,0.0,0.0,0.0,0.0,0.0,0.0,0.0,0.0,0.0,0.0,0.0,0.0,0.0,0.0,0.0,0.0,0.0,0.0,0.0,0.0,0.0,0.0,0.0,0.0,0.0,0.0,0.0,0.0,0.0,0.0,0.0,0.0,0.0,0.0,0.0,0.0,0.0,0.0,0.0,0.0,0.0,0.0,0.0,0.0,0.0,0.0,0.0,0.0,0.0,0.0,0.0,0.0,0.0,0.0,0.0,0.0,0.0,0.0,0.0,0.0,0.0,0.0,0.0,0.0,0.0,0.0,0.0,0.0,0.0,0.0,0.0,0.0,0.0,0.0,0.0,0.0,0.0,0.0,0.0,0.0,0.0,0.0,0.0,0.0,0.0,0.0,0.0,0.0,0.0,0.0,0.0,0.0,0.0,0.0,0.0,0.0,0.0,0.0,0.0,0.0,0.0,0.0,0.0,0.0,0.0,0.0,0.0,0.0,0.0,0.0,0.0,0.0,0.0,0.0,0.0,0.0,0.0,0.0,0.0,0.0,0.0,0.0,0.0,0.0,0.0,0.0,0.0,0.0,0.0,0.0,0.0,0.0,0.0,0.0,0.0,0.0,0.0,0.0,0.0,0.0,0.0,0.0,0.0,0.0,0.0,0.0,0.0,0.0,0.0,0.0,0.0,0.0,0.0,0.0,0.0,0.0,0.0,0.0,0.0,0.0,0.0,0.0,0.0,0.0,0.0,0.0,0.0,0.0,0.0,0.0,0.0,0.0,0.0,0.0,0.0,0.0,0.0,0.0,0.0,0.0,0.0,0.0,0.0,0.0,0.0,0.0,0.0,0.0,0.0,0.0,0.0,0.0,0.0,0.0,0.0,0.0,0.0,0.0,0.0,0.0,0.0,0.0,0.0,0.0,0.0,0.0,0.0,0.0,0.0,0.0,0.0,0.0,0.0,0.0,0.0,0.0,0.0,0.0,0.0,0.0,0.0,0.0,0.0,0.0,0.0,0.0,0.0,0.0,0.0,0.0,0.0,0.0,0.0,0.0,0.0,0.0,0.0,0.0,0.0,0.0,0.0,0.0,0.0,0.0,0.0,0.0,0.0,0.0,0.0,0.0,0.0,0.0,0.0,0.0,0.0,0.0,0.0,0.0,0.0,0.0,0.0,0.0,0.0,0.0,0.0,0.0,0.0,0.0,0.0,0.0,0.0,0.0,0.0,0.0,0.0,0.0,0.0,0.0,0.0,0.0,0.0,0.0,0.0,0.0,-2.1072,0.0,0.0,0.0,0.0,0.0,0.0,0.0,0.0,0.0,0.0,0.0,0.0,0.0,0.0,0.0,0.0,0.0,0.0,0.0,0.0,0.0,0.0,0.0,0.0,0.0,0.0,0.0,0.0,0.0,0.0,0.0,0.0,0.0,0.0,0.0,0.0,0.0,0.0,0.0,0.0,0.0,0.0,0.0,0.0,0.0,0.0,0.0,0.0,0.0,0.0,0.0,0.0,0.0,0.0,0.0,0.0,0.0,0.0,0.0,0.0,0.0,0.0,0.0,0.0,0.0,0.0,0.0,0.0,0.0,0.0,0.0,0.0,0.0,0.0,0.0,0.0,0.0,0.0,0.0,0.0,0.0,0.0,0.0,0.0,0.0,0.0,0.0,0.0,0.0,0.0,0.0,0.0,0.0,0.0,0.0,0.0,0.0,0.0,0.0,0.0,0.0,0.0,0.0,0.0,0.0,0.0,0.0,0.0,0.0,0.0,0.0,0.0,0.0,0.0,0.0,0.0,-2.0326,0.0,0.0,0.0,0.0,0.0,0.0,0.0,0.0,0.0,0.0,0.0,0.0,0.0,0.0,0.0,0.0,0.0,0.0,0.0,0.0,0.0,0.0,0.0,0.0,0.0,0.0,0.0,0.0,0.0,0.0,0.0,0.0,0.0,0.0,0.0,0.0,0.0,0.0,0.0,0.0,0.0,0.0,0.0,0.0,0.0,0.0,0.0,0.0,0.0,0.0,0.0,0.0,0.0,0.0,0.0,0.0,0.0,0.0,0.0,0.0,0.0,0.0,0.0,0.0,0.0,0.0,0.0,0.0,0.0,0.0,0.0,0.0,0.0,0.0,0.0,0.0,0.0,0.0,0.0,0.0,0.0,0.0,0.0,0.0,0.0,0.0,0.0,0.0,0.0,0.0,0.0,0.0,0.0,0.0,0.0,0.0,0.0,0.0,0.0,0.0,0.0,0.0,0.0,0.0,0.0,0.0,0.0,0.0,-1.5192,-1.5711,-1.6642,-1.5645,-1.577,-1.6829,-1.8016,-1.8922,-1.9748,0.0,0.0,0.0,0.0,0.0,0.0,0.0,0.0,0.0,0.0,0.0,0.0,0.0,0.0,0.0,0.0,0.0,0.0,0.0,0.0,0.0,0.0,0.0,0.0,0.0,0.0,0.0,0.0,0.0,0.0,0.0,0.0,0.0,0.0,0.0,0.0,0.0,0.0,0.0,-1.2807,-1.4285,-1.52,-1.5639,0.0,0.0,0.0,0.0,0.0,0.0,0.0,0.0,0.0,0.0,0.0,0.0,0.0,0.0,0.0,0.0,0.0,0.0,0.0,0.0,0.0,0.0,0.0,0.0,0.0,0.0,0.0,0.0,0.0,0.0,0.0,0.0,0.0,0.0,0.0,0.0,0.0,0.0,0.0,0.0,0.0,0.0,0.0,0.0,-2.0386,-2.0582,0.0,0.0,0.0,0.0,0.0,0.0,0.0,0.0,0.0,0.0,0.0,0.0,0.0,-1.5903,-1.5903,-1.5903,-1.5667,-1.5192,-1.5192,-1.5278,-1.543,-1.5278,-1.5287,-1.5546,-1.7137,0.0,-1.6243,-1.9548,0.0,0.0,0.0,0.0,0.0,0.0,0.0,0.0,0.0,0.0,0.0,0.0,0.0,0.0,0.0,0.0,0.0,0.0,0.0,0.0,0.0,0.0,0.0,0.0,0.0,0.0,0.0,0.0,0.0,0.0,0.0,0.0,0.0,0.0,0.0,0.0,-1.2054,-1.1743,-1.1637,-1.2395,-1.3014,-1.348,-1.3612,-1.5388,-1.8275,-1.8346,0.0,0.0,0.0,0.0,0.0,0.0,0.0,0.0,0.0,0.0,0.0,0.0,0.0,0.0,0.0,0.0,0.0,0.0,0.0,0.0,0.0,0.0,0.0,0.0,0.0,0.0,0.0,0.0,0.0,0.0,0.0,0.0,0.0,0.0,0.0,0.0,0.0,0.0,0.0,-2.0491,-1.9922,-1.8635,-1.9521,-2.0034,0.0,0.0,0.0,0.0,0.0,0.0,0.0,0.0,0.0,-1.8992,-1.7346,-1.5915,-1.4817,-1.4817,-1.5892,-1.8077,-1.8077,-1.7558,-1.6619,-1.6619,-1.6099,-1.525,-1.5984,-1.7054,-1.8248,-1.7837,-1.9331,-2.1892,0.0,0.0,0.0,0.0,-2.0999,-2.0395,0.0,0.0,0.0,0.0,0.0,0.0,0.0,0.0,0.0,0.0,0.0,0.0,0.0,0.0,0.0,-1.4077,0.0,0.0,0.0,0.0,0.0,0.0,0.0,0.0,0.0,0.0,0.0,0.0,-1.1228,-1.1126,-1.1001,-1.1259,-1.1681,-1.2225,-1.2339,-1.381,-1.6245,-1.6679,-1.7092,0.0,0.0,0.0,0.0,0.0,0.0,0.0,0.0,0.0,0.0,0.0,0.0,0.0,0.0,0.0,0.0,0.0,0.0,0.0,0.0,0.0,0.0,0.0,0.0,0.0,0.0,0.0,0.0,0.0,0.0,0.0,0.0,0.0,0.0,0.0,0.0,0.0,0.0,-1.8995,-1.8812,-1.7015,-1.7779,-1.8775,0.0,0.0,0.0,0.0,0.0,0.0,-1.903,-1.9435,-1.9133,-1.795,-1.7508,-1.6786,-1.5747,-1.5723,-1.7185,-2.0036,-2.0036,-1.9451,-1.8365,-1.8196,-1.7049,-1.525,-1.6181,-1.81,-2.036,-1.7323,-1.7783,-2.0446,-2.0956,-2.0994,-2.0755,-2.0594,-2.0045,-1.9378,0.0,0.0,0.0,0.0,0.0,0.0,0.0,0.0,0.0,0.0,0.0,0.0,0.0,0.0,-1.4949,-1.4085,-1.4116,-1.3804,0.0,0.0,0.0,0.0,0.0,0.0,0.0,0.0,0.0,-1.1302,-1.1228,-1.1131,-1.102,-1.1781,-1.2192,-1.2302,-1.2292,-1.3363,-1.5119,-1.4345,-1.5036,-1.6651,0.0,0.0,0.0,0.0,0.0,0.0,0.0,0.0,0.0,0.0,0.0,0.0,0.0,0.0,0.0,0.0,0.0,0.0,0.0,0.0,0.0,0.0,0.0,0.0,0.0,0.0,0.0,0.0,0.0,0.0,0.0,0.0,0.0,0.0,0.0,0.0,0.0,0.0,0.0,-1.6288,-1.7026,0.0,0.0,0.0,0.0,-1.9944,-1.8739,-1.8456,-1.9507,-1.9404,-1.8823,-1.7748,-1.7211,-1.7615,-1.904,-1.9058,-1.9154,-1.9357,-1.9357,-1.9645,-2.0142,-1.9501,-1.7742,-1.5391,-1.8832,-2.0429,-2.0466,-1.8616,-1.8867,-2.0409,-2.0443,-2.0213,-1.9852,-1.9851,-1.9729,-1.9566,0.0,0.0,0.0,0.0,0.0,0.0,0.0,0.0,0.0,0.0,0.0,0.0,0.0,-1.6526,-1.6292,-1.4896,-1.5808,-1.5149,-1.2098,0.0,0.0,0.0,0.0,0.0,0.0,0.0,-1.1442,-1.0531,-1.0417,-1.0604,-1.1075,-1.1314,-1.1719,-1.2221,-1.2105,-1.2496,-1.3228,-1.3043,-1.3366,-1.4062,-1.4606,-1.5497,0.0,0.0,0.0,0.0,0.0,0.0,0.0,0.0,0.0,0.0,0.0,0.0,0.0,0.0,0.0,0.0,0.0,0.0,0.0,0.0,0.0,0.0,0.0,0.0,0.0,0.0,0.0,0.0,0.0,0.0,0.0,0.0,0.0,0.0,0.0,0.0,0.0,-1.841,-1.8224,0.0,0.0,-1.9952,-2.0291,-1.9474,-1.9676,-1.9744,-1.9552,-1.9394,-1.9132,-1.8739,-1.8537,-1.872,-1.9297,-1.9297,-1.9297,-1.9297,-1.9297,-1.9427,-1.9663,-1.963,-1.859,-1.6885,-1.8256,-1.9508,-2.0487,-1.9901,-1.9961,-2.0331,-1.9685,-1.9315,-1.9217,-1.963,-1.9793,-1.9867,0.0,0.0,0.0,0.0,0.0,0.0,0.0,0.0,0.0,0.0,0.0,-1.6095,-1.6055,-1.6804,-1.6733,-1.5311,-1.5997,-1.5042,-1.1626,0.0,0.0,0.0,0.0,0.0,0.0,-1.1742,-1.101,-1.0125,-1.0038,-1.0261,-1.0767,-1.0678,-1.09,-1.1397,-1.1441,-1.1544,-1.1682,-1.2024,-1.2131,-1.2175,-1.3098,-1.4334,-1.5655,0.0,0.0,0.0,0.0,0.0,0.0,0.0,0.0,0.0,0.0,0.0,0.0,0.0,0.0,0.0,0.0,0.0,0.0,0.0,0.0,0.0,0.0,0.0,0.0,0.0,0.0,0.0,0.0,0.0,0.0,0.0,0.0,0.0,0.0,0.0,-1.8756,-2.0346,-1.9685,-1.9348,-2.0003,-2.0473,-2.0603,-2.0297,-2.1365,-2.1424,-2.0052,-1.9895,-1.9664,-1.9315,-1.9297,-1.9297,-1.9297,-1.9297,-1.9297,-1.9297,-1.9297,-1.9297,-1.9315,-1.9522,-1.9251,-1.8579,-1.864,-1.9371,-2.0508,-2.0566,-2.0703,-2.076,-1.9784,-1.9315,-1.926,-1.969,-2.0082,-2.0458,0.0,0.0,0.0,0.0,0.0,0.0,0.0,0.0,0.0,0.0,-1.4745,-1.5302,-1.521,-1.6007,-1.6177,-1.5278,-1.4401,-1.3188,-1.1503,-1.2199,0.0,0.0,0.0,0.0,-1.1537,-1.1478,-1.1041,-1.0196,-1.0196,-1.0165,-1.0096,-0.9963,-0.9879,-0.9862,-1.0367,-1.0626,-1.0716,-1.1282,-1.1394,-1.1233,-1.2194,-1.3117,-1.398,0.0,0.0,0.0,0.0,0.0,0.0,0.0,0.0,0.0,0.0,0.0,0.0,0.0,0.0,0.0,0.0,0.0,0.0,0.0,0.0,0.0,0.0,0.0,0.0,0.0,0.0,0.0,0.0,0.0,0.0,0.0,0.0,0.0,-1.9737,-1.9798,-2.0269,-2.1812,-2.1254,-2.101,-2.1729,-2.1007,-2.106,-2.2502,-2.3547,-2.318,-2.1033,-2.0886,-2.0372,-1.9334,-1.9297,-1.9297,-1.9297,-1.9297,-1.9297,-1.9297,-1.9297,-1.9297,-1.9297,-1.9305,-1.9663,-2.0273,-2.0238,-2.032,-2.0508,-2.0605,-2.1094,-2.1717,-2.0809,-2.0308,-2.0088,-2.0088,-2.0623,-2.1382,0.0,0.0,0.0,0.0,0.0,0.0,0.0,0.0,0.0,0.0,-1.5253,-1.5923,-1.527,-1.6494,-1.6784,-1.533,-1.4401,-1.3195,-1.1502,0.0,0.0,0.0,0.0,0.0,-1.1581,-1.0956,-1.0485,-1.0201,-1.0201,-1.0199,-1.017,-0.9985,-1.0201,-1.0737,-1.0543,-1.1234,-1.2545,-1.2324,-1.231,-1.2452,-1.2257,-1.2776,-1.3717,0.0,0.0,0.0,0.0,0.0,0.0,0.0,0.0,0.0,0.0,0.0,0.0,0.0,0.0,0.0,0.0,0.0,0.0,0.0,0.0,0.0,0.0,0.0,0.0,0.0,0.0,0.0,0.0,0.0,0.0,0.0,0.0,-1.9243,-2.02,-2.0147,-2.0445,-2.1706,-2.1641,-2.151,-2.1516,-2.1972,-2.2364,-2.2588,-2.2511,-2.2198,-2.1592,-2.0399,-1.9609,-1.9315,-1.9297,-1.9297,-1.9297,-1.9297,-1.9297,-1.9297,-1.9297,-1.9297,-1.9305,-1.955,-1.9763,-1.9943,-2.0232,-2.0386,-2.049,-2.1227,-2.1641,-2.1776,-2.1515,-2.1694,-2.2092,-2.2092,-2.2244,-2.2485,0.0,0.0,0.0,0.0,0.0,0.0,0.0,0.0,0.0,0.0,-1.5293,-1.6098,-1.485,-1.5884,-1.6137,-1.4775,-1.3555,-1.2442,-1.1466,0.0,0.0,0.0,0.0,-1.1426,-1.1055,-1.0566,-1.0273,-1.0232,-1.0232,-1.024,-1.0209,-1.0023,-1.0366,-1.1103,-1.1015,-1.1806,-1.3192,-1.338,-1.3432,-1.3385,-1.3559,-1.39,-1.4311,-1.4312,-1.5164,-1.6413,-1.6961,-1.7718,-1.8591,-1.9478,0.0,0.0,0.0,0.0,0.0,0.0,0.0,0.0,0.0,0.0,0.0,0.0,0.0,0.0,0.0,0.0,0.0,0.0,0.0,0.0,0.0,0.0,0.0,0.0,-1.9889,-2.0084,-2.1374,-2.1407,-2.1689,-2.2694,-2.2804,-2.274,-2.2601,-2.3152,-2.3436,-2.3283,-2.2987,-2.24,-2.1464,-2.0509,-1.9756,-1.9315,-1.9297,-1.9297,-1.9297,-1.9297,-1.9473,-1.9806,-1.9806,-1.985,-1.9937,-2.0129,-2.0095,0.0,-2.0581,-2.0897,-2.1025,-2.2025,-2.2617,0.0,0.0,0.0,0.0,0.0,-2.3191,-2.3494,0.0,0.0,0.0,0.0,0.0,0.0,0.0,0.0,0.0,0.0,0.0,-1.5722,-1.3917,-1.4495,-1.4628,-1.3703,-1.2353,-1.1558,0.0,0.0,0.0,-1.1533,-1.1478,-1.1094,-1.0312,-1.0293,-1.0293,-1.0293,-1.0293,-1.0268,-1.0193,-1.0057,-1.043,-1.1253,-1.162,-1.2308,-1.3221,-1.4243,-1.4424,-1.4125,-1.5367,-1.5641,-1.5274,-1.5296,-1.6436,-1.8011,-1.8028,-1.7957,-1.7939,-1.8648,0.0,0.0,0.0,0.0,0.0,0.0,0.0,0.0,0.0,0.0,0.0,0.0,0.0,0.0,0.0,0.0,0.0,0.0,0.0,0.0,0.0,0.0,0.0,0.0,-2.0626,-2.0961,-2.2868,-2.3088,-2.3363,-2.4116,-2.419,-2.419,-2.419,-2.419,-2.419,-2.419,-2.4126,-2.3162,-2.1116,0.0,0.0,0.0,0.0,-1.9444,-1.9436,-1.9444,-1.9793,-2.0525,-2.0527,-2.0699,-2.097,-2.0982,-2.0734,-2.0332,-2.1271,-2.1733,-2.1924,-2.2924,-2.3809,-2.4473,-2.3691,-2.3359,-2.3298,-2.3282,-2.3757,-2.4277,0.0,0.0,0.0,0.0,0.0,0.0,0.0,0.0,0.0,-1.3029,-1.3848,-1.3931,-1.2186,-1.2704,-1.2846,-1.1951,-1.2225,-1.2462,0.0,0.0,-1.094,-1.1478,-1.0895,-1.0469,-1.0293,-1.0293,-1.0293,-1.0293,-1.0252,-1.0201,-1.0193,-1.0006,-1.0687,-1.2068,-1.188,-1.27,-1.418,-1.3947,-1.4205,-1.4836,-1.5414,-1.5418,-1.5122,-1.5764,-1.635,-1.6835,-1.6957,-1.7985,-1.924,-1.8924,-1.9768,-2.0968,-2.1086,0.0,0.0,0.0,0.0,0.0,0.0,0.0,0.0,0.0,0.0,0.0,0.0,0.0,0.0,0.0,0.0,0.0,0.0,0.0,0.0,-2.2378,-2.2026,-2.2063,-2.3721,-2.3729,-2.3715,-2.4152,-2.419,-2.419,-2.419,-2.419,-2.419,-2.419,-2.3594,-2.2749,-2.1688,-2.0954,0.0,-2.0272,-2.0272,-2.0264,-2.0266,-2.0264,-2.0421,-2.0749,0.0,0.0,-2.2015,-2.2182,-2.2201,-2.2123,-2.2527,-2.2719,-2.2814,-2.3783,-2.4668,-2.543,-2.5195,-2.5117,-2.5097,-2.5109,-2.476,-2.4297,0.0,0.0,0.0,0.0,0.0,0.0,0.0,0.0,0.0,0.0,-1.3828,-1.3604,-1.2294,-1.2517,-1.2577,-1.2132,-1.2497,0.0,0.0,-1.1325,-1.0846,-1.0846,-1.0506,-1.0293,-1.0293,-1.0293,-1.0293,-1.0293,-1.0231,-1.0199,-1.0193,-0.9996,-1.0545,-1.1704,-1.1952,-1.2787,-1.4017,-1.4386,-1.4759,-1.517,-1.5971,-1.6127,-1.5927,-1.672,-1.7151,-1.7391,-1.7572,-1.8155,-1.8777,-1.8673,-1.9298,-2.0055,-1.9748,-1.9667,-1.9707,0.0,0.0,0.0,0.0,0.0,0.0,0.0,0.0,0.0,0.0,0.0,0.0,0.0,0.0,-2.1185,0.0,0.0,-2.1306,-2.2842,-2.271,-2.2813,-2.4025,-2.3907,-2.3816,-2.4161,-2.4046,-2.4016,-2.418,-2.419,-2.419,-2.419,-2.3823,-2.3198,-2.2236,-2.1793,-2.1424,-2.1161,-2.1156,-2.1154,-2.1148,-2.1215,-2.1528,-2.2053,-2.2111,-2.247,-2.3052,-2.3143,-2.3012,-2.2738,-2.337,-2.365,-2.3722,-2.4662,-2.5312,-2.5703,-2.5664,-2.5644,-2.5605,-2.5156,-2.5,-2.4941,0.0,0.0,0.0,0.0,0.0,0.0,0.0,0.0,0.0,0.0,-1.4102,-1.3769,-1.2897,-1.2803,-1.2879,0.0,0.0,0.0,0.0,-1.1448,-1.0946,-1.0249,-1.0273,-1.0293,-1.0293,-1.0293,-1.0293,-1.0273,-1.0228,-1.027,-1.0435,-1.0242,-1.0698,-1.164,-1.2267,-1.3094,-1.4055,-1.4948,-1.5395,-1.5591,-1.6466,-1.6839,-1.6901,-1.7605,-1.8029,-1.8293,-1.8359,-1.8088,-1.778,-1.8141,-1.8355,-1.8444,-1.8023,-1.8867,-1.9734,-1.8347,-1.8911,0.0,0.0,0.0,0.0,0.0,0.0,0.0,0.0,0.0,-2.085,-2.1069,-2.1618,-2.2084,-2.2182,-2.2195,-2.2416,-2.3125,-2.3226,-2.3456,-2.4116,-2.3907,-2.3816,-2.4161,-2.3907,-2.3827,-2.417,-2.419,-2.419,-2.419,-2.419,-2.3757,-2.2727,-2.2678,-2.2473,-2.2054,-2.2036,-2.2042,-2.2097,-2.2204,-2.2635,-2.3405,-2.3504,-2.3757,-2.4085,-2.4085,-2.3792,-2.3358,-2.4187,-2.4552,-2.463,-2.5388,-2.5703,-2.5703,-2.5703,-2.5703,-2.5605,-2.4902,-2.5098,-2.5605,0.0,0.0,0.0,0.0,0.0,0.0,0.0,0.0,0.0,0.0,0.0,0.0,0.0,0.0,0.0,0.0,0.0,0.0,0.0,-1.1289,-1.039,-1.0293,-1.0293,-1.0293,-1.0293,-1.0293,-1.0273,-1.0209,-1.0192,-1.057,-1.1263,-1.1189,-1.2,-1.3493,-1.3467,-1.4336,-1.5753,-1.5017,-1.545,-1.6598,-1.6314,-1.6651,-1.7371,-1.7944,-1.832,-1.8468,-1.7771,-1.7351,-1.712,-1.7279,-1.7393,-1.7603,-1.8346,-1.8755,-1.895,-1.8818,0.0,-1.9159,-1.9984,-2.0135,-1.9819,-1.8843,-1.9007,-1.9541,0.0,0.0,-2.0366,-2.1264,-2.152,-2.1859,-2.2721,-2.2895,-2.3144,-2.3933,-2.4061,-2.4098,-2.419,-2.3907,-2.3816,-2.4161,-2.3907,-2.3827,-2.417,-2.419,-2.419,-2.419,-2.419,-2.384,-2.3003,-2.2969,-2.2922,-2.2877,-2.2877,-2.2958,-2.3134,-2.3151,-2.3354,-2.3738,-2.376,-2.4258,-2.5129,-2.5129,-2.512,-2.5115,-2.5344,-2.5485,-2.5546,-2.5664,-2.5703,-2.5703,-2.5703,-2.5703,-2.5684,-2.5586,-2.5625,-2.5684,0.0,0.0,0.0,0.0,0.0,0.0,0.0,0.0,0.0,0.0,0.0,0.0,0.0,0.0,0.0,0.0,0.0,0.0,-1.2871,-1.127,-1.0273,-1.0232,-1.0273,-1.0272,-1.0241,-1.0248,-1.048,-1.0967,-1.0916,-1.1333,-1.2164,-1.2086,-1.2409,-1.3087,-1.4046,-1.4855,-1.5548,-1.6117,-1.6581,-1.6946,-1.6629,-1.6615,-1.6776,-1.702,-1.6955,-1.6822,-1.7463,-1.7326,0.0,0.0,-1.7226,-1.7976,-1.7467,-1.7987,-1.8651,-1.795,-1.8249,0.0,-1.9827,-2.0393,0.0,0.0,-2.0052,-2.0563,-2.0559,-2.0863,-2.1281,-2.1691,-2.2321,-2.2904,-2.3333,-2.3658,-2.3986,0.0,-2.4469,-2.4512,-2.4393,-2.4201,-2.4137,-2.4347,-2.408,-2.3963,-2.418,-2.419,-2.4254,-2.4374,-2.4375,-2.4272,-2.4051,-2.4043,-2.4054,-2.4057,-2.4057,-2.4098,-2.4172,-2.4258,-2.4351,-2.4501,-2.4621,-2.4898,-2.5308,-2.5308,-2.5365,-2.5467,-2.5472,-2.558,-2.5703,-2.5664,-2.5664,-2.5742,-2.6269,-2.6465,-2.6406,-2.5898,-2.5703,-2.5703,0.0,0.0,0.0,0.0,0.0,0.0,0.0,0.0,0.0,0.0,0.0,0.0,0.0,0.0,0.0,0.0,0.0,0.0,0.0,-1.1484,-1.0527,-1.0231,-1.0273,0.0,-1.0234,-1.0203,-1.051,-1.1142,-1.1318,-1.1851,-1.2706,-1.2881,-1.3064,-1.3339,-1.4812,-1.5622,-1.592,-1.7139,-1.7479,-1.7229,-1.697,-1.6476,-1.5898,-1.6041,-1.5737,-1.5423,-1.6792,-1.6833,0.0,0.0,-1.6749,-1.7743,-1.6599,-1.7365,-1.844,-1.7374,-1.7887,-1.8988,-1.9792,0.0,0.0,-2.0598,-2.1006,-2.1416,-2.1101,-2.1575,-2.2135,-2.2306,-2.2988,-2.3628,-2.3806,-2.4211,0.0,-2.4503,-2.467,-2.4753,-2.4599,-2.4505,-2.4462,-2.4574,-2.4368,-2.4255,-2.4357,-2.4319,-2.4376,-2.457,-2.4578,-2.4648,-2.4799,-2.4802,-2.4804,-2.4804,-2.4805,-2.4823,-2.4846,-2.4965,-2.5067,-2.5107,-2.5282,-2.5365,-2.5365,-2.5365,-2.5404,-2.5476,-2.5455,-2.5542,-2.5676,-2.5642,-2.5801,-2.6113,-2.6758,-2.7148,-2.7285,-2.6641,-2.6269,-2.6055,0.0,0.0,0.0,0.0,0.0,0.0,0.0,0.0,0.0,0.0,0.0,0.0,0.0,0.0,0.0,0.0,0.0,0.0,0.0,-1.2051,-1.1172,-1.0332,-1.0293,-1.0293,-1.0293,-1.0231,-1.0219,-1.0233,-1.1027,-1.1857,-1.2721,-1.3497,-1.4342,-1.5257,-1.6084,-1.6927,-1.7714,-1.7779,-1.7719,-1.7562,-1.7216,-1.6189,-1.4897,-1.541,-1.5293,-1.4907,-1.554,0.0,0.0,0.0,-1.5527,-1.6257,-1.6149,-1.7131,0.0,-1.7644,-1.8102,0.0,0.0,0.0,-2.0456,-2.0941,-2.1282,-2.1515,-2.1546,-2.1948,-2.2463,-2.304,-2.3183,-2.3414,-2.4056,-2.4357,-2.4503,-2.4503,-2.467,-2.4797,-2.479,-2.479,-2.4797,-2.4797,-2.4792,-2.4787,0.0,-2.4605,-2.457,-2.4783,-2.4795,-2.4796,-2.4806,-2.4804,-2.4804,-2.4804,-2.4801,-2.4858,-2.4988,-2.5059,-2.5184,-2.538,-2.5462,-2.5486,-2.5486,-2.5486,-2.5466,-2.5414,-2.5533,-2.5591,-2.5605,-2.5675,-2.6191,-2.6953,-2.6992,-2.7519,-2.8262,-2.8223,-2.7695,-2.6953,0.0,0.0,0.0,0.0,0.0,0.0,0.0,0.0,0.0,0.0,0.0,0.0,0.0,0.0,0.0,0.0,0.0,0.0,0.0,-1.2383,-1.1445,-1.111,-1.0586,-1.0272,-1.0237,-1.0212,-1.0466,-1.101,-1.1279,-1.1847,-1.2721,-1.3571,-1.4121,-1.451,-1.5936,-1.7054,-1.7868,-1.7825,-1.7808,-1.7672,-1.6311,-1.5466,-1.496,-1.4609,-1.4214,-1.4016,0.0,0.0,0.0,0.0,0.0,0.0,-1.5556,0.0,0.0,-1.8531,0.0,0.0,0.0,0.0,-2.189,-2.2368,-2.2564,-2.2726,-2.311,-2.2872,-2.2474,-2.2129,-2.2434,-2.2674,-2.2456,-2.3188,-2.3879,-2.4002,-2.4644,-2.5086,-2.4942,-2.5051,-2.5076,-2.4945,-2.493,0.0,0.0,0.0,0.0,-2.4912,-2.4933,-2.5007,-2.5189,-2.5189,-2.5208,-2.5271,-2.5256,-2.5294,-2.5329,-2.5348,-2.5394,-2.547,-2.5449,-2.543,-2.5439,-2.5391,-2.5385,-2.5433,-2.6064,-2.6373,-2.6464,-2.6481,-2.7031,-2.7851,-2.7851,-2.8398,-2.916,-2.916,-2.8613,-2.7773,0.0,0.0,0.0,0.0,0.0,0.0,0.0,0.0,0.0,0.0,0.0,0.0,0.0,0.0,0.0,0.0,0.0,0.0,0.0,0.0,-1.2343,-1.2009,-1.1504,-1.1209,-1.1177,-1.1132,-1.1373,-1.1896,-1.1896,-1.2183,-1.2744,-1.3274,-1.3545,-1.3639,-1.5079,-1.6197,-1.6997,-1.695,-1.7198,-1.7444,-1.5825,-1.4923,-1.4512,-1.3983,-1.3653,0.0,0.0,0.0,0.0,0.0,0.0,0.0,0.0,0.0,0.0,0.0,0.0,0.0,0.0,-2.2102,-2.2954,-2.3803,-2.3753,-2.3638,-2.4186,-2.3474,-2.2558,-2.203,-2.2264,-2.2499,-2.2263,-2.2973,-2.3733,-2.4156,-2.4585,-2.4931,-2.509,-2.5217,-2.5362,-2.5552,-2.5858,0.0,0.0,0.0,0.0,-2.5147,-2.5157,-2.5245,-2.5385,-2.5415,-2.5453,-2.5499,-2.55,-2.5492,-2.5499,-2.5835,-2.6004,-2.5996,-2.5923,-2.5724,-2.5414,-2.5685,-2.5803,-2.5861,-2.6477,-2.6967,-2.7305,-2.7031,-2.7656,-2.8769,-2.8769,-2.9297,-3.0039,-2.9707,-2.9043,-2.8184,0.0,0.0,0.0,0.0,0.0,0.0,0.0,0.0,0.0,0.0,0.0,0.0,0.0,0.0,0.0,0.0,0.0,0.0,0.0,0.0,0.0,-1.2988,-1.293,-1.2891,-1.2891,-1.2888,-1.2845,-1.2806,-1.2842,-1.2844,-1.2805,-1.2776,-1.2828,-1.297,-1.3832,-1.4747,-1.5602,-1.5543,-1.6153,-1.7021,-1.5845,-1.4745,-1.3828,-1.3789,0.0,0.0,0.0,0.0,0.0,0.0,0.0,0.0,0.0,0.0,0.0,0.0,0.0,-2.172,-2.2521,-2.302,-2.3667,-2.5189,-2.48,-2.4217,-2.4823,-2.3791,-2.2693,-2.2707,-2.2685,-2.2836,0.0,0.0,-2.4047,-2.4829,-2.452,-2.4433,-2.5187,-2.5341,-2.5678,0.0,0.0,0.0,0.0,0.0,0.0,-2.5495,0.0,-2.5515,-2.5404,-2.5463,-2.5506,-2.5508,-2.5553,-2.558,-2.5566,-2.6445,-2.6894,-2.6893,-2.6776,-2.6252,-2.5423,-2.6256,-2.6612,-2.6607,-2.6785,-2.7355,-2.8105,-2.7422,-2.8125,-2.9668,-2.957,-3.0078,-3.0723,-2.9805,-2.8945,-2.8125,0.0,0.0,0.0,0.0,0.0,0.0,0.0,0.0,0.0,0.0,0.0,0.0,0.0,0.0,0.0,0.0,0.0,0.0,0.0,0.0,0.0,0.0,0.0,0.0,0.0,0.0,0.0,0.0,0.0,-1.3443,-1.2816,-1.3456,-1.411,0.0,-1.5642,-1.6874,-1.826,-1.7616,-1.7869,-1.857,0.0,-1.6559,-1.6814,0.0,0.0,0.0,0.0,0.0,0.0,0.0,0.0,0.0,0.0,0.0,-2.0438,0.0,0.0,-2.2511,-2.3072,-2.4049,-2.5154,-2.6207,-2.5559,-2.4873,-2.5612,-2.4183,-2.2719,-2.2767,-2.2574,-2.2494,0.0,0.0,0.0,-2.4272,-2.4702,0.0,-2.5264,-2.585,0.0,0.0,0.0,-2.7904,-2.7904,-2.7942,0.0,0.0,-2.635,-2.6111,-2.5516,-2.5535,-2.5602,-2.5644,-2.6278,-2.659,-2.6543,-2.6738,-2.6822,-2.6831,-2.6103,-2.5626,-2.5404,-2.5582,-2.5999,-2.663,-2.7426,-2.8258,-2.9062,-2.8965,-2.957,-3.0449,-2.9141,-2.916,-2.9746,-2.8223,-2.7519,-2.7305,0.0,0.0,0.0,0.0,0.0,0.0,0.0,0.0,0.0,0.0,0.0,0.0,0.0,0.0,0.0,0.0,0.0,0.0,0.0,0.0,0.0,0.0,0.0,0.0,0.0,0.0,0.0,0.0,0.0,0.0,0.0,-1.3512,-1.4022,-1.4842,-1.5332,-1.6309,-1.7559,0.0,0.0,0.0,0.0,0.0,0.0,0.0,0.0,0.0,0.0,0.0,0.0,0.0,0.0,-2.0088,-2.1257,-2.1604,-2.1755,-2.2689,0.0,-2.3817,-2.4448,-2.5439,-2.6438,-2.7134,-2.6415,-2.572,-2.6297,-2.4871,-2.3363,-2.326,-2.3086,0.0,0.0,0.0,0.0,0.0,0.0,0.0,-2.5759,-2.6287,-2.6867,0.0,-2.8793,0.0,-2.9031,-2.9369,-2.9094,0.0,-2.7149,-2.6412,-2.5541,-2.5595,-2.584,-2.6269,-2.6738,-2.7333,-2.8026,-2.7926,-2.7856,-2.7855,-2.7281,-2.6834,-2.6497,-2.6458,-2.6722,-2.7234,0.0,-2.8258,-2.9414,-2.9141,-2.9766,-3.0801,-2.9824,-2.9512,-2.9473,-2.8496,-2.7891,-2.7578,0.0,0.0,0.0,0.0,0.0,0.0,0.0,0.0,0.0,0.0,0.0,0.0,0.0,0.0,0.0,0.0,0.0,0.0,0.0,0.0,0.0,0.0,0.0,0.0,0.0,0.0,0.0,0.0,0.0,0.0,0.0,0.0,0.0,0.0,0.0,0.0,0.0,0.0,0.0,0.0,0.0,0.0,0.0,0.0,0.0,0.0,0.0,0.0,0.0,0.0,-2.0089,-2.0139,-2.1804,-2.2689,-2.3231,-2.3848,-2.4472,-2.5165,-2.6037,-2.685,-2.7529,-2.7927,-2.7245,-2.6537,-2.6869,-2.5543,-2.4184,-2.3997,0.0,0.0,-2.4202,0.0,-2.4494,-2.5197,0.0,-2.4822,-2.6388,-2.671,-2.7355,-2.8912,-3.0535,-3.1229,-3.0463,-3.1191,-3.0999,-2.9331,-2.8082,-2.6945,-2.5919,-2.5977,-2.6445,-2.7305,-2.7305,-2.8051,-2.9617,-2.9331,-2.9179,-2.9187,-2.9028,-2.8574,-2.7903,-2.7783,-2.7831,-2.7947,0.0,0.0,-2.9433,-2.8887,-2.9531,-3.0898,-3.0762,-3.0195,-2.9434,-2.9434,-2.8887,-2.8164,0.0,0.0,0.0,0.0,0.0,0.0,0.0,0.0,0.0,0.0,-1.5702,-1.5299,0.0,0.0,0.0,0.0,0.0,0.0,0.0,0.0,0.0,0.0,0.0,0.0,0.0,0.0,0.0,0.0,0.0,0.0,0.0,0.0,0.0,0.0,0.0,0.0,0.0,0.0,0.0,0.0,0.0,0.0,0.0,0.0,0.0,0.0,0.0,0.0,0.0,0.0,-2.1277,-2.0884,-2.252,-2.2848,-2.291,-2.431,-2.504,-2.559,-2.6458,-2.7433,-2.8286,-2.8564,-2.7718,-2.6864,-2.7104,-2.5465,0.0,0.0,0.0,-2.4259,-2.4962,0.0,0.0,-2.5293,0.0,0.0,0.0,0.0,-2.8033,0.0,0.0,0.0,0.0,0.0,0.0,0.0,0.0,-2.9306,-2.7801,-2.7811,-2.8223,-2.9043,-2.8965,-2.9363,-3.0308,-2.9529,-2.9125,-2.9104,-2.8428,-2.8052,-2.7873,-2.7154,-2.7223,-2.7928,-2.7899,0.0,-2.9468,-3.0154,-3.0625,-3.082,-3.0117,-2.9297,-2.8535,-2.8535,-2.7969,-2.7422,0.0,0.0,0.0,0.0,0.0,0.0,0.0,-1.5794,-1.5925,-1.6888,-1.6414,-1.5984,-1.5986,-1.5625,0.0,0.0,0.0,0.0,0.0,0.0,0.0,0.0,0.0,0.0,0.0,0.0,0.0,0.0,0.0,0.0,0.0,0.0,0.0,0.0,0.0,0.0,0.0,0.0,0.0,0.0,0.0,0.0,0.0,0.0,0.0,0.0,0.0,0.0,0.0,0.0,-2.1337,-2.1255,-2.3255,-2.3719,-2.3879,-2.5594,-2.6227,-2.672,-2.827,-2.91,-2.9554,-2.9619,-2.8647,-2.7624,-2.7403,0.0,0.0,0.0,0.0,-2.4832,-2.5231,0.0,0.0,0.0,0.0,0.0,0.0,0.0,0.0,0.0,0.0,0.0,0.0,0.0,0.0,0.0,0.0,-3.0371,-2.8301,-2.8691,-2.9141,-2.9492,-2.9808,-3.0153,-3.0506,-3.0027,-2.979,-2.9771,-2.9388,-2.919,-2.9171,-2.8297,-2.792,-2.7962,-2.8065,0.0,-2.8852,-2.9821,-3.0488,-3.0859,-3.0449,-2.9746,-2.9023,-2.9492,-2.9101,-2.8535,0.0,0.0,0.0,0.0,0.0,0.0,0.0,-1.637,-1.6423,-1.7194,-1.6896,-1.6606,-1.6597,-1.5887,-1.5391,0.0,0.0,0.0,0.0,0.0,0.0,0.0,0.0,0.0,0.0,0.0,0.0,0.0,0.0,0.0,0.0,0.0,0.0,0.0,0.0,0.0,0.0,0.0,0.0,0.0,0.0,0.0,0.0,0.0,0.0,0.0,0.0,0.0,0.0,0.0,-2.1325,-2.1424,-2.3471,-2.419,-2.4593,-2.619,-2.7048,-2.788,-2.9756,-3.0587,-3.0894,-3.0641,-2.9532,-2.8335,-2.7722,-2.641,0.0,0.0,0.0,0.0,0.0,0.0,0.0,0.0,0.0,0.0,0.0,0.0,0.0,0.0,0.0,0.0,0.0,0.0,0.0,0.0,0.0,0.0,-2.8887,-2.9453,-2.9805,-2.9746,-3.0285,-3.0544,-3.0481,-3.0423,-3.0404,-3.0404,-3.0404,-3.0404,-3.0365,-2.9501,-2.8714,-2.8014,-2.8271,0.0,0.0,-2.9411,-3.0273,-3.0898,-3.0898,-3.0371,-2.9707,-3.0586,-3.0351,-2.9726,0.0,0.0,0.0,0.0,0.0,0.0,0.0,-1.5807,-1.636,-1.6554,-1.6607,-1.6598,-1.659,-1.5874,-1.5391,0.0,0.0,0.0,0.0,0.0,0.0,0.0,0.0,0.0,0.0,0.0,0.0,0.0,0.0,0.0,0.0,0.0,0.0,0.0,0.0,0.0,0.0,0.0,0.0,0.0,0.0,0.0,0.0,0.0,0.0,0.0,0.0,0.0,0.0,0.0,0.0,-2.1464,-2.2527,-2.3202,-2.3774,-2.4673,0.0,0.0,-2.9506,-3.0882,-3.1925,-3.135,-2.998,-2.8598,-2.8007,0.0,0.0,0.0,-2.5308,-2.5538,0.0,0.0,0.0,0.0,0.0,0.0,0.0,0.0,0.0,0.0,0.0,0.0,0.0,0.0,0.0,0.0,0.0,0.0,-3.0703,-3.0625,-3.0566,-3.0508,-3.0502,-3.0481,-3.0404,-3.0404,-3.0404,-3.0404,-3.0404,-3.0404,-3.0371,-2.9555,-2.8757,-2.805,-2.8962,0.0,0.0,-3.0076,-3.082,-3.0898,-3.0898,-3.0371,-2.9707,-3.0586,-3.0351,-2.9726,0.0,0.0,0.0,0.0,0.0,0.0,-1.6933,-1.7096,-1.7103,-1.7154,-1.6839,-1.66,-1.6594,-1.5875,-1.5391,0.0,0.0,0.0,0.0,0.0,0.0,0.0,0.0,0.0,0.0,0.0,0.0,0.0,0.0,0.0,0.0,0.0,0.0,0.0,0.0,0.0,0.0,0.0,0.0,0.0,0.0,0.0,0.0,0.0,0.0,0.0,0.0,0.0,0.0,0.0,0.0,0.0,-2.1923,-2.2897,0.0,0.0,-2.6898,-2.9155,-3.0522,-3.201,-3.303,-3.2401,-3.0875,-2.9231,-2.8154,0.0,0.0,-2.5308,-2.5308,-2.5577,-2.6447,0.0,0.0,0.0,0.0,0.0,0.0,0.0,0.0,0.0,0.0,0.0,0.0,0.0,0.0,0.0,0.0,0.0,-3.1699,-3.1133,-3.0758,-3.0602,-3.0567,-3.05,-3.0404,-3.0404,-3.0404,-3.0404,-3.0404,-3.0422,-3.0455,-3.0121,-2.9561,-2.8885,-2.9817,0.0,0.0,-3.037,-3.0898,-3.0898,-3.0898,-3.0684,-3.043,-3.0762,-3.0623,-3.0324,0.0,0.0,0.0,0.0,0.0,-1.646,-1.7714,-1.7557,-1.7198,-1.699,-1.6751,-1.6617,-1.6626,-1.5896,-1.5508,-1.5762,0.0,0.0,0.0,0.0,0.0,0.0,0.0,0.0,0.0,0.0,0.0,0.0,0.0,0.0,0.0,0.0,0.0,0.0,0.0,0.0,0.0,0.0,0.0,0.0,0.0,0.0,0.0,0.0,0.0,0.0,0.0,0.0,0.0,0.0,0.0,0.0,0.0,0.0,0.0,0.0,-2.6795,-2.907,-3.0535,-3.2026,-3.3013,-3.2326,-3.0947,-2.9336,0.0,0.0,-2.5308,-2.5308,-2.5308,-2.5577,-2.6447,0.0,0.0,0.0,0.0,0.0,0.0,0.0,0.0,0.0,0.0,0.0,0.0,0.0,0.0,0.0,0.0,0.0,0.0,-3.209,-3.1298,-3.0628,-3.0574,-3.0635,-3.0776,-3.0533,-3.0538,-3.0782,-3.0519,-3.0438,-3.051,-3.0516,-3.0132,-2.9479,0.0,0.0,0.0,-3.0527,-3.0898,-3.0898,-3.0898,-3.0898,-3.0898,-3.0898,-3.0837,-3.0769,0.0,0.0,0.0,0.0,0.0,0.0,-1.649,-1.651,-1.6243,-1.5523,-1.6112,-1.6627,-1.6699,-1.5918,-1.5742,-1.6602,0.0,0.0,0.0,0.0,0.0,0.0,0.0,0.0,0.0,0.0,-1.9497,-2.0291,-2.0291,0.0,0.0,0.0,0.0,0.0,0.0,0.0,0.0,0.0,0.0,0.0,0.0,0.0,0.0,0.0,0.0,0.0,0.0,0.0,0.0,0.0,0.0,0.0,0.0,0.0,0.0,0.0,-2.5979,-2.8086,-2.8905,-3.0407,-3.1514,-3.0648,-2.9756,-2.8665,0.0,0.0,-2.5308,-2.5308,-2.5308,-2.5577,-2.6447,0.0,0.0,0.0,0.0,0.0,0.0,0.0,0.0,0.0,0.0,0.0,0.0,0.0,0.0,0.0,0.0,0.0,0.0,-3.3789,-3.2451,-3.0667,-3.0535,-3.0879,-3.168,-3.0834,-3.0821,-3.168,-3.0802,-3.0449,-3.0507,-3.0568,-3.0195,0.0,0.0,0.0,0.0,-3.0547,-3.0898,-3.0898,-3.0898,-3.0898,-3.0898,-3.0898,-3.0898,-3.0898,0.0,0.0,0.0,0.0,0.0,0.0,0.0,-1.6926,-1.6295,-1.5507,-1.5627,-1.5791,-1.5801,-1.6094,-1.6152,-1.584,0.0,0.0,0.0,0.0,0.0,0.0,0.0,0.0,0.0,0.0,-2.0033,-2.0299,-2.0299,-2.0305,0.0,0.0,0.0,0.0,0.0,0.0,0.0,0.0,0.0,0.0,0.0,0.0,0.0,0.0,0.0,0.0,0.0,0.0,0.0,0.0,0.0,0.0,0.0,0.0,0.0,0.0,0.0,0.0,-2.82,-2.9523,-3.06,-2.9723,-2.889,-2.7992,-2.6851,0.0,-2.5308,-2.5308,-2.5308,-2.5577,-2.6447,0.0,0.0,0.0,0.0,0.0,0.0,0.0,0.0,0.0,0.0,0.0,0.0,0.0,0.0,0.0,0.0,0.0,0.0,-3.3223,-3.2401,-3.2372,-3.1723,-3.1755,-3.2506,-3.111,-3.0841,-3.1692,-3.0827,-3.0457,-3.0565,-3.0594,0.0,0.0,0.0,0.0,0.0,-3.0781,-3.0898,-3.0898,-3.0898,-3.1211,-3.1582,-3.1094,-3.1191,-3.1601,0.0,0.0,0.0,0.0,0.0,0.0,0.0,-1.6837,-1.5948,-1.546,-1.5697,-1.6012,-1.6348,-1.6875,-1.7109,-1.6894,0.0,0.0,0.0,0.0,0.0,0.0,0.0,0.0,0.0,-1.9613,-2.0294,-2.0308,-2.0308,-2.0303,-2.031,-2.0337,-2.0385,0.0,0.0,0.0,0.0,0.0,0.0,0.0,0.0,0.0,-2.2402,0.0,0.0,0.0,0.0,0.0,0.0,0.0,0.0,0.0,0.0,0.0,0.0,0.0,0.0,0.0,0.0,-2.8167,-2.883,-2.828,-2.7775,0.0,0.0,0.0,0.0,-2.5308,0.0,0.0,0.0,0.0,0.0,0.0,0.0,0.0,0.0,0.0,0.0,0.0,0.0,0.0,0.0,0.0,0.0,0.0,0.0,0.0,0.0,-3.3965,-3.3432,-3.3613,-3.2125,-3.1684,-3.2435,-3.1084,-3.0847,-3.1698,-3.0827,-3.0477,-3.0603,-3.0603,0.0,0.0,0.0,0.0,0.0,-3.0898,-3.1094,-3.1387,-3.1387,-3.1855,-3.246,-3.2001,-3.2119,-3.248,0.0,0.0,0.0,0.0,0.0,0.0,0.0,-1.6337,-1.5321,-1.539,-1.6152,-1.7012,-1.7812,-1.8027,-1.8398,-1.9141,0.0,0.0,0.0,0.0,0.0,0.0,0.0,0.0,-1.9081,-1.9883,-2.0308,-2.0308,-2.0365,-2.0357,-2.0298,-2.0388,-2.0415,-2.0395,-2.0407,-2.0443,-2.0502,-2.0555,-2.0605,-2.0605,-2.0605,-2.1523,0.0,0.0,0.0,0.0,0.0,0.0,0.0,0.0,0.0,0.0,0.0,0.0,0.0,0.0,0.0,0.0,0.0,0.0,0.0,0.0,0.0,0.0,0.0,0.0,0.0,0.0,0.0,0.0,0.0,0.0,0.0,0.0,0.0,0.0,0.0,0.0,0.0,0.0,0.0,0.0,0.0,0.0,0.0,0.0,0.0,0.0,0.0,-3.5583,-3.5139,-3.433,-3.1888,-3.0979,-3.1773,-3.0858,-3.0846,-3.1698,-3.0827,-3.0472,-3.0597,-3.06,0.0,0.0,0.0,0.0,0.0,-3.0976,-3.1465,-3.2207,-3.2266,-3.2773,-3.3454,-3.3345,-3.3386,-3.3476,0.0,0.0,0.0,0.0,0.0,0.0,0.0,0.0,0.0,0.0,-1.6163,-1.6772,-1.6973,-1.8203,-1.8809,0.0,0.0,0.0,0.0,0.0,0.0,0.0,0.0,0.0,-1.9016,-1.9858,-2.0308,-2.0308,-2.0923,-2.0908,-2.0319,-2.1188,-2.1131,-2.0358,-2.1216,-2.1159,-2.0424,-2.05,-2.0547,-2.0605,-2.0605,-2.084,0.0,0.0,0.0,0.0,-2.4163,-2.456,0.0,0.0,0.0,0.0,0.0,0.0,0.0,0.0,-2.5308,0.0,0.0,0.0,0.0,0.0,0.0,0.0,0.0,0.0,0.0,0.0,0.0,0.0,0.0,0.0,0.0,0.0,0.0,0.0,0.0,0.0,0.0,0.0,0.0,0.0,0.0,0.0,0.0,0.0,0.0,0.0,0.0,-3.4979,-3.4513,-3.4314,-3.2422,-3.1792,-3.2605,-3.1139,-3.0846,-3.1698,-3.0827,-3.0446,-3.0521,-3.0575,0.0,0.0,0.0,0.0,-3.0957,-3.1621,-3.2012,-3.2266,-3.2871,-3.3574,-3.4082,-3.2794,-3.3133,-3.4141,0.0,0.0,0.0,0.0,0.0,0.0,0.0,0.0,0.0,0.0,0.0,0.0,0.0,0.0,0.0,0.0,0.0,0.0,0.0,0.0,0.0,0.0,0.0,-1.9219,-1.9584,-2.0062,-2.0308,-2.0308,-2.1119,-2.1092,-2.0326,-2.1314,-2.1238,-2.033,-2.0938,-2.0914,-2.0397,-2.0462,-2.0547,-2.0605,-2.0605,0.0,0.0,0.0,0.0,0.0,-2.3811,-2.4231,0.0,-2.5097,-2.5326,-2.5308,0.0,0.0,0.0,0.0,-2.5308,0.0,0.0,0.0,0.0,0.0,0.0,0.0,0.0,0.0,0.0,0.0,0.0,0.0,0.0,0.0,0.0,0.0,0.0,0.0,0.0,0.0,0.0,0.0,0.0,0.0,0.0,0.0,0.0,0.0,0.0,0.0,0.0,-3.4141,-3.366,-3.366,-3.2384,-3.1902,-3.2345,-3.105,-3.0635,-3.1096,-3.0635,-3.0444,-3.0503,-3.0541,-3.0614,0.0,0.0,0.0,-3.0976,-3.1836,-3.2422,-3.2754,-3.2812,-3.3788,-3.4977,-3.3664,-3.4011,-3.5075,0.0,0.0,0.0,0.0,0.0,0.0,0.0,0.0,0.0,0.0,0.0,0.0,0.0,0.0,0.0,0.0,0.0,0.0,0.0,0.0,0.0,0.0,0.0,-1.9546,-2.0288,-2.0308,-2.0308,-2.0308,-2.1119,-2.1177,-2.0581,-2.1346,-2.1265,-2.0477,-2.0346,-2.0321,-2.039,-2.0589,-2.0643,-2.0605,-2.0722,0.0,0.0,0.0,0.0,0.0,0.0,0.0,0.0,-2.5042,-2.5308,-2.5308,-2.5308,0.0,0.0,0.0,0.0,0.0,0.0,0.0,0.0,0.0,0.0,0.0,0.0,0.0,0.0,0.0,0.0,0.0,0.0,0.0,0.0,0.0,0.0,0.0,0.0,0.0,0.0,0.0,0.0,0.0,0.0,0.0,0.0,0.0,0.0,0.0,0.0,-3.3301,-3.289,-3.2897,-3.2127,-3.1697,-3.1699,-3.084,-3.0404,-3.0404,-3.0538,-3.0568,-3.0491,-3.0625,-3.0697,0.0,0.0,0.0,-3.0976,-3.1836,-3.2598,-3.3164,-3.2732,-3.3841,-3.5579,-3.4699,-3.502,-3.5861,0.0,0.0,0.0,0.0,0.0,0.0,0.0,0.0,0.0,0.0,0.0,0.0,0.0,0.0,0.0,0.0,0.0,0.0,0.0,0.0,0.0,-2.01,-2.01,-2.0154,-2.0308,-2.0308,-2.0308,-2.0308,-2.1119,-2.1585,-2.1743,-2.2337,-2.2147,-2.1282,-2.0607,-2.0308,-2.0364,-2.1107,-2.1082,-2.0586,0.0,0.0,0.0,0.0,0.0,0.0,0.0,0.0,0.0,-2.5038,-2.5308,-2.5308,-2.5308,0.0,0.0,0.0,0.0,0.0,-2.5308,0.0,0.0,0.0,0.0,0.0,0.0,0.0,0.0,0.0,0.0,0.0,0.0,0.0,0.0,0.0,0.0,0.0,0.0,0.0,0.0,0.0,0.0,0.0,0.0,0.0,0.0,0.0,0.0,0.0,0.0,-3.2974,-3.2904,-3.2904,-3.2127,-3.1697,-3.1692,-3.0846,-3.0404,-3.0404,-3.1154,-3.1114,-3.0444,-3.1241,-3.123,0.0,0.0,-3.0899,-3.0976,-3.1836,-3.2266,-3.2519,-3.3752,-3.4439,-3.4598,-3.3668,-3.4357,-3.5763,0.0,0.0,0.0,0.0,0.0,0.0,0.0,0.0,0.0,0.0,0.0,0.0,0.0,0.0,0.0,0.0,0.0,0.0,0.0,0.0,0.0,-2.0308,-2.0308,-2.0308,-2.0308,-2.0308,-2.0308,-2.0308,-2.0673,-2.0927,-2.1085,-2.1323,-2.1238,-2.0834,-2.0477,-2.0292,-2.0337,-2.0734,-2.0986,-2.1143,0.0,0.0,0.0,0.0,0.0,0.0,0.0,0.0,0.0,0.0,-2.5308,-2.5308,-2.5308,0.0,0.0,0.0,0.0,0.0,-2.5308,-2.5308,0.0,0.0,0.0,0.0,0.0,0.0,0.0,0.0,0.0,0.0,0.0,0.0,0.0,0.0,0.0,0.0,0.0,0.0,0.0,0.0,0.0,0.0,0.0,0.0,0.0,0.0,0.0,0.0,0.0,0.0,-3.1756,-3.2243,-3.1441,-3.0993,-3.1,-3.0596,-3.0404,-3.0404,-3.0808,-3.0788,-3.0404,-3.0844,-3.0886,-3.0632,0.0,-3.1178,-3.0976,-3.1836,-3.2207,-3.2226,-3.2502,-3.3086,-3.3794,-3.3841,-3.4392,-3.5184,0.0,0.0,0.0,0.0,0.0,0.0,0.0,0.0,0.0,0.0,0.0,0.0,0.0,0.0,0.0,0.0,0.0,0.0,0.0,0.0,-2.0308,-2.0308,-2.0245,-2.0245,-2.0308,-2.0308,-2.0184,-1.9953,-2.0184,-2.0308,-2.0308,-2.0308,-2.0308,-2.0308,-2.0308,-2.0306,-2.031,-2.0502,-2.0886,-2.1357,0.0,0.0,0.0,0.0,0.0,0.0,0.0,0.0,0.0,0.0,0.0,0.0,0.0,0.0,0.0,0.0,-2.5308,-2.5308,-2.5308,-2.5308,-2.5264,0.0,0.0,0.0,0.0,0.0,0.0,0.0,0.0,0.0,0.0,0.0,0.0,0.0,0.0,0.0,0.0,0.0,0.0,0.0,0.0,0.0,0.0,0.0,0.0,0.0,0.0,0.0,0.0,0.0,-3.0712,-3.1365,-3.075,-3.0404,-3.0404,-3.0404,-3.0404,-3.0404,-3.0615,-3.0596,-3.0404,-3.0609,-3.0673,-3.0633,-3.1314,-3.1339,-3.0957,-3.1621,-3.1874,-3.1794,-3.1322,-3.1841,-3.2976,-3.4084,-3.44,-3.4443,0.0,0.0,0.0,0.0,0.0,0.0,0.0,0.0,0.0,0.0,0.0,0.0,0.0,0.0,0.0,0.0,0.0,0.0,0.0,0.0,-2.0308,-2.0308,-2.012,-2.0111,-2.0308,-2.0308,-1.9849,-1.8903,-1.9849,-2.0308,-2.0308,-2.0308,-2.0308,-2.0308,-2.0308,-2.0296,-2.0342,-2.1089,-2.1011,-2.0548,-2.2094,0.0,0.0,0.0,0.0,0.0,0.0,0.0,0.0,0.0,0.0,0.0,0.0,0.0,0.0,0.0,-2.5308,-2.5308,-2.5308,-2.5308,-2.5303,0.0,0.0,0.0,0.0,0.0,0.0,0.0,0.0,0.0,0.0,0.0,0.0,0.0,0.0,0.0,0.0,0.0,0.0,0.0,0.0,0.0,0.0,0.0,0.0,0.0,0.0,0.0,0.0,0.0,0.0,-3.05,-3.0423,-3.0404,-3.0404,-3.0404,-3.0404,-3.0404,-3.1225,-3.1186,-3.0423,-3.1251,-3.1232,-3.0602,-3.0664,-3.0768,-3.0898,-3.0976,-3.0911,-3.0888,-3.1568,-3.182,-3.2033,-3.3841,-3.3994,-3.3553,0.0,0.0,0.0,0.0,0.0,0.0,0.0,0.0,0.0,0.0,0.0,0.0,0.0,0.0,0.0,0.0,0.0,0.0,0.0,-2.0308,-2.0308,-2.0308,-2.0233,-2.021,-2.0308,-1.9686,-1.915,-1.8682,-1.9061,-1.9058,-1.8715,-1.9788,-2.0308,-2.0308,-2.0308,-2.0308,-2.0327,-2.0615,-2.1178,-2.1868,-2.1984,-2.2508,0.0,0.0,0.0,0.0,0.0,0.0,0.0,0.0,0.0,0.0,0.0,0.0,0.0,0.0,0.0,-2.5308,-2.5308,-2.5308,0.0,0.0,0.0,0.0,0.0,0.0,0.0,0.0,0.0,0.0,0.0,0.0,0.0,0.0,0.0,0.0,0.0,0.0,0.0,0.0,0.0,0.0,0.0,0.0,0.0,0.0,0.0,0.0,0.0,0.0,0.0,-3.0404,-3.0404,-3.0404,-3.0404,-3.0404,-3.0404,-3.0404,-3.0725,-3.0725,-3.0404,-3.0782,-3.0821,-3.0606,-3.0633,-3.0702,-3.0776,-3.0774,-3.0719,-3.0664,-3.0923,-3.1014,-3.1223,-3.3025,-3.3519,-3.3527,0.0,0.0,0.0,0.0,0.0,0.0,0.0,0.0,0.0,0.0,0.0,0.0,0.0,0.0,0.0,0.0,0.0,0.0,-2.0308,-2.0308,-2.0308,-2.0308,-2.0241,-2.0035,-1.9675,-1.9039,-1.8687,-1.8659,-1.8622,-1.8547,-1.8446,-1.9654,-2.025,-2.0308,-2.0308,-2.0308,-2.0308,-2.0237,-2.1052,-2.237,-2.1984,-2.2747,0.0,0.0,0.0,0.0,0.0,0.0,0.0,0.0,0.0,0.0,0.0,0.0,0.0,0.0,0.0,0.0,-2.5308,-2.5308,0.0,0.0,0.0,0.0,0.0,0.0,0.0,0.0,0.0,0.0,0.0,0.0,0.0,0.0,0.0,0.0,0.0,0.0,0.0,0.0,0.0,0.0,0.0,0.0,0.0,0.0,0.0,0.0,0.0,0.0,0.0,0.0,-3.025,-3.0269,-2.9981,-2.9981,-2.9865,-2.9615,-2.9615,-2.9885,-3.0385,-2.9906,-2.9992,-3.0568,-3.0324,-3.0245,-3.0306,-3.0569,-3.0628,-3.0535,-3.0184,-3.0242,-3.0723,-3.2231,-3.281,-3.3085,0.0,0.0,0.0,0.0,0.0,0.0,0.0,0.0,0.0,0.0,0.0,0.0,0.0,0.0,0.0,0.0,0.0,0.0,-2.0308,-2.0308,-2.0308,-2.0308,-2.0111,-1.9477,-1.8343,-1.8444,-1.8607,-1.8796,-1.8652,-1.9082,-1.9988,-2.0007,-2.0108,-2.0308,-2.0308,-2.0308,-2.0281,-2.0078,-2.0575,-2.1569,-2.2301,-2.3217,-2.4105,0.0,0.0,0.0,0.0,0.0,0.0,0.0,0.0,0.0,0.0,0.0,0.0,0.0,-2.5308,-2.5308,-2.5308,0.0,0.0,0.0,0.0,0.0,0.0,0.0,0.0,0.0,0.0,0.0,0.0,0.0,0.0,0.0,0.0,0.0,0.0,0.0,0.0,0.0,0.0,0.0,0.0,0.0,0.0,0.0,0.0,0.0,0.0,0.0,0.0,0.0,-2.9923,-2.9962,-2.9107,-2.9088,-2.8684,-2.7895,-2.7895,-2.8756,-3.0327,-2.8654,-2.8838,-3.0429,-2.9577,-2.9273,-2.9443,-3.0256,-3.0548,-3.0393,-2.947,-2.964,-3.0521,-3.1538,-3.1896,-3.2044,0.0,0.0,0.0,0.0,0.0,0.0,0.0,0.0,0.0,0.0,0.0,0.0,0.0,0.0,0.0,0.0,0.0,0.0,-2.0308,-2.0308,-2.0308,-2.0308,-2.0241,-1.9981,-1.9516,-1.9449,-1.887,-1.7735,-1.8408,-1.8802,-1.897,-1.9815,-2.0171,-2.0083,-2.0083,-2.0083,-2.0073,-1.9922,-2.0713,-2.2081,-2.2451,-2.346,-2.4741,0.0,0.0,0.0,0.0,0.0,0.0,0.0,0.0,0.0,0.0,0.0,0.0,-2.5308,-2.5308,-2.5308,-2.5308,0.0,0.0,0.0,0.0,0.0,0.0,0.0,0.0,0.0,0.0,0.0,0.0,0.0,0.0,0.0,0.0,0.0,0.0,0.0,0.0,0.0,0.0,0.0,0.0,0.0,0.0,0.0,0.0,0.0,0.0,0.0,0.0,0.0,-2.8436,-2.8525,-2.8261,-2.8261,-2.8145,-2.7895,-2.7274,-2.7568,-2.8632,-2.817,-2.8247,-2.877,-2.9159,-2.8986,-2.8461,-2.9231,-2.9529,-2.9552,-2.9888,-3.0173,-3.0521,-3.1538,-3.2269,-3.28,0.0,0.0,0.0,0.0,0.0,0.0,0.0,0.0,0.0,0.0,0.0,0.0,0.0,0.0,0.0,0.0,0.0,0.0,0.0,-2.07,-2.0696,-2.0769,-2.0462,-2.0186,-1.9936,-1.9707,-1.9116,-1.8099,-1.8839,-1.9165,-1.9112,-1.9783,-2.0059,-2.0007,-1.9934,-1.9927,-1.9917,-1.9786,-2.0527,-2.184,-2.2212,-2.3177,-2.4448,0.0,0.0,0.0,0.0,0.0,0.0,0.0,0.0,0.0,0.0,0.0,0.0,-2.5208,-2.5248,-2.5308,0.0,0.0,0.0,0.0,0.0,0.0,0.0,0.0,0.0,0.0,0.0,0.0,0.0,0.0,0.0,0.0,0.0,0.0,0.0,0.0,0.0,0.0,0.0,0.0,0.0,0.0,0.0,0.0,0.0,0.0,0.0,0.0,0.0,0.0,-2.7612,-2.7736,-2.739,-2.7371,-2.7217,-2.6851,-2.6327,-2.6351,-2.6862,-2.6918,-2.7309,-2.7967,-2.8195,-2.8531,-2.8901,-2.8338,-2.8698,-2.9621,-2.9813,-3.0096,-3.0471,-3.1103,-3.1651,-3.2083,0.0,0.0,0.0,0.0,0.0,0.0,0.0,0.0,0.0,0.0,0.0,0.0,0.0,0.0,0.0,0.0,0.0,0.0,0.0,0.0,-2.1291,-2.1496,-2.0695,-2.0108,-1.9807,-1.9549,-1.9378,-1.9327,-1.9625,-1.9839,-1.9931,-1.9831,-1.9867,-1.9968,-1.9836,-1.9786,-1.978,-1.9624,-2.0149,-2.1086,-2.1653,-2.2539,-2.3563,-2.4382,0.0,0.0,0.0,0.0,0.0,0.0,0.0,0.0,0.0,0.0,0.0,-2.5047,-2.5072,-2.5153,0.0,0.0,0.0,0.0,0.0,0.0,0.0,0.0,0.0,0.0,0.0,0.0,0.0,0.0,0.0,0.0,0.0,0.0,0.0,0.0,0.0,0.0,0.0,0.0,0.0,0.0,0.0,0.0,0.0,0.0,0.0,0.0,0.0,-2.6162,-2.714,-2.7274,-2.6486,-2.6486,-2.6077,0.0,-2.5308,-2.5308,-2.5308,-2.5308,-2.6217,-2.7721,-2.6853,-2.7848,-2.9885,-2.764,-2.8077,-3.0115,-2.9467,-2.9698,-3.0402,-3.0472,-3.0552,-3.0601,0.0,0.0,0.0,0.0,0.0,0.0,0.0,0.0,0.0,0.0,0.0,0.0,0.0,0.0,0.0,0.0,0.0,0.0,0.0,0.0,-2.1291,-2.1496,-2.0479,-1.9866,-1.9799,-2.0096,-2.0002,-1.9534,-1.9609,-1.9579,-1.9469,-1.9693,-1.9761,-1.9682,-1.9669,-1.9649,-1.9636,-1.9438,-1.9841,-2.0651,-2.0941,-2.1984,-2.3367,-2.3679,-2.42,0.0,0.0,0.0,0.0,0.0,0.0,0.0,-2.5016,-2.4962,-2.4908,-2.4855,-2.4506,0.0,0.0,0.0,0.0,0.0,0.0,0.0,0.0,0.0,0.0,0.0,0.0,0.0,0.0,0.0,0.0,0.0,0.0,0.0,0.0,0.0,0.0,0.0,0.0,0.0,0.0,0.0,0.0,0.0,0.0,0.0,0.0,0.0,0.0,-2.5125,-2.5602,-2.5769,-2.5577,-2.5577,-2.55,0.0,-2.5308,-2.5308,-2.5308,-2.5308,-2.587,-2.6828,-2.5952,-2.6274,-2.7428,-2.7563,-2.7948,-2.8544,-2.9679,-3.0231,-3.0402,-3.0472,-3.0897,-3.1358,0.0,0.0,0.0,0.0,0.0,0.0,0.0,0.0,0.0,0.0,0.0,0.0,0.0,0.0,0.0,0.0,0.0,0.0,0.0,0.0,-2.2252,-2.213,-2.1029,-2.0412,-2.0412,-2.047,-2.0163,-1.9464,-1.9845,-1.987,-1.9533,-1.965,-1.9663,-1.9608,-1.9499,-1.9464,-1.9456,-1.9342,-1.9528,-1.9976,-2.0451,-2.1422,-2.2634,-2.3082,-2.3774,-2.452,-2.452,0.0,0.0,0.0,0.0,0.0,0.0,0.0,-2.4782,-2.4685,-2.4488,-2.4208,0.0,0.0,0.0,0.0,0.0,0.0,0.0,0.0,0.0,0.0,0.0,0.0,0.0,0.0,0.0,0.0,0.0,0.0,0.0,0.0,0.0,0.0,0.0,0.0,0.0,0.0,0.0,0.0,0.0,0.0,0.0,-2.4639,-2.4804,-2.4804,-2.5126,-2.5308,-2.5308,-2.5308,-2.5308,-2.5308,-2.5308,-2.5308,-2.5308,-2.5308,-2.5788,-2.6544,-2.5673,-2.6038,-2.7255,-2.7717,-2.8126,-2.8607,-2.9904,-3.0404,-3.0396,-3.0436,-3.0722,-3.1012,0.0,0.0,0.0,0.0,0.0,0.0,0.0,0.0,0.0,0.0,0.0,0.0,0.0,0.0,0.0,0.0,0.0,0.0,0.0,0.0,0.0,-2.2772,-2.1817,-2.1311,-2.1311,-2.1053,-2.0456,-1.9517,-2.0309,0.0,0.0,0.0,-1.9615,-1.9739,-1.9438,-1.9389,-1.9499,-1.9352,-1.9389,-1.9546,-2.0071,-2.0978,-2.2069,-2.2593,-2.3382,-2.419,-2.419,-2.4339,-2.4503,-2.4503,0.0,0.0,0.0,0.0,-2.4662,-2.4495,-2.449,-2.4379,0.0,0.0,0.0,0.0,0.0,0.0,0.0,0.0,0.0,0.0,0.0,0.0,0.0,0.0,0.0,0.0,0.0,0.0,0.0,0.0,0.0,0.0,0.0,0.0,0.0,0.0,0.0,0.0,0.0,0.0,-2.4227,-2.4575,-2.4804,-2.4804,-2.5126,-2.5308,-2.5308,-2.5308,-2.5308,-2.5308,-2.5308,-2.5308,-2.5308,-2.5308,-2.5692,-2.6351,-2.5615,-2.6115,-2.7467,-2.7601,-2.8165,-2.8953,-2.9698,-3.0154,-3.0385,-3.0231,-3.0269,-3.0404,0.0,0.0,0.0,0.0,0.0,0.0,0.0,0.0,0.0,0.0,0.0,0.0,0.0,0.0,0.0,0.0,0.0,0.0,0.0,0.0,0.0,-2.2582,-2.228,-2.2148,-2.2148,-2.2483,-2.1905,-2.0346,0.0,0.0,0.0,0.0,0.0,-2.0349,0.0,-1.9693,-2.0291,-1.9601,-1.9693,-2.0291,-1.9693,-2.0813,-2.2767,-2.2171,-2.2896,-2.419,-2.419,-2.4339,-2.4503,-2.4503,-2.452,0.0,0.0,0.0,0.0,0.0,0.0,0.0,0.0,0.0,0.0,0.0,0.0,0.0,0.0,0.0,0.0,0.0,0.0,0.0,0.0,0.0,0.0,0.0,0.0,0.0,0.0,0.0,0.0,0.0,0.0,0.0,0.0,0.0,0.0,0.0,0.0,0.0,-2.4227,-2.4575,-2.4804,-2.4804,-2.5126,-2.5308,-2.5308,-2.5308,-2.5308,-2.5308,-2.5308,-2.5308,-2.5308,-2.5308,-2.5365,-2.5462,-2.5346,-2.5423,-2.5712,-2.6467,-2.7274,-2.8068,-2.8179,-2.9121,-3.0308,-2.9544,-2.9756,-3.0404,0.0,0.0,0.0,0.0,0.0,0.0,0.0,0.0,0.0,0.0,0.0,0.0,0.0,0.0,0.0,0.0,0.0,0.0,0.0,0.0,0.0,-2.3919,-2.3303,-2.2973,-2.2973,-2.3103,-2.2281,-2.0503,0.0,0.0,0.0,-1.9767,-1.9932,0.0,0.0,0.0,0.0,-1.9444,-1.9499,-1.984,-1.9932,-2.0621,0.0,0.0,-2.2905,-2.3584,-2.4043,-2.4266,-2.4321,-2.4321,-2.4321,-2.4321,0.0,0.0,0.0,0.0,0.0,0.0,0.0,0.0,0.0,0.0,0.0,0.0,0.0,0.0,0.0,0.0,0.0,0.0,0.0,0.0,0.0,0.0,0.0,0.0,0.0,0.0,0.0,0.0,0.0,0.0,0.0,0.0,0.0,0.0,0.0,-2.4506,-2.4218,-2.4575,-2.4804,-2.4804,-2.5126,-2.5308,-2.5308,-2.5308,-2.5308,-2.5308,-2.5308,-2.5308,-2.5308,-2.5308,-2.5308,-2.5308,-2.5308,-2.5308,-2.5404,-2.6774,-2.7544,-2.7992,-2.8929,-2.975,-3.0288,-2.941,-2.964,-3.0327,0.0,0.0,0.0,0.0,0.0,0.0,0.0,0.0,0.0,0.0,0.0,0.0,0.0,0.0,0.0,0.0,0.0,0.0,0.0,0.0,0.0,0.0,0.0,-2.3752,-2.3752,-2.3604,-2.2738,0.0,0.0,0.0,-1.9601,-1.9997,-1.9877,0.0,-1.9297,0.0,0.0,0.0,0.0,0.0,0.0,0.0,0.0,0.0,0.0,0.0,-2.3988,-2.419,-2.419,-2.419,-2.419,-2.419,0.0,0.0,0.0,0.0,0.0,0.0,0.0,0.0,0.0,0.0,0.0,0.0,0.0,0.0,0.0,0.0,0.0,0.0,0.0,0.0,0.0,0.0,0.0,0.0,0.0,0.0,0.0,0.0,0.0,0.0,0.0,0.0,0.0,0.0,0.0,-2.4404,-2.4218,-2.4575,-2.4804,-2.4804,-2.5126,-2.5308,-2.5308,-2.5308,-2.5308,-2.5308,-2.5308,-2.5308,-2.5308,-2.5308,-2.5308,-2.5308,-2.5308,-2.5423,-2.5731,-2.7024,-2.7818,-2.8319,-2.9371,-3.0019,-3.0288,-2.941,-2.964,-3.0308,0.0,0.0,0.0,0.0,0.0,0.0,0.0,0.0,0.0,0.0,0.0,0.0,0.0,0.0,0.0,0.0,0.0,0.0,0.0,0.0,0.0,0.0,0.0,0.0,-2.4445,-2.4247,0.0,0.0,0.0,0.0,-2.0419,-1.9693,-1.9334,-1.9297,-1.9297,-1.9711,-2.0401,0.0,0.0,0.0,0.0,0.0,0.0,0.0,0.0,0.0,0.0,0.0,0.0,-2.419,-2.419,0.0,0.0,0.0,0.0,0.0,0.0,0.0,0.0,0.0,0.0,0.0,0.0,0.0,0.0,0.0,0.0,0.0,0.0,0.0,0.0,0.0,0.0,0.0,0.0,0.0,0.0,0.0,0.0,0.0,0.0,0.0,0.0,0.0,0.0,0.0,0.0,-2.441,-2.4209,-2.4575,-2.4804,-2.4804,-2.5126,-2.5308,-2.5308,-2.5308,-2.5308,-2.5308,-2.5308,-2.5308,-2.5308,-2.5308,-2.5308,-2.5308,-2.5308,-2.5769,-2.6544,-2.664,-2.7601,-2.8973,-2.8299,-2.9006,-3.0288,-2.941,-2.964,-3.0385,0.0,0.0,0.0,0.0,0.0,0.0,0.0,0.0,0.0,0.0,0.0,0.0,0.0,-2.3572,-2.3976,-2.418,0.0,0.0,0.0,0.0,0.0,0.0,0.0,0.0,0.0,0.0,0.0,0.0,0.0,-2.2373,-2.0529,-2.13,-2.0831,-1.9297,-1.9297,-1.9462,-1.9711,-1.9426,0.0,0.0,0.0,0.0,0.0,0.0,0.0,0.0,0.0,0.0,0.0,0.0,0.0,0.0,0.0,0.0,0.0,0.0,0.0,0.0,0.0,0.0,0.0,0.0,0.0,0.0,0.0,0.0,0.0,0.0,0.0,0.0,0.0,0.0,0.0,0.0,0.0,0.0,0.0,0.0,0.0,0.0,0.0,0.0,0.0,0.0,0.0,0.0,0.0,0.0,-2.4393,-2.4537,-2.4662,-2.4797,-2.4993,-2.5168,-2.5303,-2.5308,-2.5308,-2.5308,-2.5308,-2.5308,-2.5303,-2.5163,-2.5105,-2.5099,-2.5018,-2.5606,-2.6629,-2.7023,-2.7934,-2.9069,-2.878,-2.9371,-3.0288,-2.941,-2.964,-3.0327,0.0,0.0,0.0,0.0,0.0,0.0,0.0,0.0,0.0,0.0,0.0,0.0,0.0,0.0,-2.3827,-2.417,-2.419,0.0,0.0,0.0,0.0,0.0,0.0,0.0,0.0,0.0,0.0,0.0,0.0,0.0,0.0,-2.2199,-2.1712,-2.0123,-1.9822,-1.9546,0.0,0.0,0.0,-2.1006,0.0,0.0,-2.2703,0.0,0.0,0.0,0.0,0.0,0.0,0.0,0.0,0.0,0.0,0.0,0.0,0.0,0.0,0.0,0.0,0.0,0.0,0.0,0.0,0.0,0.0,0.0,0.0,0.0,0.0,0.0,0.0,0.0,0.0,0.0,0.0,0.0,0.0,0.0,0.0,0.0,0.0,0.0,0.0,0.0,0.0,0.0,0.0,0.0,-2.4495,-2.4551,-2.4674,-2.485,-2.4949,-2.5094,-2.5303,-2.5308,-2.5308,-2.5308,-2.5224,-2.5203,-2.5198,-2.5018,-2.4924,-2.493,-2.5058,-2.5594,-2.6432,-2.6899,-2.7854,-2.9006,-2.9071,-2.9621,-3.0327,-2.9756,-2.991,-3.0327,0.0,0.0,0.0,0.0,0.0,0.0,0.0,0.0,0.0,-2.3692,0.0,0.0,0.0,0.0,0.0,-2.4161,-2.418,-2.418,-2.419,-2.419,0.0,0.0,0.0,0.0,0.0,0.0,0.0,0.0,0.0,0.0,0.0,0.0,-2.1849,-2.1757,-2.0933,-2.0126,-1.9426,0.0,-2.1006,-2.1851,0.0,-2.3168,-2.4141,0.0,0.0,0.0,-2.4208,-2.419,0.0,0.0,0.0,0.0,0.0,0.0,0.0,0.0,0.0,0.0,0.0,0.0,0.0,0.0,0.0,0.0,0.0,0.0,0.0,0.0,0.0,0.0,0.0,0.0,0.0,0.0,0.0,0.0,0.0,0.0,0.0,0.0,0.0,0.0,0.0,0.0,0.0,0.0,0.0,-2.4495,-2.4503,-2.4685,-2.4855,-2.4986,-2.4998,-2.5088,-2.5298,-2.5303,-2.5308,-2.5303,-2.5099,-2.501,-2.5004,-2.4869,-2.4797,-2.482,-2.5402,-2.5781,-2.5955,-2.6204,-2.7262,-2.8771,-2.896,-2.9563,-3.0365,-3.0365,-3.0365,-3.0365,0.0,0.0,0.0,0.0,0.0,0.0,0.0,0.0,0.0,0.0,0.0,0.0,-2.2551,-2.3018,-2.3471,-2.3806,-2.3837,-2.3937,-2.418,-2.419,-2.419,-2.419,-2.419,-2.419,0.0,0.0,0.0,0.0,0.0,0.0,0.0,0.0,0.0,0.0,-2.2171,-2.1859,-2.1078,-2.0676,0.0,0.0,-2.2447,-2.2894,0.0,0.0,0.0,0.0,0.0,-2.419,0.0,0.0,-2.419,-2.419,0.0,0.0,0.0,0.0,0.0,0.0,-2.3129,0.0,0.0,0.0,0.0,0.0,0.0,0.0,0.0,0.0,0.0,0.0,0.0,0.0,0.0,0.0,0.0,0.0,0.0,0.0,0.0,0.0,0.0,0.0,0.0,0.0,0.0,0.0,-2.4256,-2.4358,-2.4495,-2.4543,-2.4599,-2.4643,-2.4785,-2.4923,-2.5088,-2.5224,-2.5308,-2.5308,-2.5234,-2.5146,-2.5004,-2.4869,-2.4723,-2.4578,-2.4607,-2.4654,-2.4772,-2.5702,-2.6809,-2.7886,-2.7451,-2.8179,-2.9467,-2.9467,-2.9467,-2.9544,0.0,0.0,0.0,0.0,0.0,0.0,0.0,0.0,0.0,0.0,0.0,0.0,-2.2682,-2.2606,-2.2852,-2.3624,-2.3703,-2.3837,-2.418,-2.419,-2.419,-2.419,-2.419,-2.419,-2.419,0.0,0.0,0.0,0.0,0.0,0.0,0.0,0.0,0.0,0.0,0.0,0.0,0.0,0.0,0.0,-2.2715,0.0,0.0,-2.3247,-2.3369,0.0,0.0,0.0,-2.3996,-2.3996,-2.4084,0.0,0.0,0.0,0.0,0.0,0.0,0.0,0.0,0.0,0.0,0.0,0.0,0.0,0.0,-2.3841,0.0,0.0,0.0,0.0,0.0,0.0,0.0,0.0,0.0,0.0,0.0,0.0,0.0,0.0,0.0,0.0,0.0,0.0,0.0,-2.4199,-2.4275,-2.4375,-2.4495,-2.451,-2.4545,-2.462,-2.4738,-2.4907,-2.5111,-2.5229,-2.5308,-2.5308,-2.5214,-2.5077,-2.4917,-2.4749,-2.4578,-2.4366,-2.4256,-2.419,-2.4265,-2.514,-2.6071,-2.6915,-2.6699,-2.7621,-2.9107,-2.9107,-2.9107,-2.9165,0.0,0.0,0.0,0.0,0.0,0.0,0.0,0.0,0.0,0.0,-2.2463,-2.2402,-2.2621,-2.2073,-2.2205,-2.349,-2.3639,-2.3788,-2.4115,-2.4171,-2.419,-2.419,-2.4161,-2.4161,-2.419,0.0,0.0,0.0,0.0,0.0,0.0,0.0,0.0,0.0,0.0,0.0,0.0,0.0,0.0,-2.2554,-2.297,-2.3117,0.0,0.0,-2.2885,0.0,-2.3177,-2.3392,-2.366,-2.3692,-2.3858,0.0,0.0,0.0,0.0,0.0,-2.3403,0.0,0.0,0.0,0.0,0.0,0.0,0.0,-2.4084,-2.417,-2.419,0.0,0.0,0.0,0.0,0.0,0.0,0.0,0.0,0.0,0.0,0.0,0.0,0.0,0.0,0.0,0.0,-2.4303,-2.419,-2.419,-2.4366,-2.4461,-2.4461,-2.4481,-2.4569,-2.4756,-2.4791,-2.4934,-2.5241,-2.5248,-2.5239,-2.5264,-2.5063,-2.4911,-2.4797,-2.4583,-2.4393,-2.419,-2.419,-2.419,-2.4228,-2.4607,-2.5197,-2.5898,-2.6295,-2.7428,-2.8819,-2.8819,-2.8819,-2.8838,0.0,0.0,0.0,0.0,0.0,0.0,0.0,0.0,0.0,0.0,-2.2463,-2.2324,-2.2374,-2.2255,-2.2394,-2.2925,-2.3159,-2.3443,-2.3783,-2.4042,-2.419,-2.419,-2.3937,-2.3917,-2.419,-2.3945,0.0,0.0,0.0,0.0,0.0,0.0,0.0,0.0,0.0,0.0,0.0,0.0,0.0,-2.2663,-2.2753,0.0,-2.2494,-2.2634,-2.2746,-2.2835,-2.3105,-2.3236,-2.3346,0.0,-2.3566,-2.35,0.0,0.0,0.0,0.0,0.0,0.0,0.0,0.0,0.0,0.0,0.0,0.0,-2.3785,-2.4006,-2.419,0.0,0.0,0.0,0.0,0.0,0.0,0.0,0.0,0.0,0.0,0.0,0.0,0.0,0.0,0.0,0.0,-2.4218,-2.419,-2.419,-2.4237,-2.4266,-2.4266,-2.4409,-2.4518,-2.4561,-2.4711,-2.4821,-2.4896,-2.4904,-2.4941,-2.5071,-2.4911,-2.4827,-2.4797,-2.4583,-2.4393,-2.419,-2.419,-2.419,-2.4218,-2.4452,-2.4748,-2.5066,-2.5414,-2.6173,-2.7082,-2.7082,-2.7082,-2.7198,0.0,0.0,0.0,0.0,0.0,0.0,0.0,0.0,0.0,-2.255,-2.2388,-2.2296,-2.2296,-2.2296,-2.2429,-2.2717,-2.2925,-2.3247,-2.3672,-2.4008,-2.421,-2.4208,-2.4036,-2.4026,-2.4208,-2.4044,-2.4026,0.0,0.0,0.0,0.0,0.0,0.0,0.0,0.0,0.0,0.0,0.0,-2.3153,-2.2708,-2.2708,0.0,-2.2307,-2.245,-2.25,-2.2527,-2.2682,-2.2845,-2.3009,-2.3346,-2.3346,0.0,0.0,-2.3577,-2.338,0.0,-2.296,-2.2865,0.0,0.0,0.0,-2.2673,0.0,0.0,0.0,-2.3827,-2.3996,-2.417,0.0,0.0,0.0,0.0,0.0,0.0,0.0,0.0,0.0,0.0,0.0,0.0,0.0,0.0,0.0,-2.419,-2.419,-2.419,-2.419,-2.419,-2.419,-2.4294,-2.4403,-2.4494,-2.4598,-2.4693,-2.4797,-2.479,-2.4834,-2.4905,-2.4829,-2.4742,-2.4648,-2.4551,-2.4393,-2.419,-2.419,-2.419,-2.4209,-2.4428,-2.4569,-2.4685,-2.5011,-2.5688,-2.6466,-2.6556,-2.6601,-2.6659,0.0,0.0,0.0,0.0,0.0,0.0,0.0,0.0,0.0,-2.2245,-2.218,-2.218,0.0,0.0,0.0,0.0,0.0,-2.3087,0.0,0.0,0.0,-2.4101,-2.3976,-2.3976,-2.4094,-2.4036,-2.4074,0.0,0.0,0.0,0.0,0.0,0.0,0.0,0.0,0.0,0.0,0.0,0.0,-2.2621,0.0,-2.2487,-2.2296,-2.2296,-2.2296,-2.2296,-2.2296,-2.244,-2.2673,-2.2996,0.0,-2.3051,-2.3153,-2.3259,0.0,0.0,0.0,0.0,0.0,0.0,0.0,0.0,0.0,-2.3301,0.0,0.0,0.0,-2.4398,0.0,0.0,0.0,0.0,0.0,0.0,0.0,0.0,0.0,0.0,0.0,0.0,0.0,0.0,0.0,-2.4218,-2.419,-2.419,-2.419,-2.419,-2.419,-2.4237,-2.4321,-2.4485,-2.4496,-2.4587,-2.4742,-2.4706,-2.4696,-2.473,-2.4695,-2.4625,-2.4495,-2.4459,-2.4348,-2.419,-2.419,-2.419,-2.4209,-2.4375,-2.4435,-2.4478,-2.4824,-2.5418,-2.6072,-2.6233,-2.6331,-2.6351,0.0,0.0,0.0,0.0,0.0,0.0,0.0,0.0,0.0,-2.182,0.0,0.0,0.0,0.0,0.0,0.0,0.0,0.0,-2.3239,0.0,0.0,-2.3743,-2.3194,-2.3153,-2.3735,-2.3477,-2.3599,0.0,0.0,0.0,0.0,0.0,0.0,0.0,-2.3896,0.0,0.0,0.0,-2.2651,0.0,-2.2349,-2.2338,0.0,-2.2296,-2.2296,-2.2296,-2.2296,-2.2324,-2.2388,0.0,-2.2603,-2.2494,0.0,-2.3493,0.0,0.0,0.0,0.0,0.0,0.0,0.0,0.0,-2.4516,0.0,0.0,0.0,-2.5644,-2.5332,0.0,0.0,0.0,0.0,0.0,0.0,0.0,0.0,0.0,0.0,0.0,0.0,0.0,0.0,0.0,0.0,-2.419,-2.419,-2.419,-2.419,-2.419,-2.4366,-2.4484,-2.4505,-2.4501,-2.4518,-2.4524,-2.4358,-2.4366,-2.4524,-2.4356,-2.4347,-2.4485,-2.4321,-2.4218,-2.419,-2.419,-2.419,-2.419,-2.4228,-2.4237,-2.4266,-2.4678,-2.4954,-2.5144,-2.5162,-2.5286,-2.5442,0.0,0.0,0.0,0.0,0.0,0.0,0.0,0.0,0.0,0.0,0.0,0.0,0.0,0.0,0.0,0.0,0.0,-2.262,0.0,0.0,0.0,-2.3395,-2.3128,-2.3117,-2.3403,-2.3459,-2.3639,-2.3907,-2.4103,0.0,0.0,0.0,0.0,0.0,-2.3837,0.0,-2.3177,0.0,0.0,0.0,0.0,0.0,0.0,-2.2296,-2.2296,-2.2296,-2.2296,-2.2296,-2.2375,0.0,-2.3031,0.0,0.0,0.0,0.0,0.0,0.0,0.0,0.0,0.0,0.0,0.0,0.0,0.0,0.0,0.0,-2.5589,0.0,0.0,0.0,0.0,0.0,0.0,0.0,0.0,0.0,0.0,0.0,0.0,0.0,0.0,0.0,0.0,0.0,0.0,0.0,0.0,-2.419,-2.419,-2.4275,-2.4331,-2.4337,-2.434,-2.4321,-2.4337,-2.4236,-2.4247,-2.4312,-2.4247,-2.4247,-2.433,-2.4237,-2.419,-2.419,-2.419,-2.419,-2.419,-2.419,-2.419,-2.4218,-2.4384,-2.4628,-2.4891,-2.4974,-2.5135,-2.5279,0.0,0.0,0.0,0.0,0.0,0.0,0.0,0.0,0.0,0.0,0.0,0.0,-2.0813,-2.1181,0.0,0.0,0.0,-2.2409,0.0,0.0,-2.2834,-2.3059,-2.3,0.0,0.0,0.0,0.0,0.0,0.0,0.0,0.0,0.0,0.0,0.0,0.0,-2.3426,-2.3165,0.0,0.0,-2.2296,-2.2296,-2.2415,-2.2581,-2.2381,-2.2431,-2.2598,-2.2598,-2.2649,-2.2818,-2.3477,-2.3782,0.0,-2.4372,0.0,0.0,0.0,0.0,0.0,-2.4795,0.0,0.0,0.0,0.0,0.0,0.0,0.0,0.0,0.0,0.0,0.0,0.0,0.0,0.0,0.0,0.0,0.0,0.0,0.0,0.0,0.0,0.0,0.0,0.0,0.0,0.0,-2.419,-2.419,-2.419,-2.419,-2.419,-2.419,-2.419,-2.419,-2.419,-2.419,-2.419,-2.419,-2.419,-2.419,-2.419,-2.419,-2.419,-2.419,-2.419,-2.419,-2.419,-2.419,-2.419,-2.419,-2.419,-2.419,-2.4419,-2.4746,-2.4897,-2.5101,-2.5269,0.0,-2.419,0.0,0.0,0.0,0.0,0.0,0.0,0.0,0.0,0.0,0.0,0.0,0.0,0.0,0.0,0.0,-2.2409,-2.2683,0.0,-2.2437,-2.2697,-2.2468,-2.2453,0.0,0.0,0.0,0.0,0.0,0.0,0.0,0.0,0.0,0.0,0.0,-2.32,-2.3153,-2.2575,-2.231,-2.2296,-2.2296,-2.2733,-2.3291,0.0,-2.275,-2.3359,-2.3359,0.0,0.0,-2.4305,-2.4763,0.0,0.0,0.0,0.0,0.0,0.0,0.0,0.0,0.0,0.0,-2.6437,0.0,0.0,0.0,0.0,-2.7676,0.0,0.0,0.0,0.0,0.0,0.0,0.0,0.0,0.0,0.0,0.0,0.0,0.0,0.0,0.0,0.0,0.0,0.0,-2.419,-2.419,-2.419,-2.419,-2.419,-2.419,-2.419,-2.419,-2.419,-2.419,-2.419,-2.419,-2.419,-2.419,-2.419,-2.419,-2.419,-2.419,-2.419,-2.419,-2.419,-2.419,-2.419,-2.419,-2.419,-2.419,-2.433,-2.4518,-2.4738,-2.5025,-2.5269,0.0,0.0,0.0,0.0,0.0,0.0,0.0,-2.1755,0.0,0.0,0.0,0.0,0.0,0.0,-2.0717,0.0,0.0,-2.2006,-2.2409,-2.2344,0.0,0.0,0.0,-2.2349,0.0,0.0,0.0,0.0,0.0,0.0,0.0,0.0,0.0,0.0,0.0,-2.32,0.0,0.0,0.0,0.0,0.0,-2.346,-2.4101,0.0,0.0,-2.4135,-2.4135,-2.4186,0.0,-2.5,-2.5338,-2.5508,-2.5845,-2.6116,-2.6285,-2.6015,-2.6116,0.0,0.0,0.0,-2.6387,-2.664,0.0,0.0,0.0,0.0,0.0,0.0,0.0,0.0,0.0,0.0,0.0,0.0,0.0,0.0,0.0,0.0,0.0,0.0,0.0,0.0,0.0,0.0,0.0,-2.419,-2.419,-2.419,0.0,-2.419,-2.419,-2.419,-2.419,-2.419,-2.419,-2.419,-2.419,-2.419,-2.419,-2.419,-2.419,-2.419,-2.419,-2.419,-2.419,-2.419,-2.419,-2.419,-2.419,-2.419,-2.419,-2.433,-2.4528,-2.4731,-2.4881,-2.4936,-2.3177,0.0,0.0,0.0,0.0,0.0,0.0,0.0,0.0,0.0,-1.9962,0.0,-1.9708,0.0,-2.0677,0.0,-2.1519,-2.2096,-2.2649,-2.2291,0.0,-2.2432,-2.2197,0.0,0.0,0.0,0.0,0.0,0.0,-2.3577,0.0,0.0,0.0,0.0,0.0,0.0,0.0,0.0,-2.2448,0.0,0.0,-2.4458,0.0,0.0,-2.5117,-2.488,0.0,-2.4982,-2.5354,-2.5828,-2.5998,-2.6065,-2.6539,-2.6691,-2.6691,-2.6691,-2.6691,-2.6691,-2.6691,-2.6691,0.0,-2.6691,-2.6894,0.0,-2.6759,0.0,0.0,0.0,0.0,0.0,0.0,0.0,0.0,0.0,0.0,0.0,0.0,0.0,0.0,0.0,0.0,0.0,0.0,0.0,-2.419,-2.419,-2.419,-2.419,0.0,0.0,-2.419,-2.419,-2.419,-2.419,-2.419,-2.419,-2.419,-2.419,-2.419,-2.419,-2.419,-2.419,-2.419,-2.419,-2.419,-2.419,-2.419,-2.419,-2.419,-2.419,-2.419,-2.4275,-2.4428,-2.4615,-2.4693,-2.4678,0.0,0.0,0.0,0.0,-2.338,0.0,0.0,0.0,-2.0797,0.0,-1.9929,-1.9708,-1.9708,-2.0466,-2.0973,-2.0998,-2.1788,0.0,-2.3274,-2.2245,0.0,0.0,-2.1977,-2.16,-2.1597,0.0,0.0,0.0,0.0,0.0,0.0,0.0,0.0,0.0,-2.3553,0.0,-2.3153,-2.2561,-2.275,-2.3579,-2.5033,-2.5625,-2.5744,-2.642,-2.6251,-2.5625,-2.5373,-2.588,-2.6691,-2.6691,-2.6691,-2.6691,-2.6691,-2.6691,-2.6691,-2.6691,-2.6691,-2.6691,-2.6691,-2.6691,-2.6691,-2.6691,0.0,0.0,0.0,0.0,-2.8319,0.0,0.0,0.0,0.0,0.0,0.0,0.0,0.0,0.0,0.0,0.0,0.0,0.0,0.0,0.0,0.0,-2.419,-2.419,-2.419,-2.419,0.0,0.0,0.0,-2.419,-2.419,-2.419,-2.419,-2.419,-2.419,-2.419,-2.419,-2.419,-2.419,-2.419,-2.419,-2.419,-2.419,-2.419,-2.419,-2.419,-2.419,-2.419,-2.419,-2.419,-2.419,-2.4218,-2.44,-2.4495,-2.4503,-2.2521,-2.2691,-2.286,0.0,-2.2635,-2.2135,0.0,0.0,0.0,0.0,-1.9764,-1.9708,-1.9708,-2.016,-2.0617,-2.0975,-2.1492,0.0,0.0,0.0,0.0,-2.144,-2.173,-2.1794,-2.1598,-2.2745,0.0,-2.3215,0.0,0.0,-2.4672,0.0,0.0,0.0,0.0,0.0,-2.3153,-2.2561,-2.3038,-2.4305,-2.5236,-2.593,0.0,0.0,-2.6573,-2.6404,-2.6336,-2.6471,-2.6691,-2.6691,-2.6691,-2.6691,-2.6691,-2.6691,-2.6691,-2.6691,-2.6691,-2.6691,-2.6691,-2.6691,-2.6691,-2.6691,-2.7249,-2.7756,0.0,0.0,0.0,0.0,0.0,0.0,0.0,0.0,0.0,0.0,0.0,0.0,0.0,0.0,0.0,0.0,0.0,0.0,-2.3806,-2.4046,-2.419,-2.419,-2.419,0.0,0.0,0.0,0.0,-2.419,-2.419,-2.419,-2.419,-2.419,-2.419,-2.419,-2.419,-2.419,-2.419,-2.419,-2.419,-2.419,-2.419,-2.419,-2.419,-2.419,-2.419,-2.419,-2.419,-2.419,-2.4199,-2.4266,-2.4366,-2.4478,-2.2296,0.0,0.0,-2.2255,0.0,0.0,-2.1071,0.0,0.0,-2.0149,-1.9887,0.0,-2.0109,-2.0408,-2.0716,-2.097,-2.156,0.0,-2.2081,0.0,0.0,-2.16,-2.1659,-2.188,-2.2248,-2.29,0.0,-2.3881,0.0,0.0,-2.502,0.0,0.0,0.0,0.0,-2.4635,0.0,-2.3864,-2.4222,-2.5049,-2.5778,0.0,0.0,-2.647,-2.6505,-2.6674,-2.647,-2.6539,-2.6691,-2.6691,-2.6691,-2.6691,-2.6691,-2.6691,-2.6691,-2.6691,-2.6691,-2.6691,-2.6691,-2.6691,-2.6691,-2.6691,-2.7249,-2.7722,-2.7384,-2.7726,-2.8164,0.0,0.0,0.0,0.0,0.0,0.0,0.0,0.0,0.0,0.0,0.0,0.0,0.0,0.0,0.0,-2.3271,-2.3692,-2.4036,-2.418,0.0,0.0,0.0,0.0,0.0,-2.419,-2.4548,-2.4566,-2.419,-2.4548,-2.4548,-2.419,-2.419,-2.419,-2.419,-2.419,-2.419,-2.419,-2.419,-2.419,-2.419,-2.419,-2.419,-2.419,-2.419,-2.441,-2.4677,-2.4318,-2.4266,-2.4404,0.0,0.0,0.0,0.0,0.0,0.0,0.0,-2.0562,0.0,-2.0535,0.0,-1.9914,-2.0513,-2.0822,-2.1005,-2.1003,0.0,-2.2385,-2.259,-2.1682,-2.1476,-2.2276,-2.1787,-2.1944,-2.2918,-2.2929,0.0,0.0,0.0,0.0,0.0,0.0,0.0,0.0,0.0,0.0,0.0,-2.5533,-2.556,0.0,-2.6303,-2.6573,-2.647,-2.605,-2.6139,-2.647,-2.6122,-2.6297,-2.6691,-2.6691,-2.6691,-2.6691,-2.6691,-2.6691,-2.6691,-2.6691,-2.6691,-2.6691,-2.6691,-2.6691,-2.6708,-2.6826,-2.7317,-2.7655,-2.7114,-2.7435,-2.7725,-2.7486,-2.7662,-2.7936,0.0,0.0,0.0,0.0,0.0,0.0,0.0,0.0,0.0,0.0,0.0,0.0,0.0,0.0,0.0,0.0,0.0,0.0,0.0,0.0,0.0,-2.4355,-2.4934,0.0,-2.452,0.0,-2.4934,-2.4355,-2.4245,-2.419,-2.419,-2.419,-2.419,-2.419,-2.419,-2.419,-2.419,-2.419,-2.419,-2.419,-2.419,-2.4695,-2.5319,-2.4622,-2.441,-2.4593,0.0,0.0,0.0,0.0,0.0,-2.0603,-2.1163,-2.0421,-1.9827,-1.9872,-1.9783,-1.9753,-1.9854,-2.054,-2.1007,-2.1007,-2.1794,0.0,0.0,0.0,0.0,-2.1812,-2.2224,-2.2354,-2.212,-2.3829,-2.4469,0.0,0.0,0.0,0.0,0.0,0.0,0.0,0.0,0.0,-2.4722,-2.5351,0.0,-2.5009,-2.5788,-2.5854,-2.5449,-2.5373,-2.5392,-2.5505,-2.587,-2.6297,-2.6691,-2.6691,-2.6691,-2.6691,-2.6691,-2.6691,-2.6691,-2.6691,-2.6691,-2.6691,-2.6691,-2.6691,-2.6843,-2.7452,-2.7705,-2.7942,-2.8485,-2.818,-2.7878,-2.8144,-2.7783,-2.7601,-2.8272,0.0,0.0,0.0,0.0,0.0,0.0,0.0,0.0,0.0,0.0,0.0,0.0,0.0,0.0,0.0,0.0,0.0,0.0,0.0,0.0,0.0,-2.4677,0.0,0.0,0.0,-2.4677,-2.5172,-2.453,-2.419,-2.419,-2.419,-2.419,-2.419,-2.419,-2.419,-2.419,-2.419,-2.419,-2.419,-2.419,-2.4695,-2.5374,-2.5246,-2.5613,-2.6098,0.0,0.0,0.0,0.0,0.0,0.0,0.0,-2.0032,0.0,-2.0168,-1.9932,-1.9918,-2.0469,-2.0803,-2.0991,-2.0991,-2.1812,-2.2232,-2.205,-2.2247,-2.2562,-2.2985,-2.3305,0.0,-2.4017,-2.4661,-2.5087,-2.5303,0.0,0.0,0.0,0.0,0.0,0.0,0.0,-2.6344,0.0,0.0,0.0,-2.5814,-2.6199,-2.6068,-2.5596,-2.5316,-2.5599,-2.6119,-2.5726,-2.6583,-2.7774,-2.6979,-2.6691,-2.6691,-2.6691,-2.6691,-2.6691,-2.6691,-2.6691,-2.6776,-2.7182,-2.7283,-2.7469,-2.823,-2.8094,-2.7908,-2.8298,-2.7791,-2.7284,-2.7486,-2.7405,-2.753,-2.8259,-2.8737,0.0,0.0,0.0,0.0,0.0,0.0,0.0,0.0,0.0,0.0,0.0,0.0,0.0,0.0,0.0,0.0,0.0,0.0,0.0,0.0,0.0,0.0,0.0,0.0,0.0,-2.4768,-2.4401,-2.419,-2.419,-2.419,-2.419,-2.419,-2.4016,-2.4036,-2.419,-2.419,-2.419,-2.419,-2.419,-2.4942,-2.597,-2.554,-2.6429,-2.7721,0.0,-2.3418,0.0,0.0,-2.1142,0.0,-2.0032,-1.9798,-1.9902,-2.0423,-2.0034,-2.0032,-2.0878,-2.0896,-2.0845,-2.0845,-2.1777,-2.2356,-2.2325,-2.2834,-2.3537,-2.4377,-2.4406,-2.4883,-2.5908,-2.5349,-2.5611,0.0,0.0,0.0,0.0,0.0,0.0,0.0,0.0,0.0,0.0,0.0,-2.6641,-2.6539,-2.6539,-2.6262,-2.5781,-2.5354,-2.5921,-2.6812,-2.5924,-2.6977,-2.8662,-2.757,-2.708,-2.6928,-2.6928,-2.6826,-2.6674,-2.659,-2.6624,-2.6793,-2.7297,-2.7483,-2.7756,-2.8552,-2.8146,-2.7655,-2.7976,-2.7351,-2.6776,-2.7114,-2.7363,-2.7692,-2.8201,-2.8608,0.0,0.0,0.0,0.0,0.0,0.0,0.0,0.0,0.0,0.0,0.0,0.0,0.0,0.0,0.0,-2.3735,-2.4084,-2.4307,0.0,0.0,0.0,-2.6374,-2.5907,0.0,-2.5713,0.0,-2.4281,-2.419,-2.419,-2.419,-2.419,-2.4198,-2.4099,-2.4202,-2.4428,-2.4263,-2.419,-2.419,-2.419,-2.5181,-2.6521,-2.5888,-2.7071,-2.8913,0.0,0.0,0.0,0.0,0.0,0.0,-2.0528,-2.0094,-1.9723,-1.9798,-1.9753,-1.9741,-1.9837,-2.017,-2.0365,-2.0365,-2.1762,-2.2769,-2.2994,-2.4007,-2.4743,-2.5077,-2.5106,-2.5309,-2.5726,-2.5841,-2.6144,0.0,0.0,0.0,0.0,0.0,0.0,0.0,0.0,0.0,0.0,-2.6691,-2.6453,-2.6067,-2.6067,-2.5744,-2.5278,-2.5221,-2.5689,-2.6418,-2.6793,-2.7514,-2.8331,-2.8661,-2.8298,-2.7705,-2.7705,-2.7249,-2.6624,-2.6191,-2.6367,-2.6624,-2.6274,-2.6467,-2.6979,-2.7722,-2.7351,-2.7165,-2.857,-2.7757,-2.7114,-2.8502,-2.8528,-2.8228,-2.7993,-2.8224,-2.8329,0.0,0.0,0.0,0.0,0.0,0.0,0.0,0.0,0.0,0.0,0.0,0.0,0.0,0.0,-2.3392,-2.3724,-2.473,-2.5668,-2.6465,0.0,-2.6906,-2.7578,-2.6201,-2.5429,-2.5283,-2.4548,-2.419,-2.419,-2.419,-2.419,-2.4245,-2.4951,-2.5262,-2.5227,-2.4511,-2.419,-2.419,-2.419,-2.5181,-2.6583,-2.6521,-2.7537,-2.8987,0.0,0.0,0.0,0.0,0.0,0.0,0.0,-2.0737,-2.0303,-2.0303,-1.9962,-1.98,-2.0035,-2.0195,-2.0588,-2.1318,-2.2183,-2.3144,-2.4158,-2.4895,-2.553,-2.6072,-2.6105,-2.6374,-2.6947,-2.6618,-2.6958,0.0,0.0,0.0,0.0,0.0,0.0,0.0,0.0,-2.6945,-2.7317,-2.6894,-2.7129,-2.776,-2.7273,-2.705,-2.7016,-2.7016,-2.7457,-2.8065,-2.7836,-2.8719,-2.9978,-2.9747,-2.8821,-2.7807,-2.7807,-2.7604,-2.7247,-2.6695,-2.7009,-2.7429,-2.6919,-2.715,-2.7607,-2.7963,-2.7696,-2.7655,-2.8756,-2.8146,-2.7672,-2.8773,-2.8682,-2.8481,-2.8797,-2.8596,-2.8367,0.0,0.0,0.0,0.0,0.0,0.0,0.0,0.0,0.0,0.0,0.0,0.0,0.0,0.0,0.0,-2.3671,-2.4588,-2.5564,-2.6565,0.0,-2.6759,-2.709,-2.6447,-2.564,-2.4677,-2.4842,-2.4677,-2.419,-2.419,-2.434,-2.466,-2.5419,-2.5786,-2.5801,-2.5688,-2.564,-2.564,-2.564,-2.6337,-2.731,-2.731,-2.8033,-2.9005,-2.2898,0.0,-2.2557,0.0,-2.2239,-2.2009,-2.1739,-2.1306,-2.0912,-2.0718,-2.0468,-2.0255,-2.0135,-2.0124,-2.061,-2.183,-2.2491,-2.3457,-2.491,-2.5581,-2.6167,-2.6674,-2.6691,0.0,-2.779,-2.7283,-2.7672,-2.8993,-2.8653,0.0,0.0,0.0,0.0,0.0,-2.6911,-2.6996,-2.7452,-2.7165,-2.7655,-2.8619,-2.8298,-2.8268,-2.8441,-2.8441,-2.8888,-2.947,-2.8957,-2.9805,-3.1123,-3.0598,-2.9548,-2.8432,-2.8213,-2.8021,-2.7754,-2.7135,-2.7501,-2.7928,-2.7219,-2.7392,-2.7734,-2.7407,-2.7466,-2.7796,-2.8589,-2.8445,-2.8247,-2.8569,-2.8612,-2.8698,-2.9091,-2.8923,-2.8684,-2.86,0.0,0.0,0.0,0.0,0.0,0.0,0.0,-2.6251,-2.5947,0.0,0.0,0.0,0.0,0.0,0.0,-2.4943,0.0,0.0,0.0,0.0,0.0,-2.6783,-2.615,-2.4905,-2.5485,-2.5338,-2.4548,-2.4548,-2.4988,-2.5771,-2.6046,-2.6347,-2.6604,-2.6611,-2.6602,-2.6602,-2.6602,-2.709,-2.7798,-2.7798,-2.8319,-2.9005,-2.1798,-2.1186,-2.0946,-2.1605,-2.1171,-2.0942,-2.1605,-2.168,-2.1455,-2.0778,-2.1276,-2.1156,-1.9842,-1.9708,-2.0197,-2.139,-2.253,-2.3708,-2.4909,-2.6067,-2.6691,0.0,0.0,-2.7046,-2.779,-2.779,-2.8197,-2.8993,0.0,0.0,-2.8976,0.0,-2.823,-2.8908,-2.7385,-2.6691,-2.6759,-2.7486,-2.7807,-2.7874,-2.8671,-2.8993,-2.8993,-2.8993,-2.9448,-3.0089,-3.0072,-3.0565,-3.119,-3.119,-3.0683,-2.9939,-2.923,-2.8572,-2.7967,-2.7297,-2.7575,-2.785,-2.6627,-2.6704,-2.6806,-2.5545,-2.6168,-2.73,-2.8031,-2.8609,-2.8773,-2.7976,-2.8433,-2.8864,-2.8472,-2.9003,-2.9377,-2.9049,0.0,0.0,0.0,0.0,0.0,0.0,-2.6065,-2.5896,-2.6607,0.0,0.0,0.0,0.0,0.0,0.0,0.0,0.0,-2.6702,-2.7794,0.0,-2.7211,-2.7181,-2.6975,-2.6565,-2.6583,-2.6153,-2.5393,-2.5393,-2.6256,-2.7714,-2.6932,-2.7042,-2.7714,-2.6943,-2.6602,-2.6602,-2.6602,-2.709,-2.7798,-2.7798,-2.8319,-2.9005,-2.2229,-2.2224,-2.2248,-2.2892,-2.2817,-2.2757,-2.2951,-2.2658,-2.2313,-2.2104,-2.1844,-2.153,-2.1096,-2.1051,-2.1523,0.0,-2.3444,-2.4401,0.0,-2.6319,-2.6691,-2.6691,-2.6691,-2.73,-2.8586,-2.7588,-2.818,-3.0497,0.0,0.0,0.0,-2.8975,-2.8467,-2.8145,-2.7672,-2.7757,-2.8282,-2.8518,-2.9194,-3.0108,-2.9854,-3.004,-3.0441,-3.0055,-3.0306,-3.0866,-3.041,-3.0672,-3.1245,-3.1223,-3.1038,-3.0717,-2.9973,-2.9323,-2.873,-2.8098,-2.807,-2.796,-2.6756,-2.6692,-2.6586,-2.5029,-2.5828,-2.706,-2.7482,-2.8447,-2.916,-2.8837,-2.8566,-2.8469,-2.8762,-2.8371,-2.8053,-2.8166,-2.7868,0.0,0.0,0.0,0.0,0.0,0.0,-2.6437,0.0,-2.6031,0.0,0.0,0.0,0.0,0.0,0.0,0.0,0.0,-2.7045,0.0,-2.685,-2.7092,-2.6868,-2.6191,-2.7028,-2.6998,-2.6216,-2.6261,-2.6693,-2.7381,-2.7453,-2.7761,-2.8203,-2.8228,-2.8235,-2.8235,-2.8235,-2.84,-2.862,-2.862,-2.8785,-2.9005,-2.2448,-2.2508,-2.2598,-2.3445,-2.34,-2.3325,-2.3565,-2.3266,-2.2957,-2.2733,-2.2538,-2.2323,-2.2104,-2.2278,0.0,-2.3347,-2.3714,-2.4505,-2.591,-2.6279,-2.6436,-2.6436,-2.6876,-2.7619,-2.8667,0.0,0.0,-3.119,-3.0279,-3.0057,-3.0497,-2.9484,-2.8873,-2.8635,-2.806,-2.8247,-2.901,-2.9196,-2.9726,-3.0422,-3.0159,-3.0259,-3.0477,-3.0102,-3.0212,-3.0609,-3.069,-3.0803,-3.0978,-3.1466,-3.143,-3.1047,-3.0125,-2.9593,-2.924,-2.9041,-2.8694,-2.8151,-2.7123,-2.6793,-2.6386,-2.4858,-2.5419,-2.6599,-2.7517,-2.8136,-2.8577,-2.8763,-2.8602,-2.855,-2.8938,-2.8629,-2.8356,-2.8425,-2.7895,-2.7362,-2.6973,0.0,0.0,0.0,0.0,0.0,0.0,-2.6539,0.0,0.0,0.0,0.0,0.0,0.0,0.0,-2.6698,-2.6845,0.0,-2.6935,-2.7136,-2.7111,-2.6916,-2.7513,-2.7695,-2.749,-2.723,-2.7309,-2.7673,-2.7969,-2.8129,-2.8237,-2.8482,-2.8589,-2.8589,-2.8589,-2.8663,-2.8773,-2.8773,-2.8773,-2.8773,-2.2448,-2.2239,-2.2203,0.0,-2.3152,0.0,-2.3505,-2.3595,-2.3385,-2.2838,-2.3236,-2.3385,-2.2823,-2.3251,-2.3553,-2.3427,0.0,0.0,0.0,-2.5995,-2.6013,-2.6049,-2.7174,-2.7931,-2.8254,-2.9427,-3.0378,-3.1123,-3.1173,-3.119,-3.1157,-2.9738,-2.9431,-3.004,-2.8601,-2.8383,-2.9111,-2.9602,-2.9621,-2.9378,-2.9828,-2.9805,-2.9451,-2.9361,-2.9403,-2.9653,-3.0876,-3.0903,-3.0519,-3.1853,-3.1742,-3.0878,-2.9805,-2.9406,-2.9412,-2.9859,-2.9248,-2.8272,-2.7604,-2.6994,-2.6236,-2.4935,-2.5057,-2.6018,-2.7911,-2.7717,-2.7306,-2.7928,-2.8524,-2.8935,-2.887,-2.9463,-2.9798,-2.9369,-2.8425,-2.7624,-2.7296,0.0,0.0,0.0,0.0,0.0,0.0,-2.7384,-2.7536,0.0,0.0,0.0,0.0,0.0,-2.6516,-2.6759,-2.7137,-2.7326,-2.7326,-2.7357,-2.7728,-2.8389,-2.8061,-2.8282,-2.8968,-2.8164,-2.8015,-2.835,-2.8342,-2.8156,-2.7869,-2.7897,-2.7897,-2.7897,-2.7897,-2.8088,-2.8368,-2.8368,-2.8368,-2.8368,0.0,0.0,-2.3251,-2.355,-2.3475,-2.343,-2.358,-2.3595,-2.355,-2.34,-2.3505,-2.355,-2.3385,-2.3505,-2.3599,-2.3562,-2.3933,-2.4504,-2.5354,-2.5762,-2.6156,-2.6505,-2.7349,-2.8126,-2.8794,-2.9107,-2.9617,-3.0362,-3.092,-3.119,-3.1173,-3.026,-2.9939,-3.0072,-2.9736,-2.9649,-2.9888,-3.0548,-3.0794,-3.0703,-3.0352,-3.0166,-2.9995,-2.9042,-2.934,-3.0273,-3.0605,-3.06,-3.0648,-3.1879,-3.1199,-2.9848,-3.0038,-2.9451,-2.8725,-2.8853,-2.8302,-2.762,-2.7491,-2.7259,-2.6628,-2.5024,-2.5077,-2.5969,-2.7455,-2.7636,-2.7511,-2.7552,-2.8051,-2.8253,-2.7531,-2.7925,-2.813,-2.7471,-2.7131,-2.6928,-2.6858,-2.6605,0.0,0.0,-2.7046,-2.735,-2.7519,-2.7705,-2.7976,0.0,0.0,0.0,0.0,-2.8048,-2.8082,-2.7571,-2.7623,-2.7675,-2.7675,-2.7992,-2.8228,-2.8389,-2.8615,-2.8822,-2.8964,-2.8219,-2.7928,-2.7992,-2.7689,-2.7515,-2.7472,-2.7765,-2.7897,-2.7897,-2.7897,-2.7954,-2.8024,-2.8024,-2.8024,-2.8024,-2.3002,-2.337,-2.3595,-2.3595,-2.3595,-2.3595,-2.3595,-2.3595,-2.3595,-2.3595,-2.3595,-2.3595,-2.3595,-2.3595,-2.3595,-2.3595,-2.3879,-2.4369,-2.5163,-2.5791,-2.6161,-2.6244,-2.7801,-2.8728,-2.8851,-2.9604,-3.0192,-3.0598,-3.1004,-3.119,-3.1173,-3.0446,-3.0294,-3.0598,-3.026,-3.0294,-3.0632,-3.1021,-3.119,-3.1112,-3.0043,-2.9546,-2.9384,-2.8424,-2.8549,-2.9307,-3.0206,-3.0143,-2.984,-3.1407,-3.0821,-2.9406,-2.9451,-2.9035,-2.8439,-2.8165,-2.7808,-2.749,-2.7504,-2.7217,-2.6603,-2.5364,-2.557,-2.6243,-2.6986,-2.7091,-2.7137,-2.7365,-2.811,-2.8554,-2.805,-2.8169,-2.8213,-2.7825,-2.7165,-2.6691,-2.6691,-2.6691,0.0,-2.7165,-2.7553,-2.7942,-2.8315,-2.8401,-2.8598,-2.8975,0.0,0.0,-2.8365,-2.9076,-2.8991,-2.7841,-2.8145,-2.8349,-2.8349,-2.8716,-2.8901,-2.8906,-2.9539,-2.9528,-2.8979,-2.8775,-2.8482,-2.81,-2.7535,-2.7384,-2.7516,-2.7395,-2.7348,-2.7348,-2.7348,-2.7454,-2.7636,-2.7636,-2.7636,-2.7636,-2.3266,-2.3535,-2.3595,-2.3595,-2.3595,-2.3595,-2.3595,-2.3595,-2.3595,-2.3595,-2.3595,-2.3595,-2.3595,-2.3595,-2.3638,-2.3709,-2.3709,-2.4137,-2.5144,-2.5972,-2.6296,-2.6032,-2.8431,-2.9492,-2.8929,-3.0412,-3.119,-3.119,-3.119,-3.119,-3.119,-3.0565,-3.0598,-3.1173,-3.0548,-3.0615,-3.119,-3.119,-3.119,-3.1075,-2.9613,-2.888,-2.8583,-2.7968,-2.7735,-2.8001,-2.9924,-2.9695,-2.8804,-3.0839,-3.0425,-2.9042,-2.8614,-2.8439,-2.8262,-2.776,-2.76,-2.759,-2.7525,-2.7066,-2.6482,-2.6019,-2.6243,-2.6641,-2.6746,-2.6654,-2.6742,-2.7311,-2.8385,-2.9198,-2.9083,-2.9018,-2.8993,-2.8993,-2.7723,-2.6725,-2.6843,0.0,-2.7148,-2.7891,-2.8179,-2.8586,-2.9264,-2.9438,-2.9459,-2.9345,-2.9919,-2.9959,-2.9211,-2.9871,-2.9599,-2.8196,-2.8805,-2.9179,-2.9179,-2.9385,-2.9505,-2.9505,-3.0308,-3.0162,-2.9177,-2.9465,-2.9201,-2.8519,-2.7726,-2.7535,-2.7739,-2.6996,-2.6691,-2.6691,-2.6691,-2.6906,-2.721,-2.721,-2.721,-2.721,-2.2897,-2.3236,-2.3595,-2.3595,-2.3595,-2.3595,-2.3595,-2.3595,-2.3595,-2.3595,-2.3595,-2.3595,-2.3595,-2.3595,-2.3773,-2.4241,-2.4266,-2.4552,-2.5163,-2.6317,-2.7127,-2.7463,-2.9122,-2.9983,-2.9871,-3.0762,-3.119,-3.119,-3.119,-3.119,-3.119,-3.1072,-3.1089,-3.119,-3.1072,-3.1089,-3.119,-3.119,-3.119,-3.1131,-3.0356,-2.9739,-2.918,-2.8606,-2.8383,-2.8636,-3.0068,-2.9741,-2.8879,-3.0852,-2.989,-2.7944,-2.8367,-2.814,-2.771,-2.7625,-2.76,-2.7595,-2.759,-2.7105,-2.6692,-2.718,-2.6941,-2.6761,-2.7315,-2.7435,-2.7425,-2.7545,-2.8537,-2.9187,-2.8554,-2.8748,-2.8993,-2.8993,-2.7723,-2.6911,-2.7536,0.0,-2.7908,-2.8722,-2.9905,-3.0717,-3.0835,-3.0895,-3.0875,-3.0852,-3.0403,-3.0063,-2.9937,-3.0632,-3.0632,-2.9768,-2.9871,-2.9939,-2.9939,-2.9643,-2.9505,-2.9505,-2.998,-3.0115,-2.9929,-2.9643,-2.9448,-2.9281,-2.8186,-2.7758,-2.7739,-2.6996,-2.6691,-2.6691,-2.6691,-2.6741,-2.6791,-2.6791,-2.6791,-2.6791,-2.3182,-2.34,-2.3595,-2.3595,-2.3595,-2.3595,-2.3595,-2.3595,-2.3595,-2.3595,-2.3595,-2.3595,-2.3595,-2.3858,-2.4012,-2.397,-2.4491,-2.4796,-2.4756,-2.6306,-2.7682,-2.8769,-2.9607,-2.984,-2.9404,-3.0253,-3.072,-3.072,-3.1035,-3.119,-3.119,-3.0784,-3.0615,-3.0615,-3.0615,-3.0835,-3.119,-3.119,-3.119,-3.1151,-3.0539,-2.9935,-2.9339,-2.8732,-2.8314,-2.818,-2.9173,-2.8888,-2.8231,-2.9515,-2.89,-2.765,-2.7919,-2.7835,-2.76,-2.76,-2.76,-2.76,-2.76,-2.7375,-2.721,-2.7525,-2.736,-2.7225,-2.7525,-2.76,-2.7705,-2.8053,-2.8556,-2.9012,-2.938,-2.8915,-2.876,-2.9479,-2.796,0.0,0.0,-2.7906,-2.8322,-2.9549,-3.0612,-3.1403,-3.1762,-3.1506,-3.1277,-3.1205,-3.0949,-3.0774,-3.0697,-3.1396,-3.1444,-3.0717,-3.0683,-3.0683,-3.0683,-3.0519,-3.0407,-3.0425,-3.0855,-3.0733,-3.0093,-3.0128,-3.0023,-2.9757,-2.8386,-2.828,-2.8922,-2.7351,-2.7182,-2.7859,-2.7029,-2.6945,-2.7232,-2.6843,-2.6691,-2.6691,-2.3505,-2.3595,-2.3595,-2.3595,-2.3595,-2.3595,-2.3595,-2.3595,-2.3638,-2.3773,-2.3794,-2.3837,-2.3964,-2.4348,-2.443,-2.4012,-2.4716,-2.5028,-2.4612,-2.6162,-2.7687,-2.909,-2.9596,-2.9569,-2.8957,-2.9695,-3.0166,-3.0293,-3.0898,-3.119,-3.1173,-3.0378,-3.0049,-3.0135,-2.9967,-3.0211,-3.0797,-3.0918,-3.0995,-3.0958,-3.0638,-3.0043,-2.9361,-2.8896,-2.8247,-2.7705,-2.8558,-2.8319,-2.772,-2.8547,-2.8289,-2.76,-2.76,-2.76,-2.76,-2.76,-2.7685,-2.7785,-2.765,-2.76,-2.76,-2.76,-2.76,-2.76,-2.76,-2.76,-2.7794,-2.8457,-2.8677,-2.9067,-3.0187,-2.9399,-2.8983,-3.0164,0.0,0.0,0.0,-2.8394,-2.8907,-3.0179,-3.1199,-3.1957,-3.2278,-3.2205,-3.1938,-3.1492,-3.1717,-3.1759,-3.1458,-3.2175,-3.2226,-3.1481,-3.1275,-3.1275,-3.1444,-3.1275,-3.119,-3.121,-3.156,-3.125,-3.0381,-3.0671,-3.0651,-3.0294,-2.8922,-2.9007,-2.9956,-2.8027,-2.7943,-2.8874,-2.7706,-2.7469,-2.7739,-2.7165,-2.6843,-2.6691,-2.3595,-2.3595,-2.3595,-2.3595,-2.3595,-2.3595,-2.3595,-2.3595,-2.3773,-2.4266,-2.4348,-2.4532,-2.5028,-2.5125,-2.5125,-2.5086,-2.5147,-2.5182,-2.5144,-2.5968,-2.6773,-2.7446,-2.8736,-2.9429,-2.9361,-2.9429,-2.9739,-3.0293,-3.0898,-3.119,-3.1173,-3.0194,-2.9925,-3.0257,-2.958,-2.9373,-2.9563,-3.0123,-3.0372,-3.0414,-3.0918,-3.0435,-2.9406,-2.9361,-2.8614,-2.7764,-2.9067,-2.8708,-2.7794,-2.9097,-2.8678,-2.76,-2.76,-2.76,-2.76,-2.76,-2.7993,-2.8295,-2.776,-2.76,-2.76,-2.76,-2.76,-2.76,-2.76,-2.76,-2.7794,-2.8457,-2.9058,-2.9628,-3.0282,-3.0226,-3.0282,-3.0991,0.0,0.0,-2.9105,-2.9633,-3.0125,-3.0355,-3.215,-3.3087,-3.2451,-3.3528,-3.3706,-3.2327,-3.2857,-3.2942,-3.2259,-3.2916,-3.2983,-3.2242,-3.1565,-3.1532,-3.2209,-3.1529,-3.119,-3.119,-3.123,-3.1213,-3.1106,-3.1145,-3.1145,-3.1072,-3.0277,-3.0006,-3.0021,-2.9179,-2.8891,-2.8993,-2.8874,-2.8416,-2.779,-2.7739,-2.73,-2.6691,-2.3595,-2.3595,-2.3595,-2.3595,-2.3595,-2.3595,-2.3595,-2.3947,-2.4428,-2.5019,-2.504,-2.5404,-2.6451,-2.613,-2.587,-2.5994,-2.5586,-2.5186,-2.4844,-2.5111,-2.5948,-2.7418,-2.8358,-2.8662,-2.828,-2.8662,-2.895,-2.918,-2.9783,-3.0288,-3.0621,-2.9412,-2.8886,-2.8999,-2.8737,-2.8447,-2.818,-2.9264,-2.9739,-2.9761,-2.9995,-2.9585,-2.885,-2.885,-2.8319,-2.772,-2.8663,-2.8636,-2.8244,-2.8793,-2.8621,-2.8091,-2.771,-2.76,-2.76,-2.76,-2.8018,-2.8439,-2.8238,-2.8165,-2.8165,-2.8165,-2.7885,-2.76,-2.76,-2.7929,-2.8397,-2.9071,-2.9403,-3.0001,-3.145,-3.0947,-3.0669,-3.1709,0.0,-3.0269,-2.9973,-3.0522,-3.0998,-3.1127,-3.2193,-3.2976,-3.3076,-3.3557,-3.364,-3.303,-3.366,-3.3761,-3.3017,-3.3254,-3.3474,-3.3664,-3.2513,-3.1802,-3.1633,-3.1326,-3.119,-3.119,-3.119,-3.119,-3.119,-3.119,-3.119,-3.1157,-3.0429,-3.0362,-3.0683,-2.9501,-2.9551,-3.0209,-2.8805,-2.8383,-2.8484,-2.7976,-2.7317,-2.6759,-2.3595,-2.3595,-2.3595,-2.3595,-2.3595,-2.3595,-2.3595,-2.4156,-2.4814,-2.5385,-2.5763,-2.633,-2.723,-2.7021,-2.67,-2.6492,-2.5809,-2.5157,-2.465,-2.4799,-2.56,-2.7121,-2.7856,-2.8018,-2.7625,-2.7993,-2.8295,-2.8487,-2.8919,-2.9429,-2.9983,-2.8619,-2.7976,-2.7984,-2.7779,-2.7482,-2.7171,-2.8553,-2.9111,-2.9134,-2.9316,-2.9042,-2.8487,-2.8487,-2.8253,-2.7974,-2.8427,-2.8696,-2.8853,-2.8859,-2.8733,-2.8455,-2.802,-2.776,-2.76,-2.76,-2.8149,-2.8779,-2.8779,-2.8779,-2.8748,-2.8559,-2.8042,-2.76,-2.76,-2.7959,-2.8558,-2.9427,-2.9606,-3.0202,-3.213,-3.1701,-3.1413,-3.2479,-3.2222,-3.1629,-3.0842,-3.1318,-3.1618,-3.1289,-3.2033,-3.2667,-3.2812,-3.325,-3.3501,-3.3433,-3.3907,-3.4084,-3.3778,-3.3565,-3.3753,-3.4472,-3.3321,-3.2207,-3.1271,-3.1213,-3.119,-3.119,-3.119,-3.119,-3.119,-3.119,-3.119,-3.1157,-3.0666,-3.0734,-3.1106,-3.011,-3.0296,-3.1038,-2.9482,-2.9059,-2.9279,-2.872,-2.7891,-2.7148,-2.3595,-2.3595,-2.3595,-2.3595,-2.3595,-2.3595,-2.3595,-2.4171,-2.4791,-2.533,-2.6525,-2.7269,-2.7222,-2.7737,-2.7636,-2.6525,-2.5796,-2.5173,-2.465,-2.5217,-2.5794,-2.6267,-2.7121,-2.76,-2.76,-2.76,-2.7894,-2.8487,-2.8487,-2.8803,-2.9352,-2.7966,-2.7363,-2.7457,-2.6731,-2.6466,-2.6681,-2.7946,-2.8487,-2.8559,-2.9134,-2.9035,-2.8487,-2.8487,-2.8534,-2.8607,-2.8607,-2.9052,-2.9609,-2.9531,-2.9103,-2.8602,-2.8526,-2.8091,-2.76,-2.76,-2.8448,-2.9406,-2.9406,-2.9406,-2.9248,-2.8677,-2.8042,-2.76,-2.76,-2.76,-2.7989,-2.9337,-2.9621,-3.0217,-3.2146,-3.2499,-3.27,-3.3295,-3.3423,-3.2966,-3.1701,-3.2101,-3.2017,-3.0674,-3.1748,-3.228,-3.15,-3.2756,-3.3571,-3.3517,-3.3574,-3.3912,-3.4552,-3.3893,-3.3808,-3.4467,-3.3838,-3.283,-3.1424,-3.1267,-3.119,-3.119,-3.119,-3.119,-3.119,-3.119,-3.119,-3.119,-3.119,-3.119,-3.119,-3.119,-3.119,-3.119,-3.119,-3.0751,-3.0108,-3.0108,-2.9125,-2.7925,-2.3595,-2.3595,-2.3595,-2.3595,-2.3595,-2.3595,-2.3595,-2.4582,-2.5492,-2.6112,-2.6863,-2.7733,-2.8646,-2.805,-2.7682,-2.786,-2.6871,-2.5763,-2.4664,-2.4784,-2.533,-2.6252,-2.7121,-2.76,-2.76,-2.76,-2.7685,-2.7885,-2.7885,-2.8189,-2.874,-2.7411,-2.6796,-2.6805,-2.661,-2.6305,-2.5974,-2.7303,-2.7885,-2.787,-2.8052,-2.8042,-2.7885,-2.7885,-2.8172,-2.8667,-2.9131,-2.9705,-3.0215,-3.0224,-2.9772,-2.9052,-2.8171,-2.7735,-2.76,-2.76,-2.8448,-2.9406,-2.9406,-2.9717,-2.9908,-2.9271,-2.8352,-2.76,-2.76,-2.7974,-2.8532,-2.9427,-3.0357,-3.1471,-3.2997,-3.3655,-3.4008,-3.4139,-3.4624,-3.4303,-3.2449,-3.2821,-3.2751,-3.1381,-3.1562,-3.2124,-3.2866,-3.3326,-3.3981,-3.4906,-3.4549,-3.4382,-3.4576,-3.3941,-3.3655,-3.3852,-3.3169,-3.2611,-3.2176,-3.1616,-3.1079,-3.0559,-3.0145,-3.0166,-3.0559,-3.0559,-3.0559,-3.0559,-3.0559,-3.0559,-3.0539,-3.0123,-3.0187,-3.051,-2.9995,-2.9914,-3.0108,-3.0108,-2.9482,-2.8738,-2.3595,-2.3595,-2.3595,-2.3595,-2.3595,-2.3595,-2.3595,-2.4747,-2.574,-2.6107,-2.6895,-2.776,-2.8592,-2.7946,-2.7635,-2.8103,-2.695,-2.5869,-2.5053,-2.4754,-2.5128,-2.6372,-2.718,-2.76,-2.76,-2.76,-2.76,-2.76,-2.76,-2.7785,-2.8125,-2.6811,-2.6171,-2.6145,-2.6193,-2.5974,-2.5689,-2.7031,-2.76,-2.76,-2.76,-2.76,-2.76,-2.76,-2.8019,-2.8652,-2.9056,-2.9758,-3.0502,-3.0506,-3.0046,-2.9308,-2.8313,-2.7809,-2.76,-2.76,-2.8295,-2.9104,-2.9339,-2.9673,-2.9848,-2.9496,-2.867,-2.7894,-2.7635,-2.8113,-2.8865,-2.98,-3.0852,-3.2081,-3.3707,-3.4333,-3.4658,-3.4885,-3.5318,-3.4988,-3.3189,-3.3326,-3.3077,-3.1653,-3.1511,-3.1951,-3.3077,-3.3209,-3.3547,-3.435,-3.4284,-3.4087,-3.3811,-3.3401,-3.3339,-3.3582,-3.2917,-3.2404,-3.2161,-3.171,-3.1222,-3.0678,-3.0361,-3.0245,-3.0309,-3.0332,-3.0174,-2.9935,-2.9935,-2.9935,-2.993,-2.9563,-2.9761,-3.026,-2.9815,-2.9992,-3.0548,-3.0548,-3.0074,-2.9533,-2.3595,-2.3595,-2.3595,-2.3595,-2.3595,-2.3595,-2.3595,-2.4747,-2.5615,-2.5615,-2.6703,-2.7517,-2.76,-2.7551,-2.7532,-2.759,-2.6363,-2.5585,-2.5555,-2.4889,-2.5098,-2.6437,-2.7106,-2.748,-2.76,-2.76,-2.76,-2.76,-2.76,-2.76,-2.757,-2.6258,-2.5659,-2.5659,-2.5585,-2.56,-2.5749,-2.7061,-2.76,-2.76,-2.76,-2.76,-2.76,-2.76,-2.8019,-2.8607,-2.8667,-2.9475,-3.0486,-3.0451,-2.9965,-2.931,-2.8684,-2.8094,-2.76,-2.76,-2.8018,-2.863,-2.9225,-2.9499,-2.957,-2.9502,-2.9131,-2.8585,-2.7841,-2.8214,-2.9056,-3.0325,-3.1166,-3.2273,-3.4154,-3.46,-3.4894,-3.5492,-3.56,-3.5138,-3.3786,-3.3582,-3.3093,-3.1743,-3.154,-3.1811,-3.2582,-3.2734,-3.2804,-3.2866,-3.3372,-3.3425,-3.2784,-3.2655,-3.2881,-3.3471,-3.2846,-3.2211,-3.1592,-3.1592,-3.147,-3.122,-3.1246,-3.0924,-3.0315,-3.0392,-3.009,-2.9507,-2.9507,-2.9507,-2.9485,-2.9439,-2.973,-3.0243,-3.0286,-3.0647,-3.1131,-3.1171,-3.0768,-3.0275,-2.3595,-2.3595,-2.3595,-2.3595,-2.3595,-2.3595,-2.3595,-2.4747,-2.5615,-2.5615,-2.6763,-2.7595,-2.761,-2.759,-2.757,-2.761,-2.6363,-2.5465,-2.5144,-2.4298,-2.4418,-2.5764,-2.5959,-2.6512,-2.757,-2.76,-2.76,-2.76,-2.76,-2.76,-2.757,-2.6596,-2.6147,-2.6117,-2.5428,-2.5503,-2.6207,-2.718,-2.76,-2.76,-2.76,-2.76,-2.76,-2.76,-2.8019,-2.8667,-2.919,-2.9864,-3.043,-2.9964,-2.9354,-2.8669,-2.8025,-2.772,-2.76,-2.76,-2.8018,-2.863,-2.9225,-3.0166,-3.0854,-3.0314,-3.0521,-3.0415,-2.8757,-2.8891,-2.9604,-3.0368,-3.1503,-3.2691,-3.3632,-3.4681,-3.5447,-3.5577,-3.56,-3.5138,-3.3786,-3.3582,-3.3266,-3.2404,-3.1824,-3.1992,-3.3187,-3.3826,-3.4387,-3.4904,-3.456,-3.4234,-3.4107,-3.3086,-3.2595,-3.2725,-3.2096,-3.1679,-3.1528,-3.1528,-3.1247,-3.0685,-3.0211,-3.0145,-3.0465,-3.0473,-3.0407,-3.0267,-3.0267,-3.0267,-3.0217,-2.9756,-2.9597,-2.9721,-3.0199,-3.044,-3.0539,-3.1035,-3.1089,-3.097,-2.4007,-2.4066,-2.4193,-2.4507,-2.4552,-2.4552,-2.4552,-2.5151,-2.5719,-2.6033,-2.6408,-2.6896,-2.7525,-2.7315,-2.7255,-2.757,-2.6686,-2.5839,-2.5323,-2.4822,-2.4732,-2.5098,-2.5749,-2.6393,-2.7121,-2.7435,-2.76,-2.76,-2.76,-2.76,-2.7585,-2.6806,-2.6447,-2.6432,-2.5967,-2.6012,-2.6492,-2.727,-2.76,-2.76,-2.76,-2.76,-2.76,-2.76,-2.7824,-2.8233,-2.9247,-2.9983,-3.0447,-3.0133,-2.9385,-2.8532,-2.8173,-2.7869,-2.76,-2.76,-2.7835,-2.8271,-2.9157,-2.9941,-3.0493,-3.0423,-3.0925,-3.1035,-2.9429,-2.9564,-3.0322,-3.1297,-3.2341,-3.3376,-3.4382,-3.5439,-3.618,-3.618,-3.618,-3.5673,-3.4301,-3.4094,-3.3664,-3.263,-3.2452,-3.2868,-3.3882,-3.4338,-3.4719,-3.5068,-3.4426,-3.4028,-3.4028,-3.3352,-3.2841,-3.2497,-3.2153,-3.1824,-3.1511,-3.1511,-3.1308,-3.0958,-3.0659,-3.0504,-3.0505,-3.049,-3.0342,-3.0068,-3.0068,-3.0068,-3.0042,-2.9726,-2.9557,-2.9518,-2.9861,-3.0122,-3.0335,-3.0658,-3.0938,-3.119,-2.4321,-2.453,-2.4784,-2.5322,-2.5516,-2.557,-2.5442,-2.554,-2.5764,-2.6198,-2.5974,-2.6198,-2.7315,-2.7046,-2.7001,-2.754,-2.7001,-2.6273,-2.5555,-2.557,-2.5337,-2.4799,-2.5959,-2.6632,-2.6776,-2.7315,-2.76,-2.76,-2.76,-2.76,-2.7585,-2.7031,-2.6752,-2.6752,-2.6752,-2.6752,-2.6821,-2.736,-2.76,-2.76,-2.76,-2.76,-2.76,-2.76,-2.766,-2.7929,-2.9037,-2.9744,-3.0178,-3.0178,-2.94,-2.8427,-2.8427,-2.8064,-2.76,-2.76,-2.76,-2.7845,-2.895,-2.9375,-2.9672,-3.0275,-3.0917,-3.1171,-3.0162,-3.0313,-3.0991,-3.2159,-3.3055,-3.3986,-3.5235,-3.6194,-3.6846,-3.6981,-3.6998,-3.6482,-3.5068,-3.4814,-3.4294,-3.2991,-3.3335,-3.3879,-3.4433,-3.4594,-3.467,-3.4661,-3.4258,-3.3968,-3.3844,-3.3724,-3.341,-3.2871,-3.2736,-3.2392,-3.1854,-3.1735,-3.1675,-3.1675,-3.1555,-3.1222,-3.0668,-3.0666,-3.0486,-3.0126,-2.9963,-2.9991,-3.0084,-2.9963,-2.9811,-2.9658,-2.9676,-2.9935,-3.0353,-3.0586,-3.0817,-3.1072,-2.3729,-2.4201,-2.4634,-2.4724,-2.5202,-2.5397,-2.4829,-2.5217,-2.5412,-2.4933,-2.5809,-2.6527,-2.6731,-2.718,-2.7495,-2.7585,-2.7001,-2.6177,-2.5144,-2.5405,-2.557,-2.548,-2.6198,-2.6881,-2.745,-2.754,-2.76,-2.76,-2.76,-2.76,-2.76,-2.751,-2.7465,-2.7465,-2.7465,-2.7465,-2.7465,-2.7555,-2.76,-2.76,-2.76,-2.76,-2.76,-2.76,-2.7959,-2.8487,-2.8667,-2.8786,-2.8861,-2.8861,-2.8378,-2.7735,-2.7735,-2.7675,-2.76,-2.76,-2.76,-2.776,-2.8439,-2.9088,-2.9716,-3.0322,-3.1042,-3.1516,-3.1293,-3.1316,-3.1419,-3.1603,-3.271,-3.3851,-3.4659,-3.5909,-3.7015,-3.7652,-3.7753,-3.7227,-3.5782,-3.5566,-3.5235,-3.4345,-3.4324,-3.44,-3.4479,-3.5064,-3.5431,-3.5353,-3.5859,-3.589,-3.5252,-3.4666,-3.4339,-3.4249,-3.3664,-3.332,-3.323,-3.2662,-3.2348,-3.2348,-3.178,-3.1463,-3.1369,-3.1345,-3.1656,-3.216,-3.1524,-3.1609,-3.2133,-3.1511,-3.0894,-3.037,-3.035,-3.0416,-3.0597,-3.17,-3.1402,-3.0597,-2.4081,-2.4694,-2.5146,-2.5116,-2.6001,-2.648,-2.5766,-2.5932,-2.6183,-2.6258,-2.6452,-2.6746,-2.7121,-2.742,-2.76,-2.76,-2.733,-2.6956,-2.6477,-2.6162,-2.5704,-2.5068,-2.6393,-2.6956,-2.6482,-2.7225,-2.76,-2.76,-2.76,-2.76,-2.76,-2.76,-2.76,-2.76,-2.76,-2.76,-2.76,-2.76,-2.76,-2.76,-2.76,-2.76,-2.7645,-2.8019,-2.8338,-2.8652,-2.9011,-2.8906,-2.8607,-2.8607,-2.8143,-2.76,-2.76,-2.76,-2.76,-2.76,-2.7869,-2.8282,-2.8889,-2.9582,-3.0258,-3.0849,-3.1278,-3.1637,-3.1987,-3.2049,-3.209,-3.2112,-3.2906,-3.3935,-3.5054,-3.6446,-3.7652,-3.8396,-3.8514,-3.8162,-3.713,-3.6577,-3.5962,-3.5142,-3.5055,-3.5055,-3.5055,-3.5722,-3.5984,-3.5539,-3.6196,-3.6275,-3.5537,-3.522,-3.4876,-3.4518,-3.4219,-3.3858,-3.3499,-3.3215,-3.3066,-3.3066,-3.2766,-3.2407,-3.2049,-3.1675,-3.2091,-3.3085,-3.2397,-3.2299,-3.2559,-3.2244,-3.1473,-3.0505,-3.0507,-3.0261,-3.0089,-3.1358,-3.0969,-2.994]},{"header":{"parameterUnit":"m.s-1","parameterCategory":1,"la1":30.6,"la2":28.766,"lo1":-90.7593,"lo2":-88.6598,"dy":0.0162,"dx":0.0183,"nx":116,"ny":114,"refTime":"2023-02-24T06:00:00:Z","depth":0,"parameterNumber":3,"parameterNumberName":"V-component_of_WINDS"},"data":[0.0,0.0,0.0,0.0,0.0,0.0,0.0,0.0,0.0,0.0,0.0,0.0,0.0,0.0,0.0,0.0,0.0,0.0,0.0,0.0,0.0,0.0,0.0,0.0,0.0,0.0,0.0,0.0,0.0,0.0,0.0,0.0,0.0,0.0,0.0,0.0,0.0,0.0,0.0,0.0,0.0,0.0,0.0,0.0,0.0,0.0,0.0,0.0,0.0,0.0,0.0,0.0,0.0,0.0,0.0,0.0,0.0,0.0,0.0,0.0,0.0,0.0,0.0,0.0,0.0,0.0,0.0,0.0,0.0,0.0,0.0,0.0,0.0,0.0,0.0,0.0,0.0,0.0,0.0,0.0,0.0,0.0,0.0,0.0,0.0,0.0,0.0,0.0,0.0,0.0,0.0,0.0,0.0,0.0,0.0,0.0,0.0,0.0,0.0,0.0,0.0,0.0,0.0,0.0,0.0,0.0,0.0,0.0,0.0,0.0,0.0,0.0,0.0,0.0,0.0,0.0,0.0,0.0,0.0,0.0,0.0,0.0,0.0,0.0,0.0,0.0,0.0,0.0,0.0,0.0,0.0,0.0,0.0,0.0,0.0,0.0,0.0,0.0,0.0,0.0,0.0,0.0,0.0,0.0,0.0,0.0,0.0,0.0,0.0,0.0,0.0,0.0,0.0,0.0,0.0,0.0,0.0,0.0,0.0,0.0,0.0,0.0,0.0,0.0,0.0,0.0,0.0,0.0,0.0,0.0,0.0,0.0,0.0,0.0,0.0,0.0,0.0,0.0,0.0,0.0,0.0,0.0,0.0,0.0,0.0,0.0,0.0,0.0,0.0,0.0,0.0,0.0,0.0,0.0,0.0,0.0,0.0,0.0,0.0,0.0,0.0,0.0,0.0,0.0,0.0,0.0,0.0,0.0,0.0,0.0,0.0,0.0,0.0,0.0,0.0,0.0,0.0,0.0,0.0,0.0,0.0,0.0,0.0,0.0,0.0,0.0,0.0,0.0,0.0,0.0,0.0,0.0,0.0,0.0,0.0,0.0,0.0,0.0,0.0,0.0,0.0,0.0,0.0,0.0,0.0,0.0,0.0,0.0,0.0,0.0,0.0,0.0,0.0,0.0,0.0,0.0,0.0,0.0,0.0,0.0,0.0,0.0,0.0,0.0,0.0,0.0,0.0,0.0,0.0,0.0,0.0,0.0,0.0,0.0,0.0,0.0,0.0,0.0,0.0,0.0,0.0,0.0,0.0,0.0,0.0,0.0,0.0,0.0,0.0,0.0,0.0,0.0,0.0,0.0,0.0,0.0,0.0,0.0,0.0,0.0,0.0,0.0,0.0,0.0,0.0,0.0,0.0,0.0,0.0,0.0,0.0,0.0,0.0,0.0,0.0,0.0,0.0,0.0,0.0,0.0,0.0,0.0,0.0,0.0,0.0,0.0,0.0,0.0,0.0,0.0,0.0,0.0,0.0,0.0,0.0,0.0,0.0,0.0,0.0,0.0,0.0,0.0,0.0,0.0,0.0,0.0,0.0,0.0,0.0,0.0,0.0,0.0,0.0,0.0,0.0,0.0,0.0,0.0,0.0,0.0,0.0,0.0,0.0,0.0,0.0,0.0,0.0,0.0,0.0,0.0,0.0,0.0,0.0,0.0,0.0,0.0,0.0,0.0,0.0,0.0,0.0,0.0,0.0,0.0,0.0,0.0,0.0,0.0,0.0,0.0,0.0,0.0,0.0,0.0,0.0,0.0,0.0,0.0,0.0,0.0,0.0,0.0,0.0,0.0,0.0,0.0,0.0,0.0,0.0,0.0,0.0,0.0,0.0,0.0,0.0,0.0,0.0,0.0,0.0,0.0,0.0,0.0,0.0,0.0,0.0,0.0,0.0,0.0,0.0,0.0,0.0,0.0,0.0,0.0,0.0,0.0,0.0,0.0,0.0,0.0,0.0,0.0,0.0,0.0,0.0,0.0,0.0,0.0,0.0,0.0,0.0,0.0,0.0,0.0,0.0,0.0,0.0,0.0,0.0,0.0,0.0,0.0,0.0,0.0,0.0,0.0,0.0,0.0,0.0,0.0,0.0,0.0,0.0,0.0,0.0,0.0,0.0,0.0,0.0,0.0,0.0,0.0,0.0,0.0,0.0,0.0,0.0,0.0,0.0,0.0,0.0,0.0,0.0,0.0,0.0,0.0,0.0,0.0,0.0,0.0,0.0,0.0,0.0,0.0,0.0,0.0,0.0,0.0,0.0,0.0,0.0,0.0,0.0,0.0,0.0,0.0,0.0,0.0,0.0,0.0,0.0,0.0,0.0,0.0,0.0,0.0,0.0,0.0,0.0,0.0,0.0,0.0,0.0,0.0,0.0,0.0,0.0,0.0,0.0,0.0,0.0,0.0,0.0,0.0,0.0,0.0,0.0,0.0,0.0,0.0,0.0,0.0,0.0,0.0,0.0,0.0,0.0,0.0,0.0,0.0,0.0,0.0,0.0,0.0,0.0,0.0,0.0,0.0,0.0,0.0,0.0,0.0,0.0,0.0,0.0,0.0,0.0,0.0,0.0,0.0,0.0,0.0,0.0,0.0,0.0,0.0,0.0,0.0,0.0,0.0,0.0,0.0,0.0,0.0,0.0,0.0,0.0,0.0,0.0,0.0,0.0,0.0,0.0,0.0,0.0,0.0,0.0,0.0,0.0,0.0,0.0,0.0,0.0,0.0,0.0,0.0,0.0,0.0,0.0,0.0,0.0,0.0,0.0,0.0,0.0,0.0,0.0,0.0,0.0,0.0,0.0,0.0,0.0,0.0,0.0,0.0,0.0,0.0,0.0,0.0,0.0,0.0,0.0,0.0,0.0,0.0,0.0,0.0,0.0,0.0,0.0,0.0,0.0,0.0,0.0,0.0,0.0,0.0,0.0,0.0,0.0,0.0,0.0,0.0,0.0,0.0,0.0,0.0,0.0,0.0,0.0,0.0,0.0,0.0,0.0,0.0,0.0,0.0,0.0,0.0,0.0,0.0,0.0,0.0,0.0,0.0,0.0,0.0,0.0,0.0,0.0,0.0,0.0,0.0,0.0,0.0,0.0,0.0,0.0,0.0,0.0,0.0,0.0,0.0,0.0,0.0,0.0,0.0,0.0,0.0,0.0,0.0,0.0,0.0,0.0,0.0,0.0,0.0,0.0,0.0,0.0,0.0,0.0,0.0,0.0,0.0,0.0,0.0,0.0,0.0,0.0,0.0,0.0,0.0,0.0,0.0,0.0,0.0,0.0,0.0,0.0,0.0,0.0,0.0,0.0,0.0,0.0,0.0,0.0,0.0,0.0,0.0,0.0,0.0,0.0,0.0,0.0,0.0,0.0,0.0,0.0,0.0,0.0,0.0,0.0,0.0,0.0,0.0,0.0,0.0,0.0,0.0,0.0,0.0,0.0,0.0,0.0,0.0,0.0,0.0,0.0,0.0,0.0,0.0,0.0,0.0,0.0,0.0,0.0,0.0,0.0,0.0,0.0,0.0,0.0,0.0,0.0,0.0,0.0,0.0,0.0,0.0,0.0,0.0,0.0,0.0,0.0,0.0,0.0,0.0,0.0,0.0,0.0,0.0,0.0,0.0,0.0,0.0,0.0,0.0,0.0,0.0,0.0,0.0,0.0,0.0,0.0,0.0,0.0,0.0,0.0,0.0,0.0,0.0,0.0,0.0,0.0,0.0,0.0,0.0,0.0,0.0,0.0,0.0,0.0,0.0,0.0,0.0,0.0,0.0,0.0,0.0,0.0,0.0,0.0,0.0,0.0,0.0,0.0,0.0,0.0,0.0,0.0,0.0,0.0,0.0,0.0,0.0,0.0,0.0,0.0,0.0,0.0,0.0,0.0,0.0,0.0,0.0,0.0,0.0,0.0,0.0,0.0,0.0,0.0,0.0,0.0,0.0,0.0,0.0,0.0,0.0,0.0,0.0,0.0,0.0,0.0,0.0,0.0,0.0,0.0,0.0,0.0,0.0,0.0,0.0,0.0,0.0,0.0,0.0,0.0,0.0,0.0,0.0,0.0,0.0,0.0,0.0,0.0,0.0,0.0,0.0,0.0,0.0,0.0,0.0,0.0,0.0,0.0,0.0,0.0,0.0,0.0,0.0,0.0,0.0,0.0,0.0,0.0,0.0,0.0,0.0,0.0,0.0,0.0,0.0,0.0,0.0,0.0,0.0,0.0,0.0,0.0,0.0,0.0,0.0,0.0,0.0,0.0,0.0,0.0,0.0,0.0,0.0,0.0,0.0,0.0,0.0,0.0,0.0,0.0,0.0,0.0,0.0,0.0,0.0,0.0,0.0,0.0,0.0,0.0,0.0,0.0,0.0,0.0,0.0,0.0,0.0,0.0,0.0,0.0,0.0,0.0,0.0,0.0,0.0,0.0,0.0,0.0,0.0,0.0,0.0,0.0,0.0,0.0,0.0,0.0,0.0,0.0,0.0,0.0,0.0,0.0,0.0,0.0,0.0,0.0,0.0,0.0,0.0,0.0,0.0,0.0,0.0,0.0,0.0,0.0,0.0,0.0,0.0,0.0,0.0,0.0,0.0,0.0,0.0,0.0,0.0,0.0,0.0,0.0,0.0,0.0,0.0,0.0,0.0,0.0,0.0,0.0,0.0,0.0,0.0,0.0,0.0,0.0,0.0,0.0,0.0,0.0,0.0,0.0,0.0,0.0,0.0,0.0,0.0,0.0,0.0,0.0,0.0,0.0,0.0,0.0,0.0,0.0,0.0,0.0,0.0,0.0,0.0,0.0,0.0,0.0,0.0,0.0,0.0,0.0,0.0,0.0,0.0,0.0,0.0,0.0,0.0,0.0,0.0,0.0,0.0,0.0,0.0,0.0,0.0,0.0,0.0,0.0,0.0,0.0,0.0,0.0,0.0,0.0,0.0,0.0,0.0,0.0,0.0,0.0,0.0,0.0,0.0,0.0,0.0,0.0,0.0,0.0,0.0,0.0,0.0,0.0,0.0,0.0,0.0,0.0,0.0,0.0,0.0,0.0,0.0,0.0,0.0,0.0,0.0,0.0,0.0,0.0,0.0,0.0,0.0,0.0,0.0,0.0,0.0,0.0,0.0,0.0,0.0,0.0,0.0,0.0,0.0,0.0,0.0,0.0,0.0,0.0,0.0,0.0,0.0,0.0,0.0,0.0,0.0,0.0,0.0,0.0,0.0,0.0,0.0,0.0,0.0,0.0,0.0,0.0,0.0,0.0,0.0,0.0,0.0,0.0,0.0,0.0,0.0,0.0,0.0,0.0,0.0,0.0,0.0,0.0,0.0,0.0,0.0,0.0,0.0,0.0,0.0,0.0,0.0,0.0,0.0,0.0,0.0,0.0,0.0,0.0,0.0,0.0,0.0,0.0,0.0,0.0,0.0,0.0,0.0,0.0,0.0,0.0,0.0,0.0,0.0,0.0,0.0,0.0,0.0,0.0,0.0,0.0,0.0,0.0,0.0,0.0,0.0,0.0,0.0,0.0,0.0,0.0,0.0,0.0,0.0,0.0,0.0,0.0,0.0,0.0,0.0,0.0,0.0,0.0,0.0,0.0,0.0,0.0,0.0,0.0,0.0,0.0,0.0,0.0,0.0,0.0,0.0,0.0,0.0,0.0,0.0,0.0,0.0,0.0,0.0,0.0,0.0,0.0,0.0,0.0,0.0,0.0,0.0,0.0,0.0,0.0,0.0,0.0,0.0,0.0,0.0,0.0,0.0,0.0,0.0,0.0,0.0,0.0,0.0,0.0,0.0,0.0,0.0,0.0,0.0,0.0,0.0,0.0,0.0,0.0,0.0,0.0,0.0,0.0,0.0,0.0,0.0,0.0,0.0,0.0,0.0,0.0,0.0,0.0,0.0,0.0,0.0,0.0,0.0,0.0,0.0,0.0,0.0,0.0,0.0,0.0,0.0,0.0,0.0,0.0,0.0,0.0,0.0,0.0,0.0,0.0,0.0,0.0,0.0,0.0,0.0,0.0,0.0,0.0,0.0,0.0,0.0,0.0,0.0,0.0,0.0,0.0,0.0,0.0,0.0,0.0,0.0,0.0,0.0,0.0,0.0,0.0,0.0,0.0,0.0,0.0299,0.0,0.0,0.0,0.0,0.0,0.0,0.0,0.0,0.0,0.0,0.0,0.0,0.0,0.0,0.0,0.0,0.0,0.0,0.0,0.0,0.0,0.0,0.0,0.0,0.0,0.0,0.0,0.0,0.0,0.0,0.0,0.0,0.0,0.0,0.0,0.0,0.0,0.0,0.0,0.0,0.0,0.0,0.0,0.0,0.0,0.0,0.0,0.0,0.0,0.0,0.0,0.0,0.0,0.0,0.0,0.0,0.0,0.0,0.0,0.0,0.0,0.0,0.0,0.0,0.0,0.0,0.0,0.0,0.0,0.0,0.0,0.0,0.0,0.0,0.0,0.0,0.0,0.0,0.0,0.0,0.0,0.0,0.0,0.0,0.0,0.0,0.0,0.0,0.0,0.0,0.0,0.0,0.0,0.0,0.0,0.0,0.0,0.0,0.0,0.0,0.0,0.0,0.0,0.0,0.0,0.0,0.0,0.0,0.0,0.0,0.0,0.0,0.0,0.0,0.0,0.0,0.0488,0.0,0.0,0.0,0.0,0.0,0.0,0.0,0.0,0.0,0.0,0.0,0.0,0.0,0.0,0.0,0.0,0.0,0.0,0.0,0.0,0.0,0.0,0.0,0.0,0.0,0.0,0.0,0.0,0.0,0.0,0.0,0.0,0.0,0.0,0.0,0.0,0.0,0.0,0.0,0.0,0.0,0.0,0.0,0.0,0.0,0.0,0.0,0.0,0.0,0.0,0.0,0.0,0.0,0.0,0.0,0.0,0.0,0.0,0.0,0.0,0.0,0.0,0.0,0.0,0.0,0.0,0.0,0.0,0.0,0.0,0.0,0.0,0.0,0.0,0.0,0.0,0.0,0.0,0.0,0.0,0.0,0.0,0.0,0.0,0.0,0.0,0.0,0.0,0.0,0.0,0.0,0.0,0.0,0.0,0.0,0.0,0.0,0.0,0.0,0.0,0.0,0.0,0.0,0.0,0.0,0.0,0.0,0.0,0.2696,0.2436,0.197,0.2478,0.2164,0.1251,0.1794,0.176,0.1208,0.0,0.0,0.0,0.0,0.0,0.0,0.0,0.0,0.0,0.0,0.0,0.0,0.0,0.0,0.0,0.0,0.0,0.0,0.0,0.0,0.0,0.0,0.0,0.0,0.0,0.0,0.0,0.0,0.0,0.0,0.0,0.0,0.0,0.0,0.0,0.0,0.0,0.0,0.0,0.3045,0.3413,0.2972,0.1799,0.0,0.0,0.0,0.0,0.0,0.0,0.0,0.0,0.0,0.0,0.0,0.0,0.0,0.0,0.0,0.0,0.0,0.0,0.0,0.0,0.0,0.0,0.0,0.0,0.0,0.0,0.0,0.0,0.0,0.0,0.0,0.0,0.0,0.0,0.0,0.0,0.0,0.0,0.0,0.0,0.0,0.0,0.0,0.0,-0.1604,-0.0989,0.0,0.0,0.0,0.0,0.0,0.0,0.0,0.0,0.0,0.0,0.0,0.0,0.0,0.2341,0.2341,0.2341,0.2464,0.2696,0.2696,0.266,0.2582,0.266,0.261,0.248,0.2791,0.0,0.1225,0.032,0.0,0.0,0.0,0.0,0.0,0.0,0.0,0.0,0.0,0.0,0.0,0.0,0.0,0.0,0.0,0.0,0.0,0.0,0.0,0.0,0.0,0.0,0.0,0.0,0.0,0.0,0.0,0.0,0.0,0.0,0.0,0.0,0.0,0.0,0.0,0.0,0.2044,0.2874,0.3419,0.3467,0.3426,0.3252,0.208,0.0823,-0.0459,-0.1102,0.0,0.0,0.0,0.0,0.0,0.0,0.0,0.0,0.0,0.0,0.0,0.0,0.0,0.0,0.0,0.0,0.0,0.0,0.0,0.0,0.0,0.0,0.0,0.0,0.0,0.0,0.0,0.0,0.0,0.0,0.0,0.0,0.0,0.0,0.0,0.0,0.0,0.0,0.0,-0.0827,0.0,0.0814,0.1386,0.2216,0.0,0.0,0.0,0.0,0.0,0.0,0.0,0.0,0.0,0.4559,0.3965,0.3821,0.4161,0.4161,0.3834,0.3208,0.3208,0.3116,0.293,0.293,0.2839,0.2706,0.2818,0.2568,0.2019,0.111,0.0443,-0.0358,0.0,0.0,0.0,0.0,-0.7462,-0.6998,0.0,0.0,0.0,0.0,0.0,0.0,0.0,0.0,0.0,0.0,0.0,0.0,0.0,0.0,0.0,0.134,0.0,0.0,0.0,0.0,0.0,0.0,0.0,0.0,0.0,0.0,0.0,0.0,0.2502,0.3073,0.3495,0.3389,0.3544,0.3899,0.3451,0.2203,0.0408,0.0182,-0.0765,0.0,0.0,0.0,0.0,0.0,0.0,0.0,0.0,0.0,0.0,0.0,0.0,0.0,0.0,0.0,0.0,0.0,0.0,0.0,0.0,0.0,0.0,0.0,0.0,0.0,0.0,0.0,0.0,0.0,0.0,0.0,0.0,0.0,0.0,0.0,0.0,0.0,0.0,0.058,0.1439,0.2429,0.3095,0.382,0.0,0.0,0.0,0.0,0.0,0.0,0.4569,0.5344,0.569,0.5617,0.5124,0.5152,0.5731,0.5742,0.5316,0.4465,0.4465,0.4024,0.3259,0.3826,0.3585,0.2706,0.2708,0.2705,0.2613,0.1439,0.0582,-0.0357,-0.386,-0.4919,-0.4649,-0.6051,-0.6755,-0.7005,0.0,0.0,0.0,0.0,0.0,0.0,0.0,0.0,0.0,0.0,0.0,0.0,0.0,0.0,0.1968,0.1948,0.153,0.1102,0.0,0.0,0.0,0.0,0.0,0.0,0.0,0.0,0.0,0.1803,0.2412,0.2982,0.3501,0.3814,0.3874,0.3717,0.3685,0.307,0.2024,0.1192,0.0312,-0.0563,0.0,0.0,0.0,0.0,0.0,0.0,0.0,0.0,0.0,0.0,0.0,0.0,0.0,0.0,0.0,0.0,0.0,0.0,0.0,0.0,0.0,0.0,0.0,0.0,0.0,0.0,0.0,0.0,0.0,0.0,0.0,0.0,0.0,0.0,0.0,0.0,0.0,0.0,0.0,0.3592,0.3872,0.0,0.0,0.0,0.0,0.4604,0.2654,0.2697,0.5663,0.6516,0.6758,0.646,0.6222,0.6368,0.6906,0.6913,0.6877,0.6831,0.6831,0.5679,0.3642,0.5823,0.5297,0.2696,0.2689,0.269,0.2558,0.0792,0.0041,-0.0245,-0.2737,-0.4993,-0.6715,-0.5739,-0.6079,-0.7001,0.0,0.0,0.0,0.0,0.0,0.0,0.0,0.0,0.0,0.0,0.0,0.0,0.0,0.2654,0.2635,0.2459,0.2029,0.1609,0.1298,0.0,0.0,0.0,0.0,0.0,0.0,0.0,0.119,0.1798,0.219,0.2681,0.3254,0.354,0.3751,0.3912,0.4257,0.4015,0.3298,0.2285,0.1184,0.0077,-0.0303,-0.0965,0.0,0.0,0.0,0.0,0.0,0.0,0.0,0.0,0.0,0.0,0.0,0.0,0.0,0.0,0.0,0.0,0.0,0.0,0.0,0.0,0.0,0.0,0.0,0.0,0.0,0.0,0.0,0.0,0.0,0.0,0.0,0.0,0.0,0.0,0.0,0.0,0.0,0.4633,0.5033,0.0,0.0,0.6219,0.6179,0.6304,0.5712,0.5615,0.6188,0.6725,0.694,0.682,0.6747,0.6814,0.7,0.7,0.7,0.7,0.7,0.6571,0.5825,0.664,0.5529,0.2882,0.1537,0.0958,0.0917,0.0261,0.0,-0.0244,-0.2657,-0.4105,-0.4948,-0.6002,-0.6647,-0.6792,0.0,0.0,0.0,0.0,0.0,0.0,0.0,0.0,0.0,0.0,0.0,0.0773,0.2633,0.2774,0.2725,0.27,0.2373,0.2014,0.1621,0.0,0.0,0.0,0.0,0.0,0.0,0.0615,0.0988,0.1491,0.1669,0.2076,0.2672,0.2936,0.3293,0.3731,0.4421,0.4533,0.4165,0.3691,0.2579,0.1119,0.0844,0.025,-0.053,0.0,0.0,0.0,0.0,0.0,0.0,0.0,0.0,0.0,0.0,0.0,0.0,0.0,0.0,0.0,0.0,0.0,0.0,0.0,0.0,0.0,0.0,0.0,0.0,0.0,0.0,0.0,0.0,0.0,0.0,0.0,0.0,0.0,0.0,0.0,0.4698,0.5786,0.6089,0.6497,0.7231,0.7705,0.7857,0.7563,0.7829,0.7666,0.6856,0.7069,0.7133,0.7006,0.7,0.7,0.7,0.7,0.7,0.7,0.7,0.7,0.7006,0.7009,0.5634,0.3172,0.1385,0.038,0.0,0.0,0.0,-0.0249,-0.2649,-0.3602,-0.3787,-0.5299,-0.5853,-0.5674,0.0,0.0,0.0,0.0,0.0,0.0,0.0,0.0,0.0,0.0,-0.0193,0.0568,0.2477,0.2303,0.222,0.266,0.2572,0.2251,0.1655,0.1606,0.0,0.0,0.0,0.0,0.0378,0.0388,0.0554,0.0881,0.0881,0.1192,0.1792,0.2072,0.252,0.3145,0.4162,0.4607,0.4646,0.5336,0.4488,0.2658,0.237,0.1814,0.11,0.0,0.0,0.0,0.0,0.0,0.0,0.0,0.0,0.0,0.0,0.0,0.0,0.0,0.0,0.0,0.0,0.0,0.0,0.0,0.0,0.0,0.0,0.0,0.0,0.0,0.0,0.0,0.0,0.0,0.0,0.0,0.0,0.0,0.4716,0.512,0.598,0.7008,0.6957,0.7132,0.7855,0.8381,0.8562,0.8246,0.8571,0.8437,0.7655,0.7602,0.7415,0.7013,0.7,0.7,0.7,0.7,0.7,0.7,0.7,0.7,0.7,0.6979,0.5755,0.3575,0.2328,0.1132,0.0045,0.0022,0.0,-0.0237,-0.2647,-0.3604,-0.361,-0.361,-0.3613,-0.3698,0.0,0.0,0.0,0.0,0.0,0.0,0.0,0.0,0.0,0.0,0.0116,0.1044,0.2214,0.2612,0.2771,0.2703,0.2572,0.2327,0.1912,0.0,0.0,0.0,0.0,0.0,0.0114,0.0108,0.0252,0.0535,0.0535,0.0847,0.1452,0.1963,0.252,0.3155,0.4353,0.4826,0.4816,0.5829,0.5626,0.4563,0.3865,0.3171,0.2511,0.0,0.0,0.0,0.0,0.0,0.0,0.0,0.0,0.0,0.0,0.0,0.0,0.0,0.0,0.0,0.0,0.0,0.0,0.0,0.0,0.0,0.0,0.0,0.0,0.0,0.0,0.0,0.0,0.0,0.0,0.0,0.0,0.6862,0.6661,0.7234,0.7669,0.7687,0.7637,0.7829,0.8421,0.8489,0.8613,0.8898,0.8445,0.8052,0.7832,0.7399,0.7113,0.7006,0.7,0.7,0.7,0.7,0.7,0.7,0.7,0.7,0.6979,0.6447,0.569,0.4696,0.2372,0.1336,0.1231,0.0371,0.0,-0.0238,-0.2666,-0.3606,-0.3598,-0.3598,-0.3872,-0.3965,0.0,0.0,0.0,0.0,0.0,0.0,0.0,0.0,0.0,0.0,-0.0067,0.0703,0.1972,0.2197,0.2358,0.2589,0.2421,0.2208,0.2009,0.0,0.0,0.0,0.0,0.0,0.0,0.0,0.0078,0.0234,0.0234,0.0537,0.1152,0.1756,0.2417,0.3157,0.4436,0.5027,0.5147,0.6472,0.6588,0.5855,0.5896,0.5318,0.4427,0.4222,0.4081,0.3921,0.3431,0.2747,0.1934,0.1149,0.0,0.0,0.0,0.0,0.0,0.0,0.0,0.0,0.0,0.0,0.0,0.0,0.0,0.0,0.0,0.0,0.0,0.0,0.0,0.0,0.0,0.0,0.0,0.0,0.6848,0.7684,0.7859,0.8217,0.8407,0.8288,0.8272,0.8389,0.8704,0.8627,0.8704,0.8996,0.8566,0.8125,0.7786,0.7439,0.7166,0.7006,0.7,0.7,0.7,0.7,0.7088,0.7258,0.7258,0.7078,0.6768,0.6371,0.5738,0.0,0.2732,0.1828,0.1701,0.0505,0.0,0.0,0.0,0.0,0.0,0.0,-0.3388,-0.2366,0.0,0.0,0.0,0.0,0.0,0.0,0.0,0.0,0.0,0.0,0.0,0.0086,0.1724,0.1476,0.1521,0.237,0.215,0.1934,0.0,0.0,0.0,0.106,0.0376,0.0,0.0,0.0,0.0,0.0,0.0034,0.0336,0.0914,0.1548,0.2312,0.32,0.4446,0.5145,0.5493,0.7063,0.727,0.6681,0.7957,0.7629,0.6405,0.6453,0.6288,0.5939,0.5362,0.4352,0.3203,0.26,0.0,0.0,0.0,0.0,0.0,0.0,0.0,0.0,0.0,0.0,0.0,0.0,0.0,0.0,0.0,0.0,0.0,0.0,0.0,0.0,0.0,0.0,0.0,0.0,0.7686,0.8442,0.8437,0.8518,0.8619,0.8778,0.8804,0.8804,0.8804,0.8804,0.8804,0.8804,0.8751,0.843,0.7712,0.0,0.0,0.0,0.0,0.7053,0.7074,0.7053,0.718,0.7395,0.7446,0.7077,0.6361,0.639,0.5701,0.4391,0.3155,0.2308,0.1725,0.05,0.0,0.0,0.0,0.0,-0.033,-0.3014,-0.2288,0.0,0.0,0.0,0.0,0.0,0.0,0.0,0.0,0.0,0.0,-0.0683,0.0,0.0639,0.1214,0.1504,0.1777,0.2067,0.1841,0.1558,0.0,0.0,0.0609,0.0765,0.0273,0.0,0.0,0.0,0.0,0.0,0.0213,0.0523,0.0914,0.1742,0.259,0.3475,0.4531,0.5115,0.5408,0.669,0.714,0.7096,0.8369,0.8112,0.6991,0.7372,0.7215,0.6716,0.6235,0.537,0.4265,0.287,0.1947,0.1076,-0.0575,0.0,0.0,0.0,0.0,0.0,0.0,0.0,0.0,0.0,0.0,0.0,0.0,0.0,0.0,0.0,0.0,0.0,0.0,0.0,0.0,0.7163,0.7719,0.8194,0.8663,0.9198,0.9341,0.885,0.8804,0.8804,0.8804,0.8804,0.8804,0.8804,0.85,0.8252,0.8082,0.7472,0.0,0.7404,0.7404,0.7426,0.7477,0.7426,0.6982,0.6146,0.0,0.0,0.5514,0.5325,0.5074,0.4702,0.2916,0.2063,0.1871,0.0545,0.0,0.0,0.0,0.0,-0.0082,-0.0657,-0.0513,0.0,0.0,0.0,0.0,0.0,0.0,0.0,0.0,0.0,0.0,0.0,0.006,0.049,0.086,0.1026,0.1225,0.1517,0.1424,0.0,0.0,0.0717,0.0545,0.0545,0.0195,0.0,0.0,0.0,0.0,0.0,0.0268,0.0568,0.0914,0.1796,0.2593,0.3328,0.4043,0.4497,0.4826,0.5996,0.661,0.6933,0.8403,0.8733,0.8402,0.8867,0.8715,0.8179,0.7686,0.6765,0.5584,0.4204,0.3251,0.2374,0.0841,0.0236,-0.0043,0.0,0.0,0.0,0.0,0.0,0.0,0.0,0.0,0.0,0.0,0.0,0.0,0.0,0.0,0.5528,0.0,0.0,0.6923,0.781,0.807,0.8303,0.8744,0.9387,0.9562,0.8883,0.908,0.9159,0.8831,0.8804,0.8804,0.8804,0.8612,0.8501,0.8508,0.7557,0.7065,0.7235,0.7544,0.7778,0.7907,0.7073,0.6608,0.6559,0.6288,0.5864,0.5295,0.5157,0.4839,0.4317,0.2947,0.2173,0.1789,0.0538,0.0,0.0,0.0,0.0,0.0,0.0,0.0,0.0,0.0,0.0,0.0,0.0,0.0,0.0,0.0,0.0,0.0,0.0,0.0,0.0165,0.0591,0.0503,0.0548,0.0,0.0,0.0,0.0,0.0625,0.049,0.0324,0.0112,0.0,0.0,0.0,0.0022,0.0078,0.0357,0.0684,0.1051,0.1864,0.2544,0.3119,0.3489,0.3863,0.4264,0.5239,0.5948,0.6558,0.812,0.8977,0.9393,0.9935,0.9814,0.927,0.8782,0.7724,0.6428,0.546,0.4534,0.3585,0.2553,0.1921,0.1423,0.0681,0.0743,0.0,0.0,0.0,0.0,0.0,0.0,0.0,0.0,0.0,0.6151,0.6166,0.6378,0.6726,0.7261,0.7346,0.7609,0.836,0.8482,0.8537,0.8778,0.9387,0.9562,0.8883,0.9387,0.9536,0.8857,0.8804,0.8804,0.8804,0.8804,0.8794,0.881,0.7809,0.7248,0.7272,0.7749,0.8023,0.8043,0.6735,0.6304,0.6739,0.6079,0.5539,0.5147,0.5147,0.4732,0.3961,0.3023,0.2175,0.1372,0.0388,0.0,0.0,0.0,0.0,0.0,0.0,0.0,0.0,0.0,0.0,0.0,0.0,0.0,0.0,0.0,0.0,0.0,0.0,0.0,0.0,0.0,0.0,0.0,0.0,0.0,0.0,0.0,0.0086,0.0068,0.0045,0.0011,0.0,0.0,0.0,0.0112,0.0356,0.0679,0.1076,0.1533,0.2112,0.2633,0.3115,0.3389,0.3774,0.4221,0.4591,0.5282,0.6247,0.7392,0.8054,0.8449,0.9266,0.9259,0.8735,0.8381,0.7209,0.577,0.5407,0.5028,0.4635,0.3962,0.3518,0.3086,0.2352,0.0,0.1508,0.1485,0.2361,0.345,0.407,0.5204,0.6349,0.0,0.0,0.7767,0.7819,0.7859,0.7956,0.8214,0.8248,0.8366,0.8711,0.8758,0.8771,0.8804,0.9387,0.9562,0.8883,0.9387,0.9536,0.8857,0.8804,0.8804,0.8804,0.8804,0.8795,0.8801,0.8332,0.8117,0.8242,0.8298,0.8073,0.7489,0.7244,0.634,0.4803,0.5078,0.499,0.4601,0.4601,0.4542,0.4344,0.2888,0.1475,0.0195,0.0056,0.0,0.0,0.0,0.0,0.0,0.0,0.0,0.0,0.0,0.0,0.0,0.0,0.0,0.0,0.0,0.0,0.0,0.0,0.0,0.0,0.0,0.0,0.0,0.0,0.0,0.0,0.0014,0.0,0.0067,0.0223,0.0078,0.0168,0.0514,0.0335,0.0423,0.0803,0.1147,0.1454,0.1723,0.2308,0.268,0.2871,0.3146,0.3378,0.359,0.3981,0.4598,0.5424,0.6383,0.7095,0.7601,0.7959,0.7727,0.7206,0.7345,0.6803,0.0,0.0,0.4757,0.4754,0.3872,0.368,0.3646,0.2903,0.289,0.0,0.363,0.4195,0.0,0.0,0.6856,0.7688,0.87,0.918,0.9392,0.9431,0.9246,0.9109,0.9191,0.8552,0.8026,0.0,0.7803,0.767,0.8103,0.8363,0.8429,0.8176,0.8764,0.9079,0.8831,0.8804,0.8798,0.8811,0.7249,0.6306,0.6304,0.6923,0.7297,0.7355,0.7355,0.7081,0.6533,0.5964,0.5482,0.5068,0.4869,0.4671,0.4491,0.4491,0.4501,0.4376,0.1949,0.0558,0.0,0.0,0.0,0.0,0.0,0.0,0.0,0.0,0.0,0.0,0.0,0.0,0.0,0.0,0.0,0.0,0.0,0.0,0.0,0.0,0.0,0.0,0.0,0.0,0.0,0.0,0.0,0.0,0.0,0.0,0.0092,0.0279,0.0101,0.0,0.0637,0.049,0.0608,0.1048,0.1415,0.1705,0.1927,0.2416,0.2599,0.2517,0.2712,0.2843,0.2951,0.3235,0.3815,0.4596,0.5412,0.5956,0.6323,0.6542,0.6199,0.5652,0.6174,0.6002,0.0,0.0,0.4351,0.4485,0.3813,0.379,0.3899,0.3357,0.368,0.4405,0.5373,0.0,0.0,0.765,0.8487,0.9229,1.0065,1.0698,1.0976,1.058,1.0265,0.9969,0.9588,0.8514,0.0,0.7696,0.7074,0.6777,0.7316,0.7492,0.7566,0.7601,0.78,0.8145,0.8745,0.8791,0.8692,0.843,0.6214,0.4931,0.5074,0.604,0.6588,0.6588,0.6734,0.6593,0.6109,0.542,0.5128,0.5222,0.4743,0.4501,0.4501,0.4501,0.4508,0.432,0.1306,0.0474,0.1177,0.0336,0.0,0.0,0.0,0.0,0.0,0.0,0.0,0.0,0.0,0.0,0.0,0.0,0.0,0.0,0.0,0.0,0.0,0.0,0.0,0.0,0.0,0.0,0.0,0.0,0.0,0.0,0.0,0.0,0.0,0.0011,0.0,0.0011,0.0022,0.0268,0.0569,0.0907,0.1378,0.1798,0.22,0.241,0.2336,0.2026,0.2028,0.221,0.2509,0.2321,0.2866,0.3893,0.4573,0.4623,0.4378,0.5156,0.4951,0.4345,0.5012,0.0,0.0,0.0,0.3925,0.3903,0.4252,0.4192,0.0,0.3972,0.4075,0.0,0.0,0.0,0.775,0.8647,1.0094,1.1289,1.1187,1.201,1.2452,1.1082,1.078,1.0364,0.9054,0.8209,0.7696,0.7696,0.7074,0.6615,0.6642,0.7079,0.7404,0.7404,0.6556,0.6729,0.0,0.8804,0.843,0.7518,0.647,0.6067,0.6502,0.6588,0.6588,0.6588,0.7112,0.7128,0.6579,0.6539,0.5872,0.4532,0.4518,0.4494,0.4494,0.4494,0.449,0.4338,0.131,0.1649,0.4141,0.1205,0.0,0.0,0.0,0.0,0.0,0.0,0.0,0.0,0.0,0.0,0.0,0.0,0.0,0.0,0.0,0.0,0.0,0.0,0.0,0.0,0.0,0.0,0.0,0.0,0.0,0.0,0.0,0.0,0.0075,0.0255,0.0092,0.0191,0.0592,0.068,0.0939,0.1364,0.1698,0.1983,0.22,0.2089,0.1969,0.1862,0.178,0.1792,0.1898,0.1933,0.2088,0.2385,0.2876,0.2936,0.2773,0.3039,0.2924,0.2614,0.0,0.0,0.0,0.0,0.0,0.0,0.3556,0.0,0.0,0.5314,0.0,0.0,0.0,0.0,0.9011,0.993,1.0582,1.1146,1.1775,1.2065,1.1981,1.1336,1.0491,0.9566,0.8536,0.745,0.6566,0.618,0.5605,0.5418,0.6046,0.5755,0.5818,0.6742,0.5756,0.0,0.0,0.0,0.0,0.8275,0.6245,0.5031,0.5211,0.5211,0.5215,0.5199,0.5368,0.5376,0.5211,0.5215,0.4449,0.2986,0.4002,0.3461,0.1584,0.3597,0.4505,0.4456,0.3431,0.2423,0.1445,0.0404,0.0,0.0,0.0,0.0,0.0,0.0,0.0,0.0,0.0,0.0,0.0,0.0,0.0,0.0,0.0,0.0,0.0,0.0,0.0,0.0,0.0,0.0,0.0,0.0,0.0,0.0,0.0,0.0,0.0081,0.0249,0.0088,0.0183,0.0574,0.0669,0.087,0.1172,0.1513,0.1726,0.1805,0.1674,0.1543,0.1403,0.1319,0.131,0.1356,0.1446,0.1524,0.1622,0.1891,0.1865,0.1685,0.167,0.1631,0.0,0.0,0.0,0.0,0.0,0.0,0.0,0.0,0.0,0.0,0.0,0.0,0.0,0.0,1.0277,1.01,1.0973,1.1266,1.137,1.1536,1.1704,1.1525,1.0567,0.9681,0.8749,0.7693,0.6615,0.5808,0.5549,0.4946,0.4705,0.5304,0.4873,0.4844,0.5752,0.5056,0.0,0.0,0.0,0.0,0.7181,0.5548,0.4508,0.4505,0.3968,0.3436,0.2905,0.3925,0.3981,0.2905,0.2886,0.2389,0.1419,0.2411,0.2449,0.1666,0.361,0.4492,0.4502,0.449,0.2775,0.0,0.0,0.0,0.0,0.0,0.0,0.0,0.0,0.0,0.0,0.0,0.0,0.0,0.0,0.0,0.0,0.0,0.0,0.0,0.0,0.0,0.0,0.0,0.0,0.0,0.0,0.0,0.0,0.0,0.0,0.0,0.0,0.0,0.0,0.0,0.0267,0.0406,0.0405,0.087,0.1095,0.1092,0.1202,0.1052,0.068,0.0664,0.0741,0.0852,0.0849,0.1112,0.1527,0.1526,0.1322,0.1043,0.104,0.0,0.0,0.0,0.0,0.0,0.0,0.0,0.0,0.0,0.0,0.0,0.0,0.0,0.8858,1.1382,1.1477,1.1036,1.1746,1.2062,1.1877,1.0601,1.0999,1.1037,0.8916,0.8425,0.7947,0.0,0.0,0.5414,0.5761,0.5072,0.4501,0.4498,0.4525,0.4528,0.0,0.0,0.0,0.0,0.0,0.0,0.4553,0.0,0.4442,0.428,0.2873,0.1448,0.0056,0.277,0.2886,0.0028,0.0,0.0088,0.0264,0.0234,0.1721,0.4511,0.4512,0.4513,0.4542,0.4542,0.2815,0.0,0.0,0.0,0.0,0.0,0.0,0.0,0.0,0.0,0.0,0.0,0.0,0.0,0.0,0.0,0.0,0.0,0.0,0.0,0.0,0.0,0.0,0.0,0.0,0.0,0.0,0.0,0.0,0.0,0.0,0.0,0.0,0.0,0.0,0.0,0.0,0.0,0.0,0.0,0.0955,0.0952,0.0735,0.057,0.0,0.0273,0.0202,0.0239,0.0231,0.0292,0.0405,0.0,0.0361,0.0275,0.0,0.0,0.0,0.0,0.0,0.0,0.0,0.0,0.0,0.0,0.0,0.7112,0.0,0.0,1.1316,1.2723,1.2386,1.1729,1.2151,1.1547,1.0783,1.0641,0.9955,0.915,0.8484,0.7444,0.6371,0.0,0.0,0.0,0.4718,0.455,0.0,0.4512,0.4674,0.0,0.0,0.0,0.5172,0.5172,0.5179,0.0,0.0,0.4765,0.3525,0.1254,0.078,0.0391,0.0,0.0745,0.0783,0.0,0.0,0.1347,0.401,0.3581,0.3744,0.4508,0.4511,0.4731,0.5176,0.5176,0.3188,0.0,0.0,0.0,0.0,0.0,0.0,0.0,0.0,0.0,0.0,0.0,0.0,0.0,0.0,0.0,0.0,0.0,0.0,0.0,0.0,0.0,0.0,0.0,0.0,0.0,0.0,0.0,0.0,0.0,0.0,0.0,0.0,0.0,0.0,0.0,0.0,0.0,0.0,0.0,0.0,0.0,0.031,0.0229,0.021,0.0067,0.0,0.0,0.0,0.0,0.0,0.0,0.0,0.0,0.0,0.0,0.0,0.0,0.0,0.0,0.0,0.0,0.4846,0.5325,0.6425,0.7784,0.8909,0.0,1.1584,1.3136,1.2579,1.1736,1.2473,1.1692,1.0686,1.0458,0.9923,0.9115,0.767,0.6784,0.0,0.0,0.0,0.0,0.0,0.0,0.0,0.4629,0.4783,0.4979,0.0,0.5304,0.0,0.5413,0.541,0.5392,0.0,0.4848,0.3771,0.2066,0.0726,0.0,0.0,0.0,0.0775,0.236,0.2382,0.3266,0.5006,0.4657,0.449,0.4493,0.4487,0.4682,0.4925,0.0,0.1883,0.0,0.0,0.0,0.0,0.0,0.0,0.0,0.0,0.0,0.0,0.0,0.0,0.0,0.0,0.0,0.0,0.0,0.0,0.0,0.0,0.0,0.0,0.0,0.0,0.0,0.0,0.0,0.0,0.0,0.0,0.0,0.0,0.0,0.0,0.0,0.0,0.0,0.0,0.0,0.0,0.0,0.0,0.0,0.0,0.0,0.0,0.0,0.0,0.0,0.0,0.0,0.0,0.0,0.0,0.0,0.0,0.0,0.0,0.0,0.0,0.5242,0.5727,0.6226,0.7018,0.7942,0.8828,0.9763,1.0942,1.2911,1.2342,1.1473,1.2617,1.1988,1.0857,0.978,0.9869,0.9374,0.6655,0.0,0.0,0.4349,0.0,0.4154,0.4443,0.0,0.4433,0.4772,0.486,0.4916,0.4968,0.5213,0.5436,0.5509,0.543,0.5396,0.5403,0.4479,0.3907,0.3902,0.1418,0.0,0.0,0.0,0.1746,0.5356,0.5403,0.5145,0.4623,0.463,0.4622,0.4607,0.4618,0.4564,0.4333,0.0,0.0,0.0193,0.0063,0.0,0.0,0.0,0.0,0.0,0.0,0.0,0.0,0.0,0.0,0.0,0.0,0.0,0.0,0.0,0.0,0.0,0.0,0.2364,0.1845,0.0,0.0,0.0,0.0,0.0,0.0,0.0,0.0,0.0,0.0,0.0,0.0,0.0,0.0,0.0,0.0,0.0,0.0,0.0,0.0,0.0,0.0,0.0,0.0,0.0,0.0,0.0,0.0,0.0,0.0,0.0,0.0,0.0,0.0,0.0,0.0,0.0,0.0,0.6151,0.651,0.7101,0.8091,0.9198,0.9853,1.079,1.1763,1.2443,1.2142,1.1789,1.2235,1.1269,0.9678,0.758,0.6913,0.0,0.0,0.0,0.4578,0.4429,0.0,0.0,0.4346,0.0,0.0,0.0,0.0,0.5006,0.0,0.0,0.0,0.0,0.0,0.0,0.0,0.0,0.0767,0.0789,0.0273,0.0,0.0,0.0,0.1732,0.5378,0.5406,0.5332,0.523,0.5237,0.5231,0.5229,0.5247,0.4984,0.433,0.131,0.0,0.119,0.0329,0.0,0.0,0.0,0.0,0.0,0.0,0.0,0.0,0.0,0.0,0.0,0.0,0.0,0.0,0.0,0.4066,0.3695,0.3494,0.249,0.1698,0.1486,0.0785,0.0,0.0,0.0,0.0,0.0,0.0,0.0,0.0,0.0,0.0,0.0,0.0,0.0,0.0,0.0,0.0,0.0,0.0,0.0,0.0,0.0,0.0,0.0,0.0,0.0,0.0,0.0,0.0,0.0,0.0,0.0,0.0,0.0,0.0,0.0,0.0,0.5792,0.6296,0.7304,0.8023,0.8573,0.8938,0.9255,0.9791,1.11,1.0844,1.0393,1.1074,0.9969,0.8314,0.6832,0.0,0.0,0.0,0.0,0.4379,0.4477,0.0,0.0,0.0,0.0,0.0,0.0,0.0,0.0,0.0,0.0,0.0,0.0,0.0,0.0,0.0,0.0,0.0,0.0,0.0,0.0,0.0,0.1823,0.3636,0.5379,0.5396,0.5387,0.5383,0.5414,0.541,0.5407,0.5404,0.508,0.4366,0.2116,0.0,0.1417,0.0423,0.0,0.0,0.0,0.0,0.0,0.0,0.0,0.0,0.0,0.0,0.0,0.0,0.0,0.0,0.0,0.4482,0.3962,0.3655,0.2431,0.1562,0.1452,0.059,0.0,0.0,0.0,0.0,0.0,0.0,0.0,0.0,0.0,0.0,0.0,0.0,0.0,0.0,0.0,0.0,0.0,0.0,0.0,0.0,0.0,0.0,0.0,0.0,0.0,0.0,0.0,0.0,0.0,0.0,0.0,0.0,0.0,0.0,0.0,0.0,0.4874,0.5541,0.6647,0.7252,0.7607,0.7789,0.7565,0.7634,0.9418,0.9242,0.8822,0.9919,0.8748,0.713,0.6337,0.5283,0.0,0.0,0.0,0.0,0.0,0.0,0.0,0.0,0.0,0.0,0.0,0.0,0.0,0.0,0.0,0.0,0.0,0.0,0.0,0.0,0.0,0.0,0.0,0.0,0.0,0.0,0.3517,0.5386,0.5409,0.5399,0.5395,0.5395,0.5395,0.5395,0.5388,0.5003,0.4612,0.4155,0.2473,0.0,0.0,0.0385,0.0,0.0,0.0,0.0,0.0,0.0,0.0,0.0,0.0,0.0,0.0,0.0,0.0,0.0,0.0,0.3595,0.3347,0.2474,0.1929,0.1434,0.1015,0.0381,0.0,0.0,0.0,0.0,0.0,0.0,0.0,0.0,0.0,0.0,0.0,0.0,0.0,0.0,0.0,0.0,0.0,0.0,0.0,0.0,0.0,0.0,0.0,0.0,0.0,0.0,0.0,0.0,0.0,0.0,0.0,0.0,0.0,0.0,0.0,0.0,0.0,0.4221,0.4583,0.5839,0.7212,0.7543,0.0,0.0,0.7597,0.7735,0.8071,0.9212,0.8173,0.6537,0.5254,0.0,0.0,0.0,0.4491,0.4532,0.0,0.0,0.0,0.0,0.0,0.0,0.0,0.0,0.0,0.0,0.0,0.0,0.0,0.0,0.0,0.0,0.0,0.0,0.0,0.0,0.0,0.0,0.3509,0.5409,0.5395,0.5395,0.5395,0.5395,0.5395,0.5395,0.5355,0.3694,0.3118,0.3289,0.1138,0.0,0.0,0.0328,0.0,0.0,0.0,0.0,0.0,0.0,0.0,0.0,0.0,0.0,0.0,0.0,0.0,0.0,0.4419,0.4006,0.3518,0.2928,0.2124,0.1416,0.0942,0.0364,0.0,0.0,0.0,0.0,0.0,0.0,0.0,0.0,0.0,0.0,0.0,0.0,0.0,0.0,0.0,0.0,0.0,0.0,0.0,0.0,0.0,0.0,0.0,0.0,0.0,0.0,0.0,0.0,0.0,0.0,0.0,0.0,0.0,0.0,0.0,0.0,0.0,0.0,0.389,0.4425,0.0,0.0,0.5626,0.57,0.6522,0.6658,0.6645,0.7072,0.6457,0.5616,0.4996,0.0,0.0,0.4491,0.4491,0.4539,0.4663,0.0,0.0,0.0,0.0,0.0,0.0,0.0,0.0,0.0,0.0,0.0,0.0,0.0,0.0,0.0,0.0,0.0,0.0,0.0,0.0503,0.1604,0.4092,0.5412,0.5395,0.5395,0.5395,0.5395,0.5395,0.4818,0.3739,0.3033,0.2521,0.2147,0.0651,0.0,0.0,0.0298,0.0,0.0,0.0,0.0,0.0,0.0,0.0334,0.0695,0.0,0.0,0.0,0.0,0.0,0.4449,0.4273,0.3732,0.3129,0.2596,0.1872,0.1198,0.069,0.026,0.0,0.0,0.0,0.0,0.0,0.0,0.0,0.0,0.0,0.0,0.0,0.0,0.0,0.0,0.0,0.0,0.0,0.0,0.0,0.0,0.0,0.0,0.0,0.0,0.0,0.0,0.0,0.0,0.0,0.0,0.0,0.0,0.0,0.0,0.0,0.0,0.0,0.0,0.0,0.0,0.0,0.0,0.4364,0.4734,0.5866,0.5972,0.5784,0.5627,0.5352,0.5041,0.0,0.0,0.4491,0.4491,0.4491,0.4539,0.4663,0.0,0.0,0.0,0.0,0.0,0.0,0.0,0.0,0.0,0.0,0.0,0.0,0.0,0.0,0.0,0.0,0.0,0.0,0.0,0.082,0.2646,0.4467,0.5436,0.5531,0.5452,0.5419,0.5497,0.5416,0.4583,0.3072,0.2804,0.2239,0.1384,0.0,0.0,0.0,0.02,0.0,0.0,0.0,0.0,0.0,0.0,0.0404,0.0873,0.0,0.0,0.0,0.0,0.0,0.0,0.2373,0.2229,0.1851,0.0864,0.0827,0.0671,0.0073,0.0,0.0,0.0,0.0,0.0,0.0,0.0,0.0,0.0,0.0,0.0,0.0,0.0,0.2092,0.2694,0.2694,0.0,0.0,0.0,0.0,0.0,0.0,0.0,0.0,0.0,0.0,0.0,0.0,0.0,0.0,0.0,0.0,0.0,0.0,0.0,0.0,0.0,0.0,0.0,0.0,0.0,0.0,0.0,0.4028,0.47,0.5553,0.5807,0.5734,0.5473,0.5247,0.5022,0.0,0.0,0.4491,0.4491,0.4491,0.4539,0.4663,0.0,0.0,0.0,0.0,0.0,0.0,0.0,0.0,0.0,0.0,0.0,0.0,0.0,0.0,0.0,0.0,0.0,0.0,0.0,0.0814,0.2649,0.4461,0.5514,0.58,0.5541,0.5504,0.5693,0.55,0.4891,0.3949,0.3078,0.2178,0.0,0.0,0.0,0.0,0.0,0.0,0.0,0.0,0.0,0.0,0.0,0.0,0.0169,0.0,0.0,0.0,0.0,0.0,0.0,0.0,0.206,0.1533,0.0796,0.0734,0.0569,0.0052,0.0,0.0,0.0,0.0,0.0,0.0,0.0,0.0,0.0,0.0,0.0,0.0,0.0,0.2704,0.3306,0.3306,0.3012,0.0,0.0,0.0,0.0,0.0,0.0,0.0,0.0,0.0,0.0,0.0,0.0,0.0,0.0,0.0,0.0,0.0,0.0,0.0,0.0,0.0,0.0,0.0,0.0,0.0,0.0,0.0,0.0,0.4846,0.5106,0.5292,0.5208,0.5094,0.4904,0.4735,0.0,0.4491,0.4491,0.4491,0.4539,0.4663,0.0,0.0,0.0,0.0,0.0,0.0,0.0,0.0,0.0,0.0,0.0,0.0,0.0,0.0,0.0,0.0,0.0,0.0,0.0,0.0247,0.0848,0.3825,0.5492,0.5732,0.5661,0.5612,0.5624,0.547,0.4586,0.3111,0.2811,0.0,0.0,0.0,0.0,0.0,0.0,0.0,0.0,0.0,0.0,0.0,0.0,0.0,0.0069,0.0,0.0,0.0,0.0,0.0,0.0,0.0,0.1807,0.1238,0.0523,0.0428,0.0332,0.0036,0.0,0.0,0.0,0.0,0.0,0.0,0.0,0.0,0.0,0.0,0.0,0.0,0.2887,0.3214,0.3604,0.3604,0.3284,0.2696,0.2926,0.2729,0.0,0.0,0.0,0.0,0.0,0.0,0.0,0.0,0.0,0.0,0.0,0.0,0.0,0.0,0.0,0.0,0.0,0.0,0.0,0.0,0.0,0.0,0.0,0.0,0.0,0.0,0.4808,0.4986,0.4955,0.4897,0.0,0.0,0.0,0.0,0.4491,0.0,0.0,0.0,0.0,0.0,0.0,0.0,0.0,0.0,0.0,0.0,0.0,0.0,0.0,0.0,0.0,0.0,0.0,0.0,0.0,0.0,0.0,0.062,0.1982,0.4229,0.5444,0.5573,0.5586,0.5578,0.5589,0.547,0.4453,0.2711,0.2711,0.0,0.0,0.0,0.0,0.0,0.0,0.0,0.0,0.0,0.0,0.0177,0.1782,0.1367,0.0,0.0,0.0,0.0,0.0,0.0,0.0,0.0,0.1501,0.0971,0.0151,0.0053,0.0037,0.0,0.0,0.0,0.0,0.0,0.0,0.0,0.0,0.0,0.0,0.0,0.0,0.2745,0.3305,0.3604,0.3604,0.3614,0.3315,0.2785,0.3366,0.3325,0.2798,0.3369,0.3146,0.2245,0.0673,0.0,0.0,0.0,0.0,0.0,0.0,0.0,0.0,0.0,0.0,0.0,0.0,0.0,0.0,0.0,0.0,0.0,0.0,0.0,0.0,0.0,0.0,0.0,0.0,0.0,0.0,0.0,0.0,0.0,0.0,0.0,0.0,0.0,0.0,0.0,0.0,0.0,0.0,0.0,0.0,0.0,0.0,0.0,0.0,0.0,0.0,0.0,0.0,0.0,0.0,0.0,0.0466,0.1995,0.5361,0.5408,0.5393,0.5388,0.5406,0.5474,0.5589,0.547,0.4486,0.2778,0.2744,0.0,0.0,0.0,0.0,0.0,0.0,0.0,0.0,0.0,0.0,0.0474,0.439,0.3362,0.0,0.0,0.0,0.0,0.0,0.0,0.0,0.0,0.0,0.0,0.0,0.0529,0.0403,0.0037,0.0,0.0,0.0,0.0,0.0,0.0,0.0,0.0,0.0,0.0,0.0,0.3161,0.3457,0.3604,0.3604,0.3713,0.3687,0.3537,0.3784,0.3773,0.3544,0.3741,0.3115,0.1854,0.0559,0.0,0.0,0.0,0.0,0.0,0.0,0.0,0.0,0.0897,0.1556,0.0,0.0,0.0,0.0,0.0,0.0,0.0,0.0,0.4491,0.0,0.0,0.0,0.0,0.0,0.0,0.0,0.0,0.0,0.0,0.0,0.0,0.0,0.0,0.0,0.0,0.0,0.0,0.0,0.0,0.0,0.0,0.0,0.0,0.0,0.0,0.0,0.0,0.0,0.0,0.0,0.0,0.4838,0.5197,0.6051,0.5644,0.5392,0.5383,0.5386,0.5474,0.5589,0.547,0.4788,0.368,0.3011,0.0,0.0,0.0,0.0,0.0,0.0,0.0,0.0,0.0,0.0,0.0112,0.1109,0.0868,0.0,0.0,0.0,0.0,0.0,0.0,0.0,0.0,0.0,0.0,0.0,0.0,0.0,0.0,0.0,0.0,0.0,0.0,0.0,0.0,0.0,0.0,0.0,0.0,0.313,0.3431,0.3537,0.3604,0.3604,0.3724,0.3767,0.3721,0.3854,0.384,0.3699,0.3739,0.3032,0.1717,0.0513,0.0,0.0,0.0,0.0,0.0,0.0,0.0,0.0,0.1326,0.204,0.0,0.3583,0.4153,0.4491,0.0,0.0,0.0,0.0,0.4491,0.0,0.0,0.0,0.0,0.0,0.0,0.0,0.0,0.0,0.0,0.0,0.0,0.0,0.0,0.0,0.0,0.0,0.0,0.0,0.0,0.0,0.0,0.0,0.0,0.0,0.0,0.0,0.0,0.0,0.0,0.0,0.0,0.602,0.5935,0.6049,0.5637,0.5446,0.5521,0.544,0.5436,0.5518,0.5436,0.4924,0.3982,0.3513,0.2577,0.0,0.0,0.0,0.0,0.0,0.0,0.0,0.0,0.118,0.2906,0.2908,0.2192,0.1263,0.0,0.0,0.0,0.0,0.0,0.0,0.0,0.0,0.0,0.0,0.0,0.0,0.0,0.0,0.0,0.0,0.0,0.0,0.0,0.0,0.0,0.0,0.0,0.3425,0.36,0.3604,0.3604,0.3604,0.3724,0.3734,0.3629,0.3788,0.3797,0.3657,0.361,0.3037,0.2008,0.0831,0.0203,0.0022,0.0158,0.0,0.0,0.0,0.0,0.0,0.0,0.0,0.0,0.4191,0.4491,0.4491,0.4491,0.0,0.0,0.0,0.0,0.0,0.0,0.0,0.0,0.0,0.0,0.0,0.0,0.0,0.0,0.0,0.0,0.0,0.0,0.0,0.0,0.0,0.0,0.0,0.0,0.0,0.0,0.0,0.0,0.0,0.0,0.0,0.0,0.0,0.0,0.0,0.0,0.5722,0.5578,0.5764,0.552,0.5482,0.5696,0.5507,0.5395,0.5395,0.5419,0.5013,0.4217,0.41,0.3159,0.0,0.0,0.0,0.0,0.0,0.0,0.0036,0.0357,0.2663,0.5834,0.6118,0.4688,0.2626,0.0,0.0,0.0,0.0,0.0,0.0,0.0,0.0,0.0,0.0,0.0,0.0,0.0,0.0,0.0,0.0,0.0,0.0,0.0,0.0,0.0,0.3544,0.3544,0.3576,0.3604,0.3604,0.3604,0.3604,0.3724,0.3782,0.3785,0.4014,0.408,0.392,0.3703,0.349,0.3271,0.2288,0.1151,0.0067,0.0,0.0,0.0,0.0,0.0,0.0,0.0,0.0,0.0,0.4218,0.4491,0.4491,0.4491,0.0,0.0,0.0,0.0,0.0,0.4491,0.0,0.0,0.0,0.0,0.0,0.0,0.0,0.0,0.0,0.0,0.0,0.0,0.0,0.0,0.0,0.0,0.0,0.0,0.0,0.0,0.0,0.0,0.0,0.0,0.0,0.0,0.0,0.0,0.0,0.0,0.5666,0.5728,0.5728,0.552,0.5482,0.5624,0.5474,0.5395,0.5395,0.5528,0.5416,0.5163,0.4495,0.3835,0.0,0.0,0.1079,0.0,0.0,0.0,0.0177,0.1954,0.3013,0.3789,0.5295,0.4333,0.2031,0.0,0.0,0.0,0.0,0.0,0.0,0.0,0.0,0.0,0.0,0.0,0.0,0.0,0.0,0.0,0.0,0.0,0.0,0.0,0.0,0.0,0.3604,0.3604,0.3604,0.3604,0.3604,0.3604,0.3604,0.3668,0.369,0.3694,0.3808,0.384,0.3767,0.3657,0.335,0.2926,0.2615,0.1928,0.1108,0.0,0.0,0.0,0.0,0.0,0.0,0.0,0.0,0.0,0.0,0.4491,0.4491,0.4491,0.0,0.0,0.0,0.0,0.0,0.4491,0.4491,0.0,0.0,0.0,0.0,0.0,0.0,0.0,0.0,0.0,0.0,0.0,0.0,0.0,0.0,0.0,0.0,0.0,0.0,0.0,0.0,0.0,0.0,0.0,0.0,0.0,0.0,0.0,0.0,0.0,0.0,0.5599,0.5649,0.5473,0.543,0.5501,0.5429,0.5395,0.5395,0.5467,0.5463,0.5395,0.5023,0.4754,0.4476,0.0,0.1429,0.0,0.0,0.0,0.0105,0.1064,0.2277,0.3589,0.4043,0.3312,0.1882,0.0,0.0,0.0,0.0,0.0,0.0,0.0,0.0,0.0,0.0,0.0,0.0,0.0,0.0,0.0,0.0,0.0,0.0,0.0,0.0,0.3604,0.3604,0.3729,0.3729,0.3604,0.3604,0.3627,0.3698,0.3627,0.3604,0.3604,0.3604,0.3604,0.3604,0.3604,0.3262,0.2696,0.2881,0.2657,0.2151,0.0,0.0,0.0,0.0,0.0,0.0,0.0,0.0,0.0,0.0,0.0,0.0,0.0,0.0,0.0,0.0,0.4491,0.4491,0.4491,0.4491,0.4625,0.0,0.0,0.0,0.0,0.0,0.0,0.0,0.0,0.0,0.0,0.0,0.0,0.0,0.0,0.0,0.0,0.0,0.0,0.0,0.0,0.0,0.0,0.0,0.0,0.0,0.0,0.0,0.0,0.0,0.545,0.5566,0.5457,0.5395,0.5395,0.5395,0.5395,0.5395,0.5433,0.5429,0.5395,0.5466,0.5443,0.5333,0.3949,0.2054,0.0,0.0,0.0174,0.0451,0.0615,0.2157,0.4195,0.3244,0.2519,0.1843,0.0,0.0,0.0,0.0,0.0,0.0,0.0,0.0,0.0,0.0,0.0,0.0,0.0,0.0,0.0,0.0,0.0,0.0,0.0,0.0,0.3604,0.3604,0.4071,0.4114,0.3604,0.3604,0.3724,0.3975,0.3724,0.3604,0.3604,0.3604,0.3604,0.3604,0.3604,0.3556,0.3518,0.3671,0.3304,0.2682,0.2909,0.0,0.0,0.0,0.0,0.0,0.0,0.0,0.0,0.0,0.0,0.0,0.0,0.0,0.0,0.0,0.4491,0.4491,0.4491,0.4491,0.4519,0.0,0.0,0.0,0.0,0.0,0.0,0.0,0.0,0.0,0.0,0.0,0.0,0.0,0.0,0.0,0.0,0.0,0.0,0.0,0.0,0.0,0.0,0.0,0.0,0.0,0.0,0.0,0.0,0.0,0.0,0.5412,0.5399,0.5395,0.5395,0.5395,0.5395,0.5395,0.5576,0.5569,0.5399,0.5651,0.5648,0.5396,0.5269,0.3234,0.0,0.0,0.0674,0.1754,0.2415,0.3837,0.5253,0.3519,0.2452,0.1648,0.0,0.0,0.0,0.0,0.0,0.0,0.0,0.0,0.0,0.0,0.0,0.0,0.0,0.0,0.0,0.0,0.0,0.0,0.0,0.3604,0.3604,0.3604,0.3796,0.3814,0.3604,0.3849,0.394,0.3886,0.3684,0.3489,0.33,0.3512,0.3604,0.3604,0.3604,0.3604,0.3607,0.3658,0.3615,0.3512,0.3531,0.3464,0.0,0.0,0.0,0.0,0.0,0.0,0.0,0.0,0.0,0.0,0.0,0.0,0.0,0.0,0.0,0.4491,0.4491,0.4491,0.0,0.0,0.0,0.0,0.0,0.0,0.0,0.0,0.0,0.0,0.0,0.0,0.0,0.0,0.0,0.0,0.0,0.0,0.0,0.0,0.0,0.0,0.0,0.0,0.0,0.0,0.0,0.0,0.0,0.0,0.0,0.5395,0.5395,0.5395,0.5395,0.5395,0.5395,0.5395,0.5487,0.5487,0.5395,0.5497,0.5504,0.5259,0.3017,0.1911,0.1647,0.1276,0.161,0.2447,0.325,0.3671,0.373,0.3035,0.2234,0.1354,0.0,0.0,0.0,0.0,0.0,0.0,0.0,0.0,0.0,0.0,0.0,0.0,0.0,0.0,0.0,0.0,0.0,0.0,0.3604,0.3604,0.3604,0.3604,0.3751,0.3894,0.4003,0.4177,0.4143,0.3902,0.3789,0.3563,0.3253,0.3488,0.3593,0.3604,0.3604,0.3604,0.3604,0.3774,0.3878,0.3944,0.4099,0.4165,0.0,0.0,0.0,0.0,0.0,0.0,0.0,0.0,0.0,0.0,0.0,0.0,0.0,0.0,0.0,0.0,0.4491,0.4491,0.0,0.0,0.0,0.0,0.0,0.0,0.0,0.0,0.0,0.0,0.0,0.0,0.0,0.0,0.0,0.0,0.0,0.0,0.0,0.0,0.0,0.0,0.0,0.0,0.0,0.0,0.0,0.0,0.0,0.0,0.0,0.0,0.5368,0.5371,0.532,0.532,0.53,0.5255,0.5255,0.5303,0.5392,0.5408,0.4784,0.3618,0.2287,0.2016,0.2518,0.2406,0.2646,0.3209,0.4007,0.4015,0.3466,0.2926,0.2294,0.1625,0.0,0.0,0.0,0.0,0.0,0.0,0.0,0.0,0.0,0.0,0.0,0.0,0.0,0.0,0.0,0.0,0.0,0.0,0.3604,0.3604,0.3604,0.3604,0.4114,0.4542,0.4894,0.4577,0.4317,0.4102,0.4028,0.3882,0.3614,0.3618,0.3613,0.3604,0.3604,0.3604,0.3644,0.4176,0.4186,0.3876,0.4613,0.4618,0.4223,0.0,0.0,0.0,0.0,0.0,0.0,0.0,0.0,0.0,0.0,0.0,0.0,0.0,0.4491,0.4491,0.4491,0.0,0.0,0.0,0.0,0.0,0.0,0.0,0.0,0.0,0.0,0.0,0.0,0.0,0.0,0.0,0.0,0.0,0.0,0.0,0.0,0.0,0.0,0.0,0.0,0.0,0.0,0.0,0.0,0.0,0.0,0.0,0.0,0.0,0.531,0.5317,0.51,0.5096,0.5026,0.4887,0.4887,0.507,0.5382,0.5408,0.3445,0.0232,0.3828,0.4179,0.2285,0.3247,0.3785,0.4069,0.4832,0.5226,0.5176,0.3384,0.272,0.2592,0.0,0.0,0.0,0.0,0.0,0.0,0.0,0.0,0.0,0.0,0.0,0.0,0.0,0.0,0.0,0.0,0.0,0.0,0.3604,0.3604,0.3604,0.3604,0.3751,0.4065,0.455,0.5143,0.5189,0.4669,0.4313,0.4514,0.5194,0.4099,0.3807,0.4154,0.4154,0.4154,0.4198,0.4783,0.5164,0.5327,0.5029,0.4987,0.5062,0.0,0.0,0.0,0.0,0.0,0.0,0.0,0.0,0.0,0.0,0.0,0.0,0.4491,0.4491,0.4491,0.4491,0.0,0.0,0.0,0.0,0.0,0.0,0.0,0.0,0.0,0.0,0.0,0.0,0.0,0.0,0.0,0.0,0.0,0.0,0.0,0.0,0.0,0.0,0.0,0.0,0.0,0.0,0.0,0.0,0.0,0.0,0.0,0.0,0.0,0.5302,0.503,0.4951,0.4951,0.4931,0.4887,0.4809,0.483,0.4984,0.5126,0.4442,0.3183,0.371,0.3977,0.4063,0.4466,0.471,0.4813,0.5169,0.5354,0.5176,0.3384,0.3143,0.352,0.0,0.0,0.0,0.0,0.0,0.0,0.0,0.0,0.0,0.0,0.0,0.0,0.0,0.0,0.0,0.0,0.0,0.0,0.0,0.3953,0.3976,0.3686,0.3631,0.4038,0.4971,0.5884,0.6142,0.5728,0.5004,0.4756,0.4965,0.4341,0.4172,0.4413,0.4648,0.4761,0.4805,0.5394,0.5717,0.5801,0.5693,0.5698,0.5757,0.0,0.0,0.0,0.0,0.0,0.0,0.0,0.0,0.0,0.0,0.0,0.0,0.4814,0.4708,0.4491,0.0,0.0,0.0,0.0,0.0,0.0,0.0,0.0,0.0,0.0,0.0,0.0,0.0,0.0,0.0,0.0,0.0,0.0,0.0,0.0,0.0,0.0,0.0,0.0,0.0,0.0,0.0,0.0,0.0,0.0,0.0,0.0,0.0,0.0,0.5242,0.4891,0.483,0.4826,0.4799,0.4735,0.4672,0.4646,0.4676,0.4807,0.4723,0.4461,0.3994,0.4264,0.5031,0.4965,0.506,0.5223,0.5257,0.5341,0.5236,0.375,0.3606,0.3939,0.0,0.0,0.0,0.0,0.0,0.0,0.0,0.0,0.0,0.0,0.0,0.0,0.0,0.0,0.0,0.0,0.0,0.0,0.0,0.0,0.4574,0.3839,0.3766,0.4412,0.582,0.6636,0.7005,0.6915,0.5883,0.4877,0.3919,0.4487,0.4678,0.4587,0.513,0.5394,0.5416,0.6023,0.604,0.5749,0.6465,0.6569,0.6314,0.6505,0.0,0.0,0.0,0.0,0.0,0.0,0.0,0.0,0.0,0.0,0.0,0.541,0.5101,0.4577,0.0,0.0,0.0,0.0,0.0,0.0,0.0,0.0,0.0,0.0,0.0,0.0,0.0,0.0,0.0,0.0,0.0,0.0,0.0,0.0,0.0,0.0,0.0,0.0,0.0,0.0,0.0,0.0,0.0,0.0,0.0,0.0,0.0,0.589,0.5214,0.4809,0.467,0.467,0.4627,0.0,0.4491,0.4491,0.4491,0.4491,0.4505,0.4515,0.4494,0.4816,0.5303,0.4874,0.4982,0.5344,0.5196,0.5237,0.5292,0.435,0.4056,0.4131,0.0,0.0,0.0,0.0,0.0,0.0,0.0,0.0,0.0,0.0,0.0,0.0,0.0,0.0,0.0,0.0,0.0,0.0,0.0,0.0,0.4574,0.3839,0.454,0.5091,0.5421,0.6724,0.7059,0.6371,0.6136,0.6103,0.6255,0.5508,0.5411,0.583,0.5943,0.6007,0.605,0.6598,0.6929,0.7035,0.6653,0.6721,0.7005,0.6483,0.6428,0.0,0.0,0.0,0.0,0.0,0.0,0.0,0.546,0.5792,0.6182,0.6312,0.577,0.0,0.0,0.0,0.0,0.0,0.0,0.0,0.0,0.0,0.0,0.0,0.0,0.0,0.0,0.0,0.0,0.0,0.0,0.0,0.0,0.0,0.0,0.0,0.0,0.0,0.0,0.0,0.0,0.0,0.0,0.0,0.0,0.0,0.0,0.6439,0.5238,0.4573,0.4539,0.4539,0.4525,0.0,0.4491,0.4491,0.4491,0.4491,0.4562,0.464,0.4547,0.4633,0.4836,0.486,0.4928,0.5033,0.5233,0.5365,0.5292,0.435,0.4549,0.5142,0.0,0.0,0.0,0.0,0.0,0.0,0.0,0.0,0.0,0.0,0.0,0.0,0.0,0.0,0.0,0.0,0.0,0.0,0.0,0.0,0.5112,0.3952,0.4855,0.5398,0.5398,0.6775,0.719,0.6583,0.6736,0.66,0.6182,0.5867,0.5894,0.6206,0.6477,0.6583,0.6605,0.6873,0.7108,0.7246,0.7017,0.7194,0.7573,0.7333,0.7411,0.7643,0.7643,0.0,0.0,0.0,0.0,0.0,0.0,0.0,0.6669,0.702,0.6561,0.584,0.0,0.0,0.0,0.0,0.0,0.0,0.0,0.0,0.0,0.0,0.0,0.0,0.0,0.0,0.0,0.0,0.0,0.0,0.0,0.0,0.0,0.0,0.0,0.0,0.0,0.0,0.0,0.0,0.0,0.0,0.0,0.7182,0.6588,0.6588,0.5226,0.4491,0.4491,0.4491,0.4491,0.4491,0.4491,0.4491,0.4491,0.4491,0.4576,0.468,0.4556,0.4621,0.4806,0.4887,0.4928,0.5012,0.5306,0.5395,0.5326,0.4855,0.5038,0.5433,0.0,0.0,0.0,0.0,0.0,0.0,0.0,0.0,0.0,0.0,0.0,0.0,0.0,0.0,0.0,0.0,0.0,0.0,0.0,0.0,0.0,0.4246,0.5087,0.5586,0.5586,0.6942,0.7471,0.708,0.7417,0.0,0.0,0.0,0.6373,0.6437,0.6836,0.7033,0.7073,0.702,0.7033,0.7114,0.733,0.7635,0.8005,0.8223,0.851,0.8804,0.8804,0.8321,0.7696,0.7696,0.0,0.0,0.0,0.0,0.7101,0.7723,0.7341,0.6589,0.0,0.0,0.0,0.0,0.0,0.0,0.0,0.0,0.0,0.0,0.0,0.0,0.0,0.0,0.0,0.0,0.0,0.0,0.0,0.0,0.0,0.0,0.0,0.0,0.0,0.0,0.0,0.0,0.0,0.0,0.8758,0.7396,0.6588,0.6588,0.5226,0.4491,0.4491,0.4491,0.4491,0.4491,0.4491,0.4491,0.4491,0.4491,0.4559,0.4646,0.4545,0.4634,0.4843,0.4867,0.4935,0.5073,0.5237,0.5351,0.5392,0.5365,0.5371,0.5395,0.0,0.0,0.0,0.0,0.0,0.0,0.0,0.0,0.0,0.0,0.0,0.0,0.0,0.0,0.0,0.0,0.0,0.0,0.0,0.0,0.0,0.4981,0.5581,0.5935,0.5935,0.7468,0.8,0.743,0.0,0.0,0.0,0.0,0.0,0.7306,0.0,0.7168,0.741,0.7134,0.7168,0.741,0.7168,0.7575,0.8315,0.807,0.8305,0.8804,0.8804,0.8321,0.7696,0.7696,0.7643,0.0,0.0,0.0,0.0,0.0,0.0,0.0,0.0,0.0,0.0,0.0,0.0,0.0,0.0,0.0,0.0,0.0,0.0,0.0,0.0,0.0,0.0,0.0,0.0,0.0,0.0,0.0,0.0,0.0,0.0,0.0,0.0,0.0,0.0,0.0,0.0,0.0,0.8758,0.7396,0.6588,0.6588,0.5226,0.4491,0.4491,0.4491,0.4491,0.4491,0.4491,0.4491,0.4491,0.4491,0.4501,0.4518,0.4498,0.4511,0.4563,0.4667,0.4809,0.4918,0.4969,0.5135,0.5378,0.5209,0.5247,0.5395,0.0,0.0,0.0,0.0,0.0,0.0,0.0,0.0,0.0,0.0,0.0,0.0,0.0,0.0,0.0,0.0,0.0,0.0,0.0,0.0,0.0,0.5357,0.5837,0.6102,0.6102,0.7201,0.7699,0.7513,0.0,0.0,0.0,0.7194,0.7255,0.0,0.0,0.0,0.0,0.7053,0.7073,0.7221,0.7255,0.7531,0.0,0.0,0.8337,0.8584,0.8751,0.8593,0.8315,0.8315,0.8315,0.8315,0.0,0.0,0.0,0.0,0.0,0.0,0.0,0.0,0.0,0.0,0.0,0.0,0.0,0.0,0.0,0.0,0.0,0.0,0.0,0.0,0.0,0.0,0.0,0.0,0.0,0.0,0.0,0.0,0.0,0.0,0.0,0.0,0.0,0.0,0.0,0.8378,0.8785,0.7396,0.6588,0.6588,0.5226,0.4491,0.4491,0.4491,0.4491,0.4491,0.4491,0.4491,0.4491,0.4491,0.4491,0.4491,0.4491,0.4491,0.4508,0.4721,0.4857,0.4904,0.5101,0.5279,0.5375,0.5186,0.5226,0.5382,0.0,0.0,0.0,0.0,0.0,0.0,0.0,0.0,0.0,0.0,0.0,0.0,0.0,0.0,0.0,0.0,0.0,0.0,0.0,0.0,0.0,0.0,0.0,0.6587,0.6587,0.7301,0.7691,0.0,0.0,0.0,0.7134,0.7303,0.7235,0.0,0.7,0.0,0.0,0.0,0.0,0.0,0.0,0.0,0.0,0.0,0.0,0.0,0.8731,0.8804,0.8804,0.8804,0.8804,0.8804,0.0,0.0,0.0,0.0,0.0,0.0,0.0,0.0,0.0,0.0,0.0,0.0,0.0,0.0,0.0,0.0,0.0,0.0,0.0,0.0,0.0,0.0,0.0,0.0,0.0,0.0,0.0,0.0,0.0,0.0,0.0,0.0,0.0,0.0,0.0,0.8612,0.8785,0.7396,0.6588,0.6588,0.5226,0.4491,0.4491,0.4491,0.4491,0.4491,0.4491,0.4491,0.4491,0.4491,0.4491,0.4491,0.4491,0.4511,0.4566,0.4765,0.4874,0.4961,0.5179,0.5327,0.5375,0.5186,0.5226,0.5378,0.0,0.0,0.0,0.0,0.0,0.0,0.0,0.0,0.0,0.0,0.0,0.0,0.0,0.0,0.0,0.0,0.0,0.0,0.0,0.0,0.0,0.0,0.0,0.0,0.762,0.8349,0.0,0.0,0.0,0.0,0.7457,0.7168,0.7013,0.7,0.7,0.7174,0.745,0.0,0.0,0.0,0.0,0.0,0.0,0.0,0.0,0.0,0.0,0.0,0.0,0.8804,0.8804,0.0,0.0,0.0,0.0,0.0,0.0,0.0,0.0,0.0,0.0,0.0,0.0,0.0,0.0,0.0,0.0,0.0,0.0,0.0,0.0,0.0,0.0,0.0,0.0,0.0,0.0,0.0,0.0,0.0,0.0,0.0,0.0,0.0,0.0,0.0,0.0,0.8049,0.8752,0.7396,0.6588,0.6588,0.5226,0.4491,0.4491,0.4491,0.4491,0.4491,0.4491,0.4491,0.4491,0.4491,0.4491,0.4491,0.4491,0.4573,0.468,0.4697,0.4867,0.5076,0.4958,0.5114,0.5375,0.5186,0.5226,0.5392,0.0,0.0,0.0,0.0,0.0,0.0,0.0,0.0,0.0,0.0,0.0,0.0,0.0,0.9644,0.9263,0.8831,0.0,0.0,0.0,0.0,0.0,0.0,0.0,0.0,0.0,0.0,0.0,0.0,0.0,0.8143,0.7497,0.7779,0.7582,0.7,0.7,0.706,0.7174,0.7046,0.0,0.0,0.0,0.0,0.0,0.0,0.0,0.0,0.0,0.0,0.0,0.0,0.0,0.0,0.0,0.0,0.0,0.0,0.0,0.0,0.0,0.0,0.0,0.0,0.0,0.0,0.0,0.0,0.0,0.0,0.0,0.0,0.0,0.0,0.0,0.0,0.0,0.0,0.0,0.0,0.0,0.0,0.0,0.0,0.0,0.0,0.0,0.0,0.0,0.0,0.8103,0.7589,0.7101,0.6615,0.5655,0.4921,0.4519,0.4491,0.4491,0.4491,0.4491,0.4491,0.4519,0.4948,0.5136,0.5164,0.5632,0.5413,0.4755,0.5406,0.543,0.5093,0.5042,0.5179,0.5375,0.5186,0.5226,0.5382,0.0,0.0,0.0,0.0,0.0,0.0,0.0,0.0,0.0,0.0,0.0,0.0,0.0,0.0,0.9536,0.8857,0.8804,0.0,0.0,0.0,0.0,0.0,0.0,0.0,0.0,0.0,0.0,0.0,0.0,0.0,0.0,0.8107,0.7903,0.7299,0.7214,0.7114,0.0,0.0,0.0,0.7672,0.0,0.0,0.8263,0.0,0.0,0.0,0.0,0.0,0.0,0.0,0.0,0.0,0.0,0.0,0.0,0.0,0.0,0.0,0.0,0.0,0.0,0.0,0.0,0.0,0.0,0.0,0.0,0.0,0.0,0.0,0.0,0.0,0.0,0.0,0.0,0.0,0.0,0.0,0.0,0.0,0.0,0.0,0.0,0.0,0.0,0.0,0.0,0.0,0.7723,0.7477,0.6988,0.6253,0.576,0.5191,0.4519,0.4491,0.4491,0.4491,0.4732,0.4842,0.4869,0.5546,0.5869,0.5928,0.6773,0.65,0.5468,0.5902,0.5825,0.5441,0.5191,0.5223,0.5382,0.5247,0.5274,0.5382,0.0,0.0,0.0,0.0,0.0,0.0,0.0,0.0,0.0,0.9814,0.0,0.0,0.0,0.0,0.0,0.8883,0.8831,0.8831,0.8804,0.8804,0.0,0.0,0.0,0.0,0.0,0.0,0.0,0.0,0.0,0.0,0.0,0.0,0.7925,0.7892,0.7645,0.735,0.7046,0.0,0.7672,0.8034,0.0,0.9184,0.8936,0.0,0.0,0.0,0.8811,0.8804,0.0,0.0,0.0,0.0,0.0,0.0,0.0,0.0,0.0,0.0,0.0,0.0,0.0,0.0,0.0,0.0,0.0,0.0,0.0,0.0,0.0,0.0,0.0,0.0,0.0,0.0,0.0,0.0,0.0,0.0,0.0,0.0,0.0,0.0,0.0,0.0,0.0,0.0,0.0,0.7723,0.7696,0.702,0.6312,0.5597,0.5542,0.5218,0.4546,0.4519,0.4491,0.4519,0.5164,0.5487,0.5515,0.6258,0.6615,0.668,0.7766,0.7728,0.6894,0.614,0.5981,0.6116,0.5367,0.5213,0.5388,0.5388,0.5388,0.5388,0.0,0.0,0.0,0.0,0.0,0.0,0.0,0.0,0.0,0.0,0.0,0.0,1.1367,1.0856,1.0236,0.9588,0.951,0.9309,0.8831,0.8804,0.8804,0.8804,0.8804,0.8804,0.0,0.0,0.0,0.0,0.0,0.0,0.0,0.0,0.0,0.0,0.807,0.7956,0.7646,0.7551,0.0,0.0,0.9298,0.9747,0.0,0.0,0.0,0.0,0.0,0.8804,0.0,0.0,0.8804,0.8804,0.0,0.0,0.0,0.0,0.0,0.0,1.0939,0.0,0.0,0.0,0.0,0.0,0.0,0.0,0.0,0.0,0.0,0.0,0.0,0.0,0.0,0.0,0.0,0.0,0.0,0.0,0.0,0.0,0.0,0.0,0.0,0.0,0.0,0.0,0.8619,0.8268,0.7723,0.7503,0.7316,0.7095,0.6583,0.5955,0.5218,0.4732,0.4491,0.4491,0.4677,0.503,0.5515,0.6258,0.6885,0.7456,0.8263,0.8489,0.8199,0.7158,0.6467,0.5959,0.515,0.4969,0.5196,0.5196,0.5196,0.5209,0.0,0.0,0.0,0.0,0.0,0.0,0.0,0.0,0.0,0.0,0.0,0.0,1.1839,1.1302,1.0656,0.9876,0.9788,0.951,0.8831,0.8804,0.8804,0.8804,0.8804,0.8804,0.8804,0.0,0.0,0.0,0.0,0.0,0.0,0.0,0.0,0.0,0.0,0.0,0.0,0.0,0.0,0.0,0.9818,0.0,0.0,1.0686,1.0466,0.0,0.0,0.0,0.9211,0.9211,0.9035,0.0,0.0,0.0,0.0,0.0,0.0,0.0,0.0,0.0,0.0,0.0,0.0,0.0,0.0,0.8677,0.0,0.0,0.0,0.0,0.0,0.0,0.0,0.0,0.0,0.0,0.0,0.0,0.0,0.0,0.0,0.0,0.0,0.0,0.0,0.8778,0.8507,0.8156,0.7723,0.761,0.7563,0.7586,0.7534,0.6732,0.5109,0.4704,0.4491,0.4491,0.4787,0.5273,0.5982,0.6718,0.7456,0.8182,0.8619,0.8804,0.8712,0.7417,0.6682,0.6276,0.5129,0.487,0.51,0.51,0.51,0.511,0.0,0.0,0.0,0.0,0.0,0.0,0.0,0.0,0.0,0.0,1.2452,1.2642,1.1996,1.1613,1.1011,1.0092,0.9943,0.9581,0.8837,0.8798,0.8804,0.8804,0.8883,0.8883,0.8804,0.0,0.0,0.0,0.0,0.0,0.0,0.0,0.0,0.0,0.0,0.0,0.0,0.0,0.0,0.9748,1.0589,1.0965,0.0,0.0,1.1441,0.0,1.0838,1.0415,0.9891,0.9814,0.9458,0.0,0.0,0.0,0.0,0.0,1.0389,0.0,0.0,0.0,0.0,0.0,0.0,0.0,0.9035,0.8857,0.8804,0.0,0.0,0.0,0.0,0.0,0.0,0.0,0.0,0.0,0.0,0.0,0.0,0.0,0.0,0.0,0.0,0.8427,0.8804,0.8804,0.8182,0.783,0.783,0.7572,0.7482,0.7539,0.8205,0.7356,0.4849,0.4708,0.4649,0.4625,0.5242,0.5923,0.6615,0.7369,0.8103,0.8804,0.8804,0.8804,0.8699,0.7289,0.6781,0.6728,0.526,0.4836,0.5049,0.5049,0.5049,0.5052,0.0,0.0,0.0,0.0,0.0,0.0,0.0,0.0,0.0,0.0,1.2452,1.2856,1.2691,1.2623,1.2254,1.1493,1.0922,1.0102,0.8892,0.881,0.8804,0.8804,0.9309,0.9361,0.8804,0.9342,0.0,0.0,0.0,0.0,0.0,0.0,0.0,0.0,0.0,0.0,0.0,0.0,0.0,1.1361,1.1531,0.0,1.2437,1.1972,1.1715,1.1541,1.099,1.0712,1.0517,0.0,1.0064,1.0218,0.0,0.0,0.0,0.0,0.0,0.0,0.0,0.0,0.0,0.0,0.0,0.0,0.964,0.9185,0.8804,0.0,0.0,0.0,0.0,0.0,0.0,0.0,0.0,0.0,0.0,0.0,0.0,0.0,0.0,0.0,0.0,0.8725,0.8804,0.8804,0.8672,0.8593,0.8593,0.799,0.7907,0.8517,0.7555,0.6971,0.6846,0.6036,0.5529,0.53,0.5665,0.6104,0.6615,0.7369,0.8103,0.8804,0.8804,0.8804,0.8725,0.7857,0.7155,0.6512,0.5084,0.4644,0.4775,0.4775,0.4775,0.4796,0.0,0.0,0.0,0.0,0.0,0.0,0.0,0.0,0.0,1.2212,1.2666,1.2905,1.2905,1.2905,1.2593,1.1857,1.1493,1.0594,0.8909,0.9126,0.9142,0.8811,0.9106,0.9133,0.8811,0.914,0.9133,0.0,0.0,0.0,0.0,0.0,0.0,0.0,0.0,0.0,0.0,0.0,1.0889,1.1789,1.1789,0.0,1.2847,1.2476,1.2344,1.2295,1.1965,1.1609,1.1191,1.0517,1.0517,0.0,0.0,1.0038,1.044,0.0,1.1291,1.1525,0.0,0.0,0.0,1.1898,0.0,0.0,0.0,0.9536,0.9211,0.8857,0.0,0.0,0.0,0.0,0.0,0.0,0.0,0.0,0.0,0.0,0.0,0.0,0.0,0.0,0.0,0.8804,0.8804,0.8804,0.8804,0.8804,0.8804,0.8454,0.8195,0.8107,0.7111,0.6848,0.7404,0.6642,0.6077,0.5692,0.5846,0.6284,0.7009,0.7477,0.8103,0.8804,0.8804,0.8804,0.8752,0.7996,0.7482,0.702,0.5574,0.511,0.5204,0.4832,0.4691,0.4701,0.0,0.0,0.0,0.0,0.0,0.0,0.0,0.0,0.0,1.2876,1.3065,1.3065,0.0,0.0,0.0,0.0,0.0,1.1074,0.0,0.0,0.0,0.9101,0.9263,0.9263,0.9008,0.9106,0.9061,0.0,0.0,0.0,0.0,0.0,0.0,0.0,0.0,0.0,0.0,0.0,0.0,1.1996,0.0,1.2369,1.2905,1.2905,1.2905,1.2905,1.2905,1.2535,1.1898,1.1216,0.0,1.1149,1.0889,1.0939,0.0,0.0,0.0,0.0,0.0,0.0,0.0,0.0,0.0,1.1745,0.0,0.0,0.0,0.9031,0.0,0.0,0.0,0.0,0.0,0.0,0.0,0.0,0.0,0.0,0.0,0.0,0.0,0.0,0.0,0.8725,0.8804,0.8804,0.8804,0.8804,0.8804,0.8672,0.8315,0.7691,0.7111,0.7079,0.7653,0.723,0.6762,0.6252,0.6387,0.68,0.746,0.7771,0.8235,0.8804,0.8804,0.8804,0.8752,0.8156,0.791,0.7777,0.6276,0.5722,0.5661,0.507,0.4761,0.4646,0.0,0.0,0.0,0.0,0.0,0.0,0.0,0.0,0.0,1.3437,0.0,0.0,0.0,0.0,0.0,0.0,0.0,0.0,1.1209,0.0,0.0,1.0048,1.0939,1.0889,0.971,1.0269,0.9987,0.0,0.0,0.0,0.0,0.0,0.0,0.0,0.9413,0.0,0.0,0.0,1.2107,0.0,1.2774,1.2832,0.0,1.2905,1.2905,1.2905,1.2905,1.2856,1.2666,0.0,1.2113,1.2437,0.0,1.149,0.0,0.0,0.0,0.0,0.0,0.0,0.0,0.0,1.338,0.0,0.0,0.0,1.0459,0.9377,0.0,0.0,0.0,0.0,0.0,0.0,0.0,0.0,0.0,0.0,0.0,0.0,0.0,0.0,0.0,0.0,0.8804,0.8804,0.8804,0.8804,0.8804,0.8182,0.8074,0.8618,0.7961,0.7907,0.8624,0.8566,0.8182,0.7498,0.815,0.8176,0.7691,0.8374,0.8725,0.8804,0.8804,0.8804,0.8804,0.8699,0.8672,0.8533,0.7047,0.6077,0.5517,0.5434,0.503,0.4515,0.0,0.0,0.0,0.0,0.0,0.0,0.0,0.0,0.0,0.0,0.0,0.0,0.0,0.0,0.0,0.0,0.0,1.241,0.0,0.0,0.0,1.0971,1.1124,1.0965,1.0389,1.0261,0.9943,0.9387,0.8982,0.0,0.0,0.0,0.0,0.0,0.951,0.0,1.0838,0.0,0.0,0.0,0.0,0.0,0.0,1.2905,1.2905,1.2905,1.2905,1.2905,1.2886,0.0,1.2997,0.0,0.0,0.0,0.0,0.0,0.0,0.0,0.0,0.0,0.0,0.0,0.0,0.0,0.0,0.0,1.1193,0.0,0.0,0.0,0.0,0.0,0.0,0.0,0.0,0.0,0.0,0.0,0.0,0.0,0.0,0.0,0.0,0.0,0.0,0.0,0.0,0.8804,0.8804,0.8507,0.8467,0.8798,0.85,0.8493,0.8798,0.8791,0.8646,0.8342,0.8646,0.8646,0.8348,0.8672,0.8804,0.8804,0.8804,0.8804,0.8804,0.8804,0.8804,0.8725,0.8129,0.7149,0.6091,0.5651,0.5085,0.4543,0.0,0.0,0.0,0.0,0.0,0.0,0.0,0.0,0.0,0.0,0.0,0.0,1.4949,1.4422,0.0,0.0,0.0,1.2905,0.0,0.0,1.1886,1.1876,1.1561,0.0,0.0,0.0,0.0,0.0,0.0,0.0,0.0,0.0,0.0,0.0,0.0,1.0338,1.0864,0.0,0.0,1.2905,1.2905,1.2974,1.3037,1.2954,1.2983,1.3047,1.3047,1.3076,1.3174,1.3555,1.373,0.0,1.4036,0.0,0.0,0.0,0.0,0.0,1.428,0.0,0.0,0.0,0.0,0.0,0.0,0.0,0.0,0.0,0.0,0.0,0.0,0.0,0.0,0.0,0.0,0.0,0.0,0.0,0.0,0.0,0.0,0.0,0.0,0.0,0.0,0.8804,0.8804,0.8804,0.8804,0.8804,0.8804,0.8804,0.8804,0.8804,0.8804,0.8804,0.8804,0.8804,0.8804,0.8804,0.8804,0.8804,0.8804,0.8804,0.8804,0.8804,0.8804,0.8804,0.8804,0.8804,0.8804,0.8023,0.6804,0.6064,0.525,0.4598,0.0,0.8804,0.0,0.0,0.0,0.0,0.0,0.0,0.0,0.0,0.0,0.0,0.0,0.0,0.0,0.0,0.0,1.2905,1.2899,0.0,1.2856,1.2874,1.2842,1.251,0.0,0.0,0.0,0.0,0.0,0.0,0.0,0.0,0.0,0.0,0.0,1.0788,1.0889,1.2289,1.2881,1.2905,1.2905,1.3125,1.3447,0.0,1.3135,1.3486,1.3486,0.0,0.0,1.3997,1.4297,0.0,0.0,0.0,0.0,0.0,0.0,0.0,0.0,0.0,0.0,1.5264,0.0,0.0,0.0,0.0,1.2649,0.0,0.0,0.0,0.0,0.0,0.0,0.0,0.0,0.0,0.0,0.0,0.0,0.0,0.0,0.0,0.0,0.0,0.0,0.8804,0.8804,0.8804,0.8804,0.8804,0.8804,0.8804,0.8804,0.8804,0.8804,0.8804,0.8804,0.8804,0.8804,0.8804,0.8804,0.8804,0.8804,0.8804,0.8804,0.8804,0.8804,0.8804,0.8804,0.8804,0.8804,0.8348,0.7584,0.6831,0.5691,0.4598,0.0,0.0,0.0,0.0,0.0,0.0,0.0,1.343,0.0,0.0,0.0,0.0,0.0,0.0,1.4948,0.0,0.0,1.2898,1.2905,1.29,0.0,0.0,0.0,1.2774,0.0,0.0,0.0,0.0,0.0,0.0,0.0,0.0,0.0,0.0,0.0,1.0788,0.0,0.0,0.0,0.0,0.0,1.3545,1.388,0.0,0.0,1.3899,1.3899,1.3929,0.0,1.4434,1.4629,1.4764,1.4922,1.5078,1.5176,1.5019,1.5078,0.0,0.0,0.0,1.5234,1.5381,0.0,0.0,0.0,0.0,0.0,0.0,0.0,0.0,0.0,0.0,0.0,0.0,0.0,0.0,0.0,0.0,0.0,0.0,0.0,0.0,0.0,0.0,0.0,0.8804,0.8804,0.8804,0.0,0.8804,0.8804,0.8804,0.8804,0.8804,0.8804,0.8804,0.8804,0.8804,0.8804,0.8804,0.8804,0.8804,0.8804,0.8804,0.8804,0.8804,0.8804,0.8804,0.8804,0.8804,0.8804,0.8348,0.7616,0.6858,0.629,0.5987,1.0838,0.0,0.0,0.0,0.0,0.0,0.0,0.0,0.0,0.0,1.6129,0.0,1.65,0.0,1.53,0.0,1.3841,1.3016,1.3308,1.3262,0.0,1.3445,1.3304,0.0,0.0,0.0,0.0,0.0,0.0,1.0038,0.0,0.0,0.0,0.0,0.0,0.0,0.0,0.0,1.2993,0.0,0.0,1.4121,0.0,0.0,1.4465,1.4328,0.0,1.4387,1.4601,1.4912,1.501,1.5049,1.5322,1.541,1.541,1.541,1.541,1.541,1.541,1.541,0.0,1.541,1.5527,0.0,1.5449,0.0,0.0,0.0,0.0,0.0,0.0,0.0,0.0,0.0,0.0,0.0,0.0,0.0,0.0,0.0,0.0,0.0,0.0,0.0,0.8804,0.8804,0.8804,0.8804,0.0,0.0,0.8804,0.8804,0.8804,0.8804,0.8804,0.8804,0.8804,0.8804,0.8804,0.8804,0.8804,0.8804,0.8804,0.8804,0.8804,0.8804,0.8804,0.8804,0.8804,0.8804,0.8804,0.8507,0.7996,0.7262,0.6993,0.7047,0.0,0.0,0.0,0.0,1.044,0.0,0.0,0.0,1.4971,0.0,1.6139,1.65,1.65,1.5775,1.559,1.6332,1.4251,0.0,1.4053,1.39,0.0,0.0,1.4068,1.386,1.3792,0.0,0.0,0.0,0.0,0.0,0.0,0.0,0.0,0.0,1.0241,0.0,1.0889,1.2314,1.3135,1.3613,1.4453,1.4795,1.4863,1.5254,1.5156,1.4795,1.4686,1.4979,1.541,1.541,1.541,1.541,1.541,1.541,1.541,1.541,1.541,1.541,1.541,1.541,1.541,1.541,0.0,0.0,0.0,0.0,1.4546,0.0,0.0,0.0,0.0,0.0,0.0,0.0,0.0,0.0,0.0,0.0,0.0,0.0,0.0,0.0,0.0,0.8804,0.8804,0.8804,0.8804,0.0,0.0,0.0,0.8804,0.8804,0.8804,0.8804,0.8804,0.8804,0.8804,0.8804,0.8804,0.8804,0.8804,0.8804,0.8804,0.8804,0.8804,0.8804,0.8804,0.8804,0.8804,0.8804,0.8804,0.8804,0.8725,0.8017,0.7723,0.7696,1.2387,1.1907,1.1491,0.0,1.1846,1.2715,0.0,0.0,0.0,0.0,1.6402,1.65,1.65,1.5786,1.5152,1.4755,1.3593,0.0,0.0,0.0,0.0,1.4598,1.49,1.4666,1.3826,1.4316,0.0,1.3068,0.0,0.0,1.2234,0.0,0.0,0.0,0.0,0.0,1.0889,1.2314,1.3301,1.3997,1.457,1.4971,0.0,0.0,1.5342,1.5244,1.5205,1.5283,1.541,1.541,1.541,1.541,1.541,1.541,1.541,1.541,1.541,1.541,1.541,1.541,1.541,1.541,1.5732,1.6065,0.0,0.0,0.0,0.0,0.0,0.0,0.0,0.0,0.0,0.0,0.0,0.0,0.0,0.0,0.0,0.0,0.0,0.0,0.9588,0.908,0.8804,0.8804,0.8804,0.0,0.0,0.0,0.0,0.8804,0.8804,0.8804,0.8804,0.8804,0.8804,0.8804,0.8804,0.8804,0.8804,0.8804,0.8804,0.8804,0.8804,0.8804,0.8804,0.8804,0.8804,0.8804,0.8804,0.8804,0.8778,0.8593,0.8182,0.7777,1.2905,0.0,0.0,1.2623,0.0,0.0,1.4583,0.0,0.0,1.6795,1.6651,0.0,1.6873,1.5945,1.4982,1.4177,1.3374,0.0,1.4374,0.0,0.0,1.5693,1.5845,1.5571,1.4866,1.4907,0.0,1.3753,0.0,0.0,1.3059,0.0,0.0,0.0,0.0,1.1455,0.0,1.3025,1.3984,1.4426,1.4883,0.0,0.0,1.5748,1.569,1.5439,1.5787,1.5671,1.541,1.541,1.541,1.541,1.541,1.541,1.541,1.541,1.541,1.541,1.541,1.541,1.541,1.541,1.5732,1.6046,1.585,1.5607,1.5133,0.0,0.0,0.0,0.0,0.0,0.0,0.0,0.0,0.0,0.0,0.0,0.0,0.0,0.0,0.0,1.0728,0.9814,0.9106,0.8831,0.0,0.0,0.0,0.0,0.0,0.8804,0.8904,0.8911,0.8804,0.8904,0.8904,0.8804,0.8804,0.8804,0.8804,0.8804,0.8804,0.8804,0.8804,0.8804,0.8804,0.8804,0.8804,0.8804,0.8804,0.8884,0.8951,0.8851,0.8533,0.8254,0.0,0.0,0.0,0.0,0.0,0.0,0.0,1.539,0.0,1.7155,0.0,1.671,1.7212,1.6049,1.4948,1.4233,0.0,1.3484,1.4881,1.4867,1.5532,1.717,1.6908,1.6574,1.6235,1.5429,0.0,0.0,0.0,0.0,0.0,0.0,0.0,0.0,0.0,0.0,0.0,1.4044,1.4869,0.0,1.5378,1.5613,1.5748,1.6397,1.6255,1.5748,1.6283,1.6036,1.541,1.541,1.541,1.541,1.541,1.541,1.541,1.541,1.541,1.541,1.541,1.541,1.542,1.5488,1.5811,1.6007,1.5654,1.584,1.5766,1.4538,1.3679,1.2879,0.0,0.0,0.0,0.0,0.0,0.0,0.0,0.0,0.0,0.0,0.0,0.0,0.0,0.0,0.0,0.0,0.0,0.0,0.0,0.0,0.0,0.8864,0.9044,0.0,0.8925,0.0,0.9044,0.8864,0.8824,0.8804,0.8804,0.8804,0.8804,0.8804,0.8804,0.8804,0.8804,0.8804,0.8804,0.8804,0.8804,0.8958,0.9184,0.8931,0.8884,0.8951,0.0,0.0,0.0,0.0,0.0,1.5596,1.602,1.6244,1.6417,1.6638,1.6563,1.6538,1.666,1.5549,1.4743,1.4607,1.3552,0.0,0.0,0.0,0.0,1.794,1.8361,1.7861,1.6405,1.6841,1.6004,0.0,0.0,0.0,0.0,0.0,0.0,0.0,0.0,0.0,1.3774,1.4489,0.0,1.5741,1.6153,1.6669,1.7246,1.7357,1.733,1.7163,1.668,1.6036,1.541,1.541,1.541,1.541,1.541,1.541,1.541,1.541,1.541,1.541,1.541,1.541,1.5498,1.5889,1.6036,1.6173,1.6404,1.6269,1.5853,1.4964,1.4348,1.3537,1.2074,0.0,0.0,0.0,0.0,0.0,0.0,0.0,0.0,0.0,0.0,0.0,0.0,0.0,0.0,0.0,0.0,0.0,0.0,0.0,0.0,0.0,0.8951,0.0,0.0,0.0,0.8951,0.9131,0.8898,0.8804,0.8804,0.8804,0.8804,0.8804,0.8804,0.8804,0.8804,0.8804,0.8804,0.8804,0.8804,0.8958,0.9204,0.9158,0.9291,0.9499,0.0,0.0,0.0,0.0,0.0,0.0,0.0,1.6476,0.0,1.6923,1.6688,1.6492,1.6465,1.5393,1.4698,1.4698,1.3597,1.3624,1.5296,1.5112,1.5688,1.7399,1.7721,0.0,1.6468,1.6634,1.602,1.4572,0.0,0.0,0.0,0.0,0.0,0.0,0.0,1.4229,0.0,0.0,0.0,1.5664,1.5859,1.6368,1.7062,1.744,1.7512,1.737,1.7149,1.6651,1.5995,1.5537,1.541,1.541,1.541,1.541,1.541,1.541,1.541,1.5459,1.5693,1.5752,1.5859,1.6299,1.6261,1.6153,1.6338,1.6045,1.5633,1.5235,1.4648,1.3726,1.2104,1.1139,0.0,0.0,0.0,0.0,0.0,0.0,0.0,0.0,0.0,0.0,0.0,0.0,0.0,0.0,0.0,0.0,0.0,0.0,0.0,0.0,0.0,0.0,0.0,0.0,0.0,0.8984,0.8851,0.8804,0.8804,0.8804,0.8804,0.8804,0.9159,0.9106,0.8804,0.8804,0.8804,0.8804,0.8804,0.9078,0.9452,0.9264,0.9619,1.0124,0.0,1.5611,0.0,0.0,1.6592,0.0,1.666,1.6575,1.6663,1.7137,1.681,1.6476,1.6422,1.5497,1.4903,1.4903,1.3873,1.3868,1.5379,1.5007,1.5395,1.6911,1.6971,1.6863,1.6585,1.6227,1.581,0.0,0.0,0.0,0.0,0.0,0.0,0.0,0.0,0.0,0.0,0.0,1.5497,1.5633,1.5633,1.6093,1.6782,1.7385,1.7525,1.7453,1.7486,1.7269,1.6799,1.5958,1.5635,1.5547,1.5547,1.5488,1.5439,1.5584,1.5526,1.5508,1.6039,1.6068,1.6065,1.6484,1.625,1.6007,1.6193,1.5791,1.5459,1.5654,1.4973,1.3882,1.2336,1.1413,0.0,0.0,0.0,0.0,0.0,0.0,0.0,0.0,0.0,0.0,0.0,0.0,0.0,0.0,0.0,0.971,0.9035,0.8937,0.0,0.0,0.0,0.9599,0.9397,0.0,0.9359,0.0,0.8838,0.8804,0.8804,0.8804,0.8804,0.8837,0.9432,0.9381,0.8891,0.8831,0.8804,0.8804,0.8804,0.9165,0.9653,0.9391,0.9853,1.0559,0.0,0.0,0.0,0.0,0.0,0.0,1.7225,1.6861,1.6513,1.6575,1.6538,1.6491,1.6498,1.5901,1.5521,1.5521,1.4748,1.4786,1.6026,1.589,1.6299,1.7477,1.7538,1.7313,1.6866,1.6581,1.6099,0.0,0.0,0.0,0.0,0.0,0.0,0.0,0.0,0.0,0.0,1.541,1.5777,1.6407,1.6407,1.6838,1.7495,1.7578,1.7863,1.8114,1.7483,1.7444,1.7575,1.684,1.6338,1.6036,1.6036,1.5732,1.5526,1.6208,1.5921,1.5565,1.6259,1.5982,1.5576,1.6046,1.5791,1.5684,1.6453,1.5985,1.5615,1.6414,1.5651,1.4422,1.3128,1.2235,1.1989,0.0,0.0,0.0,0.0,0.0,0.0,0.0,0.0,0.0,0.0,0.0,0.0,0.0,0.0,1.0415,0.9736,0.9369,0.9311,0.9633,0.0,0.9793,1.0003,0.9504,0.9224,0.9171,0.8904,0.8804,0.8804,0.8804,0.8804,0.8824,0.9112,0.9226,0.9151,0.8891,0.8804,0.8804,0.8804,0.9165,0.9708,0.9653,1.0057,1.0586,0.0,0.0,0.0,0.0,0.0,0.0,0.0,1.74,1.7036,1.7036,1.6713,1.6358,1.6008,1.5742,1.555,1.5417,1.4787,1.4816,1.5838,1.5481,1.5568,1.6252,1.6273,1.6321,1.6433,1.6033,1.5959,0.0,0.0,0.0,0.0,0.0,0.0,0.0,0.0,1.5557,1.5811,1.5527,1.5861,1.6598,1.6347,1.6862,1.7712,1.7712,1.8002,1.8356,1.7776,1.7728,1.7835,1.7304,1.6682,1.6095,1.6095,1.5977,1.597,1.6803,1.7,1.714,1.7859,1.7506,1.7001,1.7094,1.6477,1.5967,1.656,1.625,1.5977,1.657,1.5735,1.4826,1.4554,1.3032,1.2298,0.0,0.0,0.0,0.0,0.0,0.0,0.0,0.0,0.0,0.0,0.0,0.0,0.0,0.0,0.0,0.9865,0.9841,0.9813,0.9702,0.0,0.974,0.986,0.9626,0.9332,0.8951,0.9011,0.8951,0.8804,0.8804,0.9131,0.9714,1.0077,1.0158,1.0066,0.954,0.9332,0.9332,0.9332,0.9586,0.994,0.994,1.0238,1.0593,1.777,0.0,1.7983,0.0,1.8619,1.8468,1.8242,1.7877,1.7586,1.7423,1.7174,1.6697,1.5944,1.5864,1.5779,1.5607,1.5135,1.5124,1.5641,1.5257,1.5107,1.54,1.541,0.0,1.6085,1.5791,1.5977,1.6697,1.6543,0.0,0.0,0.0,0.0,0.0,1.5498,1.5586,1.5889,1.5684,1.5967,1.6523,1.6338,1.6776,1.7471,1.7471,1.7789,1.8148,1.7788,1.782,1.7969,1.7666,1.7103,1.6457,1.633,1.6464,1.6759,1.7204,1.7647,1.8137,1.8707,1.8346,1.7754,1.7756,1.708,1.6537,1.6924,1.663,1.6309,1.6494,1.5942,1.542,1.5346,1.399,1.3262,1.4337,0.0,0.0,0.0,0.0,0.0,0.0,0.0,1.5156,1.498,0.0,0.0,0.0,0.0,0.0,0.0,1.062,0.0,0.0,0.0,0.0,0.0,1.018,0.981,0.9065,0.9244,0.9191,0.8904,0.8904,0.9405,1.0249,1.0457,1.0545,1.048,0.9916,0.9715,0.9715,0.9715,0.986,1.0083,1.0083,1.0307,1.0593,1.8049,1.7777,1.7576,1.8129,1.7765,1.7612,1.8129,1.8191,1.8003,1.7473,1.7852,1.7752,1.6613,1.65,1.6429,1.6302,1.6107,1.5916,1.5717,1.5509,1.5371,0.0,0.0,1.5615,1.6085,1.6085,1.6279,1.6697,0.0,0.0,1.6687,0.0,1.6299,1.6648,1.5771,1.541,1.5449,1.5909,1.6095,1.6134,1.6512,1.6697,1.6697,1.6697,1.7002,1.7416,1.7406,1.7646,1.8008,1.8008,1.7715,1.7285,1.6833,1.7295,1.786,1.7348,1.7567,1.8043,1.8257,1.7759,1.7283,1.7556,1.7402,1.7308,1.7686,1.7233,1.657,1.6193,1.6416,1.6331,1.5139,1.5219,1.5049,1.3817,0.0,0.0,0.0,0.0,0.0,0.0,1.5049,1.4951,1.5361,0.0,0.0,0.0,0.0,0.0,0.0,0.0,0.0,1.2522,1.2049,0.0,1.1271,1.1293,1.0762,0.9702,0.9708,0.9519,0.9211,0.9211,0.9524,1.0087,0.9836,0.9876,1.0087,0.9806,0.9715,0.9715,0.9715,0.986,1.0083,1.0083,1.0307,1.0593,1.857,1.8607,1.8668,1.9208,1.9145,1.9095,1.9258,1.897,1.8682,1.8506,1.8329,1.8066,1.7702,1.7664,1.7585,0.0,1.6877,1.6459,0.0,1.5697,1.541,1.541,1.541,1.5762,1.6504,1.5928,1.6269,1.7607,0.0,0.0,0.0,1.6728,1.6436,1.629,1.6016,1.6025,1.6287,1.6465,1.6855,1.7383,1.7236,1.7344,1.7664,1.8238,1.88,1.9194,1.8818,1.9026,1.9288,1.83,1.792,1.7734,1.7305,1.775,1.848,1.8908,1.9157,1.9352,1.9529,1.8473,1.7513,1.8185,1.7834,1.7573,1.8493,1.9053,1.9073,1.8019,1.7677,1.7276,1.6314,1.5284,1.476,1.5213,1.4818,0.0,0.0,0.0,0.0,0.0,0.0,1.5264,0.0,1.5029,0.0,0.0,0.0,0.0,0.0,0.0,0.0,0.0,1.2432,0.0,1.2201,1.1605,1.1026,1.0515,1.0139,0.9826,0.9574,1.0911,1.1296,1.0958,1.1653,1.1677,1.1216,1.0554,1.0311,1.0311,1.0311,1.0372,1.0452,1.0452,1.0512,1.0593,1.8795,1.8845,1.892,1.9673,1.9635,1.9572,1.9773,1.9522,1.9221,1.9033,1.887,1.8731,1.8506,1.8694,0.0,1.7955,1.7468,1.7,1.6546,1.6065,1.5806,1.5806,1.5713,1.6107,1.7098,0.0,0.0,1.8008,1.7438,1.7353,1.7607,1.698,1.667,1.6574,1.6242,1.6309,1.6707,1.6814,1.7379,1.8235,1.8256,1.8543,1.9044,1.9595,1.9997,2.0211,1.9693,1.9624,1.964,1.8581,1.81,1.8061,1.8461,1.8944,1.9307,1.904,1.9767,2.05,1.9887,1.9111,1.8604,1.929,1.8809,1.8367,1.9134,1.9337,1.914,1.8501,1.7916,1.7367,1.6792,1.5992,1.5517,1.5837,1.5343,1.4934,1.4951,0.0,0.0,0.0,0.0,0.0,0.0,1.5322,0.0,0.0,0.0,0.0,0.0,0.0,0.0,1.364,1.3348,0.0,1.321,1.2654,1.2,1.1218,1.0458,1.008,1.0073,1.1175,1.1592,1.1533,1.2234,1.2451,1.2205,1.1725,1.1514,1.1514,1.1514,1.1327,1.1045,1.1045,1.1045,1.1045,1.8795,1.8619,1.8631,0.0,1.9384,0.0,1.9723,1.9798,1.9623,1.9121,1.9497,1.9623,1.9108,1.951,1.9329,1.8139,0.0,0.0,0.0,1.6521,1.6492,1.6436,1.6207,1.6617,1.7698,1.7464,1.7539,1.7969,1.7998,1.8008,1.7988,1.7126,1.6992,1.7344,1.6555,1.6387,1.6765,1.7048,1.771,1.8626,1.9371,2.0009,2.0526,2.0655,2.0732,2.0715,2.0195,1.983,1.9489,1.881,1.8419,1.8462,2.0009,2.059,2.0309,1.8298,1.9682,2.145,1.9554,1.9567,2.0222,2.06,2.011,1.9606,1.9863,1.8739,1.7733,1.8137,1.7523,1.6874,1.6752,1.7054,1.6902,1.5698,1.5797,1.5629,1.4437,0.0,0.0,0.0,0.0,0.0,0.0,1.585,1.5938,0.0,0.0,0.0,0.0,0.0,1.4322,1.541,1.4734,1.4339,1.4339,1.4279,1.3411,1.1795,1.0666,1.0294,1.0579,1.039,1.0894,1.1888,1.1958,1.2389,1.307,1.3009,1.3009,1.3009,1.3009,1.2543,1.1896,1.1896,1.1896,1.1896,0.0,0.0,1.951,1.9761,1.9698,1.966,1.9786,1.9798,1.9761,1.9635,1.9723,1.9761,1.9623,1.9723,1.9671,1.938,1.8825,1.8173,1.7385,1.681,1.6265,1.569,1.595,1.6362,1.6961,1.689,1.71,1.7529,1.7852,1.8008,1.7998,1.7471,1.7285,1.7406,1.7168,1.7161,1.7256,1.7637,1.7913,1.8221,1.9058,1.9497,1.9759,2.1101,2.211,2.2657,2.133,2.1576,2.2114,1.9487,1.9213,1.9944,1.9694,2.0526,2.1499,2.0963,2.1086,2.1242,2.0669,2.0033,1.9703,2.0491,2.0857,2.1218,2.2084,2.1982,2.1446,2.0621,1.9733,1.8745,1.7455,1.6779,1.62,1.5542,1.5507,1.5469,1.5157,1.5206,0.0,0.0,1.5615,1.5831,1.5928,1.6036,1.6193,0.0,0.0,0.0,0.0,1.595,1.5969,1.5918,1.5748,1.5657,1.5657,1.5041,1.3768,1.1795,1.0913,1.0526,1.0649,1.1797,1.2471,1.2757,1.3356,1.3756,1.3885,1.3243,1.3009,1.3009,1.3009,1.2887,1.2734,1.2734,1.2734,1.2734,1.9259,1.961,1.9798,1.9798,1.9798,1.9798,1.9798,1.9798,1.9798,1.9798,1.9798,1.9798,1.9798,1.9798,1.9798,1.9798,1.9423,1.8741,1.766,1.7437,1.6949,1.6122,1.6376,1.688,1.755,1.7394,1.7432,1.7666,1.79,1.8008,1.7998,1.7578,1.749,1.7666,1.7471,1.749,1.7686,1.791,1.8008,1.8144,1.965,2.0354,2.0623,2.1959,2.2811,2.3207,2.2453,2.2406,2.2486,2.0739,2.0351,2.059,2.0526,2.1144,2.197,2.2353,2.2268,2.1915,2.12,2.0837,2.0737,2.1001,2.1455,2.202,2.2594,2.2283,2.1731,2.1284,2.019,1.9034,1.8129,1.7093,1.6289,1.6024,1.5644,1.541,1.541,1.541,0.0,1.5684,1.5948,1.6173,1.6348,1.6897,1.7099,1.6728,0.0,0.0,1.6418,1.6787,1.6738,1.6114,1.629,1.6367,1.6367,1.5591,1.4607,1.3479,1.2235,1.1743,1.2004,1.2437,1.3093,1.3895,1.4105,1.4522,1.5018,1.4375,1.4085,1.4085,1.4085,1.3876,1.3554,1.3554,1.3554,1.3554,1.9522,1.9748,1.9798,1.9798,1.9798,1.9798,1.9798,1.9798,1.9798,1.9798,1.9798,1.9798,1.9798,1.9798,1.9747,1.9631,1.9631,1.9071,1.7688,1.7934,1.7737,1.6825,1.6999,1.7546,1.8386,1.8138,1.8008,1.8008,1.8008,1.8008,1.8008,1.7646,1.7666,1.7998,1.7637,1.7676,1.8008,1.8008,1.8008,1.8168,2.0257,2.1322,2.1784,2.2598,2.3067,2.3237,2.3275,2.2837,2.2202,2.2048,2.1552,2.1101,2.171,2.197,2.223,2.2884,2.3108,2.2845,2.165,2.182,2.2221,2.1832,2.202,2.2305,2.2393,2.1584,2.094,2.1386,2.0107,1.8871,1.8797,1.7652,1.6697,1.6697,1.5966,1.543,1.5498,0.0,1.5674,1.6144,1.631,1.6504,1.6853,1.7863,1.8053,1.6985,1.82,1.8359,1.6865,1.7246,1.7132,1.632,1.6631,1.6804,1.6804,1.5955,1.5482,1.5482,1.3892,1.3311,1.3683,1.3003,1.3539,1.4965,1.4626,1.5106,1.6056,1.5586,1.541,1.541,1.541,1.4991,1.4392,1.4392,1.4392,1.4392,1.9171,1.9497,1.9798,1.9798,1.9798,1.9798,1.9798,1.9798,1.9798,1.9798,1.9798,1.9798,1.9798,1.9798,1.9553,1.8939,1.8874,1.8501,1.766,1.746,1.7033,1.6258,1.6941,1.7442,1.7595,1.785,1.8008,1.8008,1.8008,1.8008,1.8008,1.7939,1.7949,1.8008,1.7939,1.7949,1.8008,1.8008,1.8008,1.811,1.9199,2.0107,2.091,2.1753,2.2831,2.3817,2.3439,2.3446,2.349,2.2364,2.232,2.2628,2.2063,2.2384,2.2944,2.3078,2.3108,2.3053,2.2845,2.2543,2.2397,2.2757,2.2556,2.2406,2.2869,2.2817,2.2708,2.2807,2.1456,2.0153,1.9763,1.8051,1.6697,1.6697,1.5966,1.5537,1.5938,0.0,1.6153,1.6541,1.7266,1.7734,1.7803,1.7972,1.8006,1.7812,1.773,1.7576,1.7328,1.7686,1.7686,1.723,1.7246,1.7285,1.7285,1.6095,1.5482,1.5482,1.4541,1.4123,1.4195,1.4739,1.5126,1.5405,1.5704,1.5905,1.6056,1.5586,1.541,1.541,1.541,1.5323,1.5196,1.5196,1.5196,1.5196,1.9409,1.9635,1.9798,1.9798,1.9798,1.9798,1.9798,1.9798,1.9798,1.9798,1.9798,1.9798,1.9798,1.9449,1.9228,1.9281,1.8581,1.814,1.8194,1.8207,1.7763,1.6694,1.7922,1.8919,1.9554,1.8996,1.8687,1.8687,1.8236,1.8008,1.8008,1.7773,1.7676,1.7676,1.7676,1.7803,1.8008,1.8008,1.8008,1.8076,1.8944,1.9814,2.0687,2.1553,2.2573,2.3541,2.3624,2.3603,2.3479,2.3164,2.3091,2.3047,2.2659,2.2793,2.3108,2.3108,2.3108,2.3108,2.3108,2.292,2.2782,2.3045,2.2907,2.2794,2.3045,2.3108,2.3195,2.354,2.2361,2.1175,2.0764,1.8912,1.7323,1.7105,1.6143,0.0,0.0,1.7185,1.7441,1.8019,1.8713,1.8916,1.8384,1.8744,1.8747,1.8061,1.8458,1.8445,1.7768,1.8081,1.8154,1.7734,1.7715,1.7715,1.7715,1.7135,1.6855,1.6821,1.5977,1.5701,1.5959,1.5809,1.6006,1.6495,1.6224,1.6369,1.6741,1.5791,1.5693,1.6044,1.5566,1.5557,1.5762,1.5498,1.541,1.541,1.9723,1.9798,1.9798,1.9798,1.9798,1.9798,1.9798,1.9798,1.9747,1.9553,1.9527,1.9475,1.9319,1.8768,1.8661,1.9228,1.8248,1.7852,1.8421,1.9051,1.8852,1.7609,1.9083,2.0322,2.1184,2.0171,1.9497,1.9299,1.8428,1.8008,1.7998,1.7539,1.7524,1.784,1.774,1.8018,1.8596,1.8395,1.8303,1.8327,1.8821,1.965,2.0655,2.1333,2.2218,2.3195,2.391,2.371,2.3208,2.3954,2.3684,2.3108,2.3108,2.3108,2.3108,2.3108,2.2975,2.2854,2.3047,2.3108,2.3108,2.3108,2.3108,2.3108,2.3108,2.3108,2.3271,2.3879,2.2964,2.1953,2.1483,1.9737,1.8154,1.7635,0.0,0.0,0.0,1.8352,1.8817,1.9692,2.0164,2.0066,1.9203,1.959,1.9428,1.8228,1.9152,1.9272,1.8208,1.8529,1.8559,1.813,1.8057,1.8057,1.8154,1.8057,1.8008,1.7974,1.727,1.7145,1.7496,1.674,1.6816,1.749,1.6741,1.6789,1.7295,1.6182,1.6093,1.6629,1.5956,1.5859,1.6056,1.5684,1.5498,1.541,1.9798,1.9798,1.9798,1.9798,1.9798,1.9798,1.9798,1.9798,1.9553,1.8874,1.8768,1.8528,1.7852,1.7715,1.7715,1.777,1.7649,1.7633,1.7688,1.9347,1.9901,1.8996,1.9981,2.0558,2.0655,2.0558,2.0107,1.9299,1.8428,1.8008,1.7998,1.7389,1.7848,1.9137,1.8709,1.9212,2.0365,1.9562,1.921,1.9144,1.8395,1.911,2.059,2.0655,2.171,2.3246,2.4336,2.4036,2.3271,2.4362,2.401,2.3108,2.3108,2.3108,2.3108,2.3108,2.2567,2.2156,2.2884,2.3108,2.3108,2.3108,2.3108,2.3108,2.3108,2.3108,2.3271,2.3879,2.3269,2.2377,2.155,2.0292,1.906,1.8118,0.0,0.0,1.8364,1.9061,1.9845,2.1107,2.128,2.1129,2.0673,2.0195,1.9509,1.8617,1.9066,1.9115,1.8578,1.9004,1.9043,1.8568,1.8178,1.8159,1.8549,1.8203,1.8008,1.8008,1.794,1.793,1.7959,1.7891,1.7891,1.7939,1.748,1.7324,1.7376,1.6804,1.6638,1.6697,1.6629,1.6406,1.6085,1.6056,1.5762,1.541,1.9798,1.9798,1.9798,1.9798,1.9798,1.9798,1.9798,2.0138,2.0048,1.9241,1.9214,1.9057,1.8478,1.8254,1.8453,1.9147,1.8976,1.9022,1.9498,2.0199,2.0872,2.1566,2.1466,2.1647,2.2144,2.1647,2.1227,2.091,2.0042,1.9342,1.8811,1.8828,1.867,1.8385,1.9111,1.9506,1.9686,1.9972,2.0107,2.0074,1.9759,2.0333,2.1396,2.1396,2.2125,2.3208,2.3998,2.3449,2.2567,2.3841,2.3436,2.2445,2.2944,2.3108,2.3108,2.3108,2.2537,2.197,2.2261,2.2353,2.2353,2.2353,2.2732,2.3108,2.3108,2.3384,2.3828,2.4393,2.4238,2.3651,2.2537,2.1419,2.0155,1.8631,0.0,1.8187,2.0074,2.0831,2.1655,2.2981,2.3443,2.2983,2.1326,2.0969,2.0313,1.9118,1.9434,1.9492,1.9062,1.9199,1.9326,1.9387,1.8724,1.8315,1.8217,1.8086,1.8008,1.8008,1.8008,1.8008,1.8008,1.8008,1.8008,1.7988,1.7568,1.7529,1.7715,1.6989,1.7019,1.7441,1.6631,1.6387,1.6445,1.6193,1.5811,1.5449,1.9798,1.9798,1.9798,1.9798,1.9798,1.9798,1.9798,2.0314,2.0409,1.9567,1.9458,1.935,1.9067,1.8615,1.887,2.0145,1.9849,1.9922,2.0638,2.0855,2.1481,2.2706,2.2457,2.2537,2.3078,2.2567,2.2156,2.1908,2.1302,2.0558,1.9705,1.9669,1.9363,1.8831,1.9678,2.0058,2.0151,2.0745,2.1005,2.0974,2.0719,2.1101,2.1908,2.1908,2.2524,2.3421,2.3853,2.3498,2.2899,2.3422,2.3112,2.2584,2.269,2.2884,2.3108,2.3108,2.2341,2.1491,2.1491,2.1491,2.1565,2.1815,2.2506,2.3108,2.3108,2.3409,2.391,2.4637,2.4788,2.4402,2.313,2.2352,2.1188,1.9132,1.8603,1.9146,2.1296,2.2082,2.2972,2.4446,2.4858,2.4282,2.2499,2.2165,2.1497,2.0088,2.0626,2.0785,2.0196,2.0019,1.9932,1.9902,1.9627,1.9209,1.8604,1.8203,1.8008,1.8008,1.8008,1.8008,1.8008,1.8008,1.8008,1.7988,1.7705,1.7744,1.7959,1.734,1.7447,1.792,1.7021,1.6777,1.6904,1.6623,1.6144,1.5674,1.9798,1.9798,1.9798,1.9798,1.9798,1.9798,1.9798,2.0327,2.0436,1.9701,1.9316,1.9182,1.9283,1.8533,1.8684,2.0262,1.9929,1.9934,2.0638,2.1207,2.1644,2.1992,2.2706,2.3108,2.3108,2.3108,2.2689,2.1908,2.1908,2.1459,2.06,1.9582,1.979,2.0973,2.0604,2.1099,2.2289,2.2031,2.1908,2.1815,2.0974,2.1144,2.1908,2.1908,2.2799,2.4004,2.4004,2.4324,2.4571,2.3176,2.3306,2.3735,2.2337,2.2445,2.3108,2.3108,2.1928,2.059,2.059,2.059,2.0814,2.1659,2.2506,2.3108,2.3108,2.3108,2.3434,2.4562,2.48,2.4415,2.3142,2.2915,2.2108,1.971,1.9297,1.9955,2.1737,2.253,2.3584,2.5398,2.5253,2.4826,2.4335,2.3798,2.2912,2.1507,2.2699,2.3036,2.2065,2.1644,2.0972,1.995,2.0888,2.0915,1.9923,1.8648,1.8008,1.8008,1.8008,1.8008,1.8008,1.8008,1.8008,1.8008,1.8008,1.8008,1.8008,1.8008,1.8008,1.8008,1.8008,1.7754,1.7383,1.7383,1.6858,1.6163,1.9798,1.9798,1.9798,1.9798,1.9798,1.9798,1.9798,2.0627,2.0968,2.0127,2.0335,2.0475,2.0245,2.024,2.0577,2.1378,2.147,2.1285,2.0742,2.0842,2.1255,2.1979,2.2706,2.3108,2.3108,2.3108,2.2975,2.2732,2.2732,2.2322,2.151,2.1416,2.1029,2.0475,2.1357,2.1732,2.1794,2.2457,2.2732,2.272,2.2463,2.2506,2.2732,2.2732,2.3275,2.4054,2.4443,2.427,2.398,2.453,2.4002,2.3057,2.2813,2.2914,2.3108,2.3108,2.1928,2.059,2.059,2.0139,1.989,2.0782,2.2051,2.3108,2.3108,2.3421,2.3941,2.4637,2.4583,2.4148,2.3428,2.2754,2.1718,2.0009,1.999,2.0764,2.2406,2.3035,2.4069,2.5984,2.6133,2.5438,2.3879,2.3607,2.2759,2.0974,2.1851,2.2328,2.2027,2.2572,2.2754,2.2459,2.2426,2.2309,2.2011,2.0239,1.9185,1.8911,1.9529,1.9497,1.8911,1.8911,1.8911,1.8911,1.8911,1.8911,1.8944,1.9562,1.9464,1.888,1.8561,1.8019,1.7383,1.7383,1.7021,1.6592,1.9798,1.9798,1.9798,1.9798,1.9798,1.9798,1.9798,2.0765,2.1313,2.0767,2.0966,2.1253,2.1545,2.1298,2.1446,2.2304,2.2117,2.1707,2.1069,2.0817,2.1131,2.208,2.2757,2.3108,2.3108,2.3108,2.3108,2.3108,2.3108,2.2854,2.2372,2.2101,2.1526,2.075,2.1592,2.1794,2.1556,2.2631,2.3108,2.3108,2.3108,2.3108,2.3108,2.3108,2.3459,2.4042,2.4381,2.4422,2.4371,2.4648,2.3846,2.2795,2.3288,2.3283,2.3108,2.3108,2.2156,2.1049,2.0687,2.0204,1.9944,2.0462,2.1604,2.2689,2.3035,2.359,2.406,2.4185,2.4213,2.3956,2.3058,2.2403,2.1604,2.0396,2.0391,2.1179,2.2917,2.3335,2.4253,2.6267,2.6499,2.5873,2.4253,2.4072,2.3599,2.2414,2.2478,2.2776,2.3184,2.377,2.3891,2.3514,2.3642,2.3651,2.342,2.2204,2.0911,1.9638,2.0721,2.0545,1.9309,1.9886,2.0019,1.9814,1.9814,1.9814,1.9857,2.0365,2.0074,1.9278,1.8994,1.8379,1.7637,1.7637,1.7363,1.7051,1.9798,1.9798,1.9798,1.9798,1.9798,1.9798,1.9798,2.0765,2.1493,2.1493,2.1336,2.1692,2.2955,2.1964,2.1705,2.2997,2.2121,2.1468,2.1443,2.093,2.1106,2.2184,2.2694,2.3007,2.3108,2.3108,2.3108,2.3108,2.3108,2.3108,2.3083,2.2033,2.1531,2.1531,2.1468,2.1481,2.1606,2.2656,2.3108,2.3108,2.3108,2.3108,2.3108,2.3108,2.3459,2.4004,2.4054,2.4732,2.5411,2.4059,2.3254,2.2951,2.3698,2.3521,2.3108,2.3108,2.2537,2.1721,2.0846,2.056,2.0561,2.0658,2.1311,2.2133,2.3001,2.3622,2.3952,2.3586,2.3807,2.3664,2.2392,2.1989,2.1593,2.075,2.0605,2.127,2.322,2.3514,2.4264,2.6342,2.6524,2.6107,2.5171,2.5004,2.4945,2.4992,2.4246,2.4173,2.5099,2.5171,2.4778,2.3875,2.4695,2.4884,2.4406,2.4406,2.3075,2.042,2.1777,2.1453,1.9734,2.0986,2.1315,2.0854,2.0854,2.0854,2.0886,2.095,2.0433,1.9593,1.9527,1.8918,1.811,1.8042,1.7764,1.7523,1.9798,1.9798,1.9798,1.9798,1.9798,1.9798,1.9798,2.0765,2.1493,2.1493,2.216,2.2747,2.3065,2.2845,2.2777,2.3065,2.2121,2.1368,2.1051,2.0388,2.0489,2.1619,2.1782,2.2246,2.3083,2.3108,2.3108,2.3108,2.3108,2.3108,2.3083,2.2268,2.1892,2.1866,2.129,2.1352,2.1942,2.2757,2.3108,2.3108,2.3108,2.3108,2.3108,2.3108,2.3459,2.4054,2.4494,2.5059,2.5477,2.4755,2.4144,2.3685,2.336,2.3208,2.3108,2.3108,2.2537,2.1721,2.0846,2.0347,2.0229,2.103,2.162,2.2301,2.3548,2.4243,2.473,2.5033,2.401,2.305,2.3169,2.1935,2.0828,2.0644,2.0605,2.127,2.322,2.3514,2.4391,2.6831,2.6763,2.6255,2.5696,2.4916,2.4641,2.5127,2.5631,2.6032,2.6231,2.6613,2.6691,2.65,2.6282,2.6114,2.599,2.599,2.491,2.2758,2.3763,2.3658,2.2595,2.2911,2.2966,2.286,2.286,2.286,2.2926,2.3616,2.3123,2.1892,2.1195,2.0148,1.8944,1.8236,1.7949,1.7881,2.0189,2.0239,2.03,2.0564,2.0602,2.0602,2.0602,2.1104,2.1581,2.1845,2.2159,2.2518,2.3045,2.2869,2.2819,2.3083,2.2343,2.1681,2.1202,2.0828,2.0752,2.1106,2.1606,2.2146,2.2706,2.297,2.3108,2.3108,2.3108,2.3108,2.3095,2.2443,2.2142,2.213,2.1741,2.1779,2.218,2.2832,2.3108,2.3108,2.3108,2.3108,2.3108,2.3108,2.3296,2.369,2.4487,2.5159,2.5548,2.5285,2.4657,2.3941,2.364,2.3333,2.3108,2.3108,2.2793,2.2187,2.0942,2.0916,2.1252,2.1352,2.2263,2.3333,2.4206,2.4808,2.4996,2.4342,2.3605,2.2885,2.2221,2.1452,2.0889,2.0889,2.0889,2.1593,2.3574,2.3873,2.474,2.7018,2.7291,2.6974,2.6234,2.57,2.5515,2.5831,2.6776,2.7311,2.7311,2.7554,2.7557,2.7329,2.704,2.6763,2.6499,2.6499,2.598,2.4958,2.5386,2.4867,2.3513,2.4199,2.4352,2.4132,2.4132,2.4132,2.4165,2.4613,2.3988,2.265,2.2197,2.0896,1.9233,1.8787,1.8361,1.8008,2.0453,2.0629,2.0842,2.1295,2.1458,2.1455,2.1395,2.143,2.1619,2.1983,2.1794,2.1983,2.2869,2.2644,2.2606,2.3058,2.2606,2.2046,2.1443,2.1455,2.1307,2.0855,2.1782,2.2347,2.2418,2.2869,2.3108,2.3108,2.3108,2.3108,2.3095,2.2631,2.2447,2.2447,2.2447,2.2447,2.2456,2.2907,2.3108,2.3108,2.3108,2.3108,2.3108,2.3108,2.3158,2.3384,2.4311,2.4958,2.5322,2.5322,2.4669,2.3853,2.3853,2.3496,2.3108,2.3108,2.3108,2.275,2.1227,2.1737,2.2512,2.1896,2.3034,2.4408,2.4975,2.5435,2.5321,2.3688,2.3415,2.3032,2.1486,2.1214,2.122,2.1298,2.1307,2.2029,2.4045,2.4377,2.5203,2.7316,2.7971,2.7928,2.7084,2.6846,2.6844,2.7141,2.7742,2.8188,2.8398,2.8298,2.8034,2.7582,2.7469,2.7241,2.6788,2.6688,2.6637,2.6637,2.6537,2.5623,2.4068,2.5223,2.5411,2.4834,2.5031,2.4998,2.4855,2.5031,2.4357,2.3171,2.2926,2.1699,1.9995,1.9674,1.8977,1.8212,1.9911,2.0352,2.0717,2.0792,2.1194,2.1358,2.088,2.1207,2.137,2.0968,2.1656,2.2259,2.238,2.2757,2.302,2.3095,2.2606,2.1917,2.1051,2.1317,2.1455,2.138,2.1983,2.2506,2.2982,2.3058,2.3108,2.3108,2.3108,2.3108,2.3108,2.3032,2.2995,2.2995,2.2995,2.2995,2.2995,2.307,2.3108,2.3108,2.3108,2.3108,2.3108,2.3108,2.3409,2.3904,2.4054,2.4155,2.4217,2.4217,2.376,2.3221,2.3221,2.317,2.3108,2.3108,2.3108,2.2884,2.197,2.2119,2.2648,2.311,2.3712,2.4568,2.5968,2.6336,2.6305,2.6052,2.4648,2.3538,2.3709,2.2329,2.1317,2.1738,2.1797,2.2534,2.4592,2.4903,2.5835,2.8375,2.8737,2.8737,2.8612,2.7766,2.7806,2.9272,2.8587,2.8548,2.9515,2.9089,2.875,2.8675,2.8247,2.7959,2.7883,2.7406,2.7203,2.7203,2.6725,2.6343,2.609,2.6302,2.5864,2.5013,2.5871,2.5768,2.5048,2.5918,2.5866,2.5091,2.3872,2.3181,2.2744,2.1181,1.9957,1.9073,2.0251,2.0767,2.1382,2.2074,2.2305,2.2467,2.2695,2.2296,2.197,2.2033,2.2196,2.2393,2.2706,2.2957,2.3108,2.3108,2.2882,2.2569,2.2167,2.1904,2.1568,2.1081,2.2146,2.2569,2.2221,2.2794,2.3108,2.3108,2.3108,2.3108,2.3108,2.3108,2.3108,2.3108,2.3108,2.3108,2.3108,2.3108,2.3108,2.3108,2.3108,2.3108,2.3145,2.3459,2.3778,2.4042,2.4343,2.4255,2.4004,2.4004,2.3615,2.3108,2.3108,2.3108,2.3108,2.3108,2.3333,2.3418,2.257,2.3268,2.4176,2.3994,2.4713,2.5733,2.6721,2.6952,2.6689,2.583,2.4516,2.3486,2.3367,2.2389,2.1738,2.2168,2.2236,2.276,2.4228,2.5021,2.6429,2.9098,2.9415,2.9415,2.9415,2.8414,2.8304,2.9689,2.8727,2.8597,2.9753,2.9553,2.9264,2.89,2.865,2.8411,2.8109,2.7871,2.7745,2.7745,2.7494,2.7253,2.6952,2.6637,2.6103,2.5445,2.5597,2.5406,2.504,2.5476,2.5657,2.554,2.4925,2.4016,2.2932,2.1957,2.0938,2.0053]}]]